[[{"header":{"parameterUnit":"m.s-1","parameterCategory":1,"la1":30.6,"la2":29.2853,"lo1":-89.7004,"lo2":-87.6739,"dy":0.0162,"dx":0.0183,"nx":112,"ny":82,"refTime":"2025-05-22T18:00:00:Z","depth":0,"parameterNumber":2,"parameterNumberName":"U-component_of_WINDS"},"data":[0.0,0.0,0.0,0.0,0.0,0.0,0.0,0.0,0.0,0.0,0.0,0.0,0.0,0.0,0.0,0.0,0.0,0.0,0.0,0.0,0.0,0.0,0.0,0.0,0.0,0.0,0.0,0.0,0.0,0.0,0.0,0.0,0.0,0.0,0.0,0.0,0.0,0.0,0.0,0.0,0.0,0.0,0.0,0.0,0.0,0.0,0.0,0.0,0.0,0.0,0.0,0.0,0.0,0.0,0.0,0.0,0.0,0.0,0.0,0.0,0.0,0.0,0.0,0.0,0.0,0.0,0.0,0.0,0.0,0.0,0.0,0.0,0.0,0.0,0.0,0.0,0.0,0.0,0.0,0.0,0.0,0.0,0.0,0.0,0.0,0.0,0.0,0.0,0.0,0.0,-3.3895,-3.5681,-3.7183,-3.7499,-3.6148,-3.512,-3.2931,-2.9122,0.0,0.0,0.0,0.0,0.0,0.0,0.0,0.0,0.0,0.0,0.0,0.0,0.0,0.0,0.0,0.0,0.0,0.0,0.0,0.0,0.0,0.0,0.0,0.0,0.0,0.0,0.0,0.0,0.0,0.0,0.0,0.0,0.0,0.0,0.0,0.0,0.0,0.0,0.0,0.0,0.0,0.0,0.0,0.0,0.0,0.0,0.0,0.0,0.0,0.0,0.0,0.0,0.0,0.0,0.0,0.0,0.0,0.0,0.0,0.0,0.0,0.0,0.0,0.0,0.0,0.0,0.0,0.0,0.0,0.0,0.0,0.0,0.0,0.0,0.0,0.0,0.0,0.0,0.0,0.0,0.0,0.0,0.0,0.0,0.0,0.0,0.0,0.0,0.0,0.0,0.0,0.0,0.0,0.0,0.0,0.0,0.0,0.0,0.0,0.0,0.0,0.0,0.0,0.0,-3.3617,-3.6617,-3.7734,-3.7706,-3.6321,-3.4896,-3.2645,-2.9274,0.0,0.0,0.0,0.0,0.0,0.0,0.0,0.0,0.0,0.0,0.0,0.0,0.0,0.0,0.0,0.0,0.0,0.0,0.0,0.0,0.0,0.0,0.0,0.0,0.0,0.0,0.0,0.0,0.0,0.0,0.0,0.0,0.0,0.0,0.0,0.0,0.0,0.0,0.0,0.0,0.0,0.0,0.0,0.0,0.0,0.0,0.0,0.0,0.0,0.0,0.0,0.0,0.0,0.0,0.0,0.0,0.0,0.0,0.0,0.0,0.0,0.0,0.0,0.0,0.0,0.0,0.0,0.0,0.0,0.0,0.0,0.0,0.0,0.0,0.0,0.0,0.0,0.0,0.0,0.0,0.0,0.0,0.0,0.0,0.0,0.0,0.0,0.0,0.0,0.0,0.0,0.0,0.0,0.0,0.0,0.0,0.0,0.0,0.0,0.0,0.0,0.0,0.0,-3.3322,-3.47,-3.7945,-3.8267,-3.7879,-3.6768,-3.5033,-3.2715,-2.966,-2.9012,0.0,0.0,0.0,0.0,0.0,0.0,0.0,0.0,0.0,0.0,0.0,0.0,0.0,0.0,0.0,0.0,0.0,0.0,0.0,0.0,0.0,0.0,0.0,0.0,0.0,0.0,0.0,0.0,0.0,0.0,0.0,0.0,0.0,0.0,0.0,0.0,0.0,0.0,0.0,0.0,0.0,0.0,0.0,0.0,0.0,0.0,0.0,0.0,0.0,0.0,0.0,0.0,0.0,0.0,0.0,0.0,0.0,0.0,0.0,0.0,0.0,0.0,0.0,0.0,0.0,0.0,0.0,0.0,0.0,0.0,0.0,0.0,0.0,0.0,0.0,0.0,0.0,0.0,0.0,0.0,0.0,0.0,0.0,0.0,0.0,0.0,0.0,0.0,0.0,0.0,0.0,0.0,0.0,0.0,0.0,0.0,0.0,0.0,0.0,0.0,0.0,0.0,-3.5216,-3.6269,-3.8698,-3.8574,-3.7937,-3.7027,-3.4847,-3.2497,-3.0023,-2.8695,0.0,0.0,0.0,0.0,0.0,0.0,0.0,0.0,0.0,0.0,0.0,0.0,0.0,0.0,0.0,0.0,0.0,0.0,0.0,0.0,0.0,0.0,0.0,0.0,0.0,0.0,0.0,0.0,0.0,0.0,0.0,0.0,0.0,0.0,0.0,0.0,0.0,0.0,0.0,0.0,0.0,0.0,0.0,0.0,0.0,0.0,0.0,0.0,0.0,0.0,0.0,0.0,0.0,0.0,0.0,0.0,0.0,0.0,0.0,0.0,0.0,0.0,0.0,0.0,0.0,0.0,0.0,0.0,0.0,0.0,0.0,0.0,0.0,0.0,0.0,0.0,0.0,0.0,0.0,0.0,0.0,0.0,0.0,0.0,0.0,0.0,0.0,0.0,0.0,0.0,0.0,0.0,0.0,0.0,0.0,0.0,0.0,0.0,0.0,0.0,0.0,0.0,-3.596,-3.7853,-3.8284,-3.8351,-3.7838,-3.6662,-3.3826,-3.1591,-3.028,-2.7513,0.0,0.0,0.0,0.0,0.0,0.0,0.0,0.0,0.0,0.0,0.0,0.0,0.0,0.0,0.0,0.0,0.0,0.0,0.0,0.0,0.0,0.0,0.0,0.0,0.0,0.0,0.0,0.0,0.0,0.0,0.0,0.0,0.0,0.0,0.0,0.0,0.0,0.0,0.0,0.0,0.0,0.0,0.0,0.0,0.0,0.0,0.0,0.0,0.0,0.0,0.0,0.0,0.0,0.0,0.0,0.0,0.0,0.0,0.0,0.0,0.0,0.0,0.0,0.0,0.0,0.0,0.0,0.0,0.0,0.0,0.0,0.0,0.0,0.0,0.0,0.0,0.0,0.0,0.0,0.0,0.0,0.0,0.0,0.0,0.0,0.0,0.0,0.0,0.0,0.0,0.0,0.0,0.0,0.0,0.0,0.0,0.0,0.0,0.0,0.0,0.0,0.0,-3.5199,-3.7256,-3.9204,-3.8739,-3.7947,-3.7058,-3.4364,-3.183,-2.9699,0.0,0.0,0.0,0.0,0.0,0.0,0.0,0.0,0.0,0.0,0.0,0.0,0.0,0.0,0.0,0.0,0.0,0.0,0.0,0.0,0.0,0.0,0.0,0.0,0.0,0.0,0.0,0.0,0.0,0.0,0.0,0.0,0.0,0.0,0.0,0.0,0.0,0.0,0.0,0.0,0.0,0.0,0.0,0.0,0.0,0.0,0.0,0.0,0.0,0.0,0.0,0.0,0.0,0.0,0.0,0.0,0.0,0.0,0.0,0.0,0.0,0.0,0.0,0.0,0.0,0.0,0.0,0.0,0.0,0.0,0.0,0.0,0.0,0.0,0.0,0.0,0.0,0.0,0.0,0.0,0.0,0.0,0.0,0.0,0.0,0.0,0.0,0.0,0.0,0.0,0.0,0.0,0.0,0.0,0.0,0.0,0.0,0.0,0.0,0.0,0.0,0.0,-3.3085,-3.5115,-3.7155,-3.9308,-3.8581,-3.7648,-3.6773,-3.3979,-3.1365,-2.9368,0.0,0.0,0.0,0.0,0.0,0.0,0.0,0.0,0.0,0.0,0.0,0.0,0.0,0.0,0.0,0.0,0.0,0.0,0.0,0.0,0.0,0.0,0.0,0.0,0.0,0.0,0.0,0.0,0.0,0.0,0.0,0.0,0.0,0.0,0.0,0.0,0.0,0.0,0.0,0.0,0.0,0.0,0.0,0.0,0.0,0.0,0.0,0.0,0.0,0.0,0.0,0.0,0.0,0.0,0.0,0.0,0.0,0.0,0.0,0.0,0.0,0.0,0.0,0.0,0.0,0.0,0.0,0.0,0.0,0.0,0.0,0.0,0.0,0.0,0.0,0.0,0.0,0.0,0.0,0.0,0.0,0.0,0.0,0.0,0.0,0.0,0.0,0.0,0.0,0.0,0.0,0.0,0.0,0.0,0.0,0.0,0.0,0.0,0.0,0.0,0.0,0.0,-3.3203,-3.6028,-3.797,-3.8284,-3.7686,-3.6782,-3.5566,-3.2241,-2.9965,0.0,0.0,0.0,0.0,0.0,0.0,0.0,0.0,0.0,0.0,0.0,0.0,0.0,0.0,0.0,0.0,0.0,0.0,0.0,0.0,0.0,0.0,0.0,0.0,0.0,0.0,0.0,0.0,0.0,0.0,0.0,0.0,0.0,0.0,0.0,0.0,0.0,0.0,0.0,0.0,0.0,0.0,0.0,0.0,0.0,0.0,0.0,0.0,0.0,0.0,0.0,0.0,0.0,0.0,0.0,0.0,0.0,0.0,0.0,0.0,0.0,0.0,0.0,0.0,0.0,0.0,0.0,0.0,0.0,0.0,0.0,0.0,0.0,0.0,0.0,0.0,0.0,0.0,0.0,0.0,0.0,0.0,0.0,0.0,0.0,0.0,0.0,0.0,0.0,0.0,0.0,0.0,0.0,0.0,0.0,0.0,0.0,0.0,0.0,0.0,0.0,0.0,0.0,-3.2493,-3.4947,-3.6804,-3.7376,-3.6573,-3.5594,-3.4754,-3.2416,-3.036,-2.8796,0.0,0.0,0.0,0.0,0.0,0.0,0.0,0.0,0.0,0.0,0.0,0.0,0.0,0.0,0.0,0.0,0.0,0.0,0.0,0.0,0.0,0.0,0.0,0.0,0.0,0.0,0.0,0.0,0.0,0.0,0.0,0.0,0.0,0.0,0.0,0.0,0.0,0.0,0.0,0.0,0.0,0.0,0.0,0.0,0.0,0.0,0.0,0.0,0.0,0.0,0.0,0.0,0.0,0.0,0.0,0.0,0.0,0.0,0.0,0.0,0.0,0.0,0.0,0.0,0.0,0.0,0.0,0.0,0.0,0.0,0.0,0.0,0.0,0.0,0.0,0.0,0.0,0.0,0.0,0.0,0.0,0.0,0.0,0.0,0.0,0.0,0.0,0.0,0.0,0.0,0.0,0.0,0.0,0.0,0.0,0.0,0.0,0.0,0.0,0.0,0.0,0.0,-3.2131,-3.4315,-3.6121,-3.6987,-3.5999,-3.5058,-3.4327,-3.2282,-3.0258,-2.8519,0.0,0.0,0.0,0.0,0.0,0.0,0.0,0.0,0.0,0.0,0.0,0.0,0.0,0.0,0.0,0.0,0.0,0.0,0.0,0.0,0.0,0.0,0.0,0.0,0.0,0.0,0.0,0.0,0.0,0.0,0.0,0.0,0.0,0.0,0.0,0.0,0.0,0.0,0.0,0.0,0.0,0.0,0.0,0.0,0.0,0.0,0.0,0.0,0.0,0.0,0.0,0.0,0.0,0.0,0.0,0.0,0.0,0.0,0.0,0.0,0.0,0.0,0.0,0.0,0.0,0.0,0.0,0.0,0.0,0.0,0.0,0.0,0.0,0.0,0.0,0.0,0.0,0.0,0.0,0.0,0.0,0.0,0.0,0.0,0.0,0.0,0.0,0.0,0.0,0.0,0.0,0.0,0.0,0.0,0.0,0.0,0.0,0.0,0.0,0.0,0.0,0.0,-3.1873,-3.3994,-3.5693,-3.6638,-3.5671,-3.4748,-3.4076,-3.1887,-2.9935,-2.8581,0.0,0.0,0.0,0.0,0.0,0.0,0.0,0.0,0.0,0.0,0.0,0.0,0.0,0.0,0.0,0.0,0.0,0.0,0.0,0.0,0.0,0.0,0.0,0.0,0.0,0.0,0.0,0.0,0.0,0.0,0.0,0.0,0.0,0.0,0.0,0.0,0.0,0.0,0.0,0.0,0.0,0.0,0.0,0.0,0.0,0.0,0.0,0.0,0.0,0.0,0.0,0.0,0.0,0.0,0.0,0.0,0.0,0.0,0.0,0.0,-2.9281,0.0,0.0,0.0,0.0,0.0,0.0,0.0,0.0,0.0,0.0,0.0,0.0,0.0,0.0,0.0,0.0,0.0,0.0,0.0,0.0,0.0,0.0,0.0,0.0,0.0,0.0,0.0,0.0,0.0,0.0,0.0,0.0,0.0,0.0,0.0,0.0,0.0,0.0,0.0,0.0,0.0,-3.1046,-3.2857,-3.4164,-3.4491,-3.4002,-3.3419,-3.2803,-3.1774,-3.0612,-2.9273,-2.7934,0.0,0.0,0.0,0.0,0.0,0.0,0.0,0.0,0.0,0.0,0.0,0.0,0.0,0.0,0.0,0.0,0.0,0.0,0.0,0.0,0.0,0.0,0.0,0.0,0.0,0.0,0.0,0.0,0.0,0.0,0.0,0.0,0.0,0.0,0.0,0.0,0.0,0.0,0.0,0.0,0.0,0.0,0.0,0.0,0.0,0.0,0.0,0.0,0.0,0.0,0.0,0.0,0.0,0.0,0.0,0.0,0.0,0.0,0.0,0.0,-3.0971,0.0,0.0,0.0,0.0,0.0,0.0,0.0,0.0,0.0,0.0,0.0,0.0,0.0,0.0,0.0,0.0,0.0,0.0,0.0,0.0,0.0,0.0,0.0,0.0,0.0,0.0,0.0,0.0,0.0,0.0,0.0,0.0,0.0,0.0,0.0,0.0,0.0,0.0,0.0,0.0,-3.069,-3.2563,-3.3867,-3.4137,-3.3665,-3.3198,-3.2641,-3.1528,-3.037,-2.9373,-2.8102,0.0,0.0,0.0,0.0,0.0,0.0,0.0,0.0,0.0,0.0,0.0,0.0,0.0,0.0,0.0,0.0,0.0,0.0,0.0,0.0,0.0,0.0,0.0,0.0,0.0,0.0,0.0,0.0,0.0,0.0,0.0,0.0,0.0,0.0,0.0,0.0,0.0,0.0,0.0,0.0,0.0,0.0,0.0,0.0,0.0,0.0,0.0,0.0,0.0,0.0,0.0,0.0,0.0,-3.6087,-3.5987,-3.5832,-3.5658,-3.5591,-3.548,-3.4449,-3.4088,-3.4134,0.0,0.0,0.0,0.0,0.0,0.0,0.0,0.0,0.0,0.0,0.0,0.0,0.0,0.0,0.0,0.0,0.0,0.0,0.0,0.0,0.0,0.0,0.0,0.0,0.0,-3.1553,-3.1626,0.0,0.0,0.0,0.0,0.0,0.0,0.0,0.0,0.0,0.0,0.0,0.0,-3.0734,-3.2602,-3.3961,-3.4203,-3.3751,-3.3187,-3.2524,-3.1197,-3.002,-2.9241,-2.8194,-2.6995,0.0,0.0,0.0,0.0,0.0,0.0,0.0,0.0,0.0,0.0,0.0,0.0,0.0,0.0,0.0,0.0,0.0,0.0,0.0,0.0,0.0,0.0,0.0,0.0,0.0,0.0,0.0,0.0,0.0,0.0,0.0,0.0,-3.0966,-3.1781,0.0,0.0,0.0,0.0,0.0,0.0,0.0,0.0,0.0,0.0,0.0,0.0,0.0,-3.6649,-3.7206,-3.8486,-3.8876,-3.8356,-3.8891,-3.8722,-3.8012,-3.7968,-3.7877,-3.7803,-3.8206,0.0,-3.5583,-3.4703,0.0,0.0,0.0,0.0,0.0,0.0,0.0,0.0,0.0,0.0,0.0,0.0,0.0,0.0,0.0,0.0,0.0,0.0,0.0,0.0,0.0,0.0,-3.4154,-3.3508,-3.3425,-3.3396,0.0,-3.1545,-3.0129,-2.9284,-2.9218,0.0,0.0,0.0,0.0,0.0,0.0,0.0,-3.1305,-3.2557,-3.3372,-3.3515,-3.3161,-3.2446,-3.1326,-3.1113,-3.0525,-2.9271,-2.8639,-2.7919,-2.7149,-2.5964,0.0,0.0,0.0,0.0,0.0,0.0,0.0,0.0,0.0,0.0,0.0,0.0,0.0,0.0,0.0,0.0,0.0,0.0,0.0,0.0,0.0,0.0,0.0,0.0,0.0,0.0,0.0,0.0,0.0,-3.1329,-3.2604,-3.3292,-3.3797,-3.3669,0.0,0.0,0.0,0.0,0.0,0.0,0.0,0.0,0.0,-3.5658,-3.753,-3.8669,-3.8955,-3.9974,-4.0308,-3.998,-4.0262,-4.0151,-3.9701,-3.959,-3.9494,-3.9367,-3.9528,-3.9056,-3.8055,-3.6525,-3.5026,-3.3532,0.0,0.0,0.0,0.0,0.0,-3.2269,-3.2681,-3.3057,0.0,0.0,0.0,0.0,0.0,0.0,0.0,0.0,0.0,0.0,0.0,0.0,0.0,-3.4197,-3.4213,-3.4118,-3.3876,-3.3126,-3.2063,0.0,-3.0615,-3.0274,-2.7938,0.0,0.0,0.0,0.0,-3.0896,-3.1667,-3.2884,-3.3478,-3.2879,-3.2711,-3.2219,-3.1347,-3.0803,-3.0281,-2.9703,-2.8882,-2.8104,-2.7426,-2.6811,-2.6118,0.0,0.0,0.0,0.0,0.0,0.0,0.0,0.0,0.0,0.0,0.0,0.0,0.0,0.0,0.0,0.0,0.0,0.0,0.0,0.0,0.0,0.0,0.0,0.0,0.0,0.0,0.0,0.0,-3.2658,-3.3942,-3.4821,-3.5828,-3.5928,0.0,0.0,0.0,0.0,0.0,0.0,-3.4411,-3.6661,-3.7875,-3.7748,-3.969,-4.0735,-4.0753,-4.1022,-4.1164,-4.1116,-4.0927,-4.0745,-4.06,-4.0485,-4.0337,-4.0205,-4.0003,-3.9901,-3.9698,-3.7964,-3.6359,-3.4874,-3.3429,-3.2446,-3.1858,-3.2328,-3.2954,-3.3656,-3.4242,-3.4793,-3.5061,-3.3879,0.0,-3.276,-3.1658,0.0,0.0,0.0,0.0,-3.2569,-3.3786,0.0,-3.4157,-3.4511,-3.4594,-3.4497,-3.4151,-3.4101,-3.3582,0.0,-3.196,-3.1658,-2.9026,0.0,0.0,0.0,0.0,-3.2017,-3.236,-3.3242,-3.361,-3.2926,-3.2453,-3.2003,-3.1513,-3.0719,-3.0114,-2.9765,-2.9062,-2.8365,-2.7688,-2.7488,-2.6903,-2.5872,0.0,0.0,0.0,0.0,0.0,0.0,0.0,0.0,0.0,0.0,0.0,0.0,0.0,0.0,0.0,0.0,0.0,0.0,0.0,0.0,0.0,0.0,0.0,0.0,0.0,0.0,0.0,0.0,0.0,-3.6407,-3.7576,0.0,0.0,0.0,0.0,-3.5518,-3.6182,-3.6893,-3.7537,-3.972,-4.0909,-4.0799,-4.2341,-4.3123,-4.3042,-4.2285,-4.1891,-4.1744,-4.1023,-4.0551,-4.0305,-4.0305,-4.0155,-3.9901,-3.9901,-3.9849,-3.9662,-3.8824,-3.7635,-3.6212,-3.5375,-3.4638,-3.4052,-3.4086,-3.4571,-3.5191,-3.5068,-3.5071,-3.5088,-3.4864,-3.3948,-3.2907,-3.2823,-3.2307,0.0,0.0,-3.3267,-3.3856,-3.4651,-3.4833,-3.4849,-3.4883,-3.4899,-3.4756,-3.4201,-3.4101,-3.3858,0.0,-3.2935,-3.2545,-3.1234,0.0,-3.1183,-3.1384,-3.2133,-3.2895,-3.3594,-3.3417,-3.3423,-3.3933,-3.2547,-3.1498,-3.1382,-3.1128,-3.0418,-2.9128,-2.9245,-2.9058,-2.8381,-2.7734,-2.7365,-2.7288,-2.5995,0.0,0.0,0.0,0.0,0.0,0.0,0.0,0.0,0.0,0.0,0.0,0.0,0.0,0.0,0.0,0.0,0.0,0.0,0.0,0.0,0.0,0.0,0.0,0.0,0.0,0.0,0.0,0.0,-3.7882,-3.9251,0.0,-3.8465,-3.7803,-3.7827,-3.8576,-3.8909,-3.9521,-4.0568,-4.1851,-4.2514,-4.2434,-4.297,-4.3214,-4.3214,-4.2938,-4.2442,-4.1795,-4.1538,-4.1013,-4.0305,-4.0188,-4.0087,-3.9901,-3.9694,-3.959,-3.952,-3.9201,-3.857,-3.7752,-3.6901,-3.6119,-3.5485,-3.5374,-3.5241,-3.5058,-3.4994,-3.4994,-3.4947,-3.4899,-3.4598,-3.4184,-3.4184,-3.3985,-3.3835,-3.4101,-3.4349,-3.4568,-3.4833,-3.4899,-3.4851,-3.4691,-3.4643,-3.4497,-3.3949,-3.3848,-3.3716,-3.3272,-3.331,-3.3028,-3.1692,-3.1963,-3.2297,-3.2159,-3.2702,-3.3379,-3.3909,-3.3872,-3.3697,-3.3527,-3.2933,-3.2423,-3.2044,-3.1297,-3.0499,-2.9674,-2.9092,-2.8658,-2.8411,-2.8181,-2.7642,-2.6765,-2.6257,-2.5564,0.0,0.0,0.0,0.0,0.0,0.0,0.0,0.0,0.0,0.0,0.0,0.0,0.0,0.0,0.0,0.0,0.0,0.0,0.0,0.0,0.0,0.0,0.0,0.0,0.0,-3.6095,-3.8025,-3.889,-4.0321,-4.1002,-4.0323,-4.0041,-4.0303,-4.1311,-4.1353,-4.1714,-4.25,-4.3212,-4.3627,-4.3594,-4.3802,-4.3923,-4.3923,-4.3682,-4.3064,-4.2157,-4.1833,-4.1153,-4.0238,-4.0087,-3.9935,-3.9833,-3.9606,-3.9501,-3.9448,-3.9342,-3.9096,-3.8737,-3.7918,-3.7136,-3.6439,-3.6141,-3.5694,-3.523,-3.4982,-3.4899,-3.4899,-3.4899,-3.4899,-3.4899,-3.4899,-3.4899,-3.4899,-3.4899,-3.4899,-3.4899,-3.4899,-3.4899,-3.4851,-3.4691,-3.4546,-3.4399,-3.3949,-3.3745,-3.3658,-3.345,-3.3607,-3.3406,-3.2462,-3.2967,-3.3421,-3.3137,-3.3559,-3.4004,-3.4333,-3.4201,-3.4034,-3.3783,-3.3459,-3.3039,-3.2695,-3.181,-3.0923,-3.0061,-2.93,-2.8773,-2.8411,-2.8181,-2.7642,-2.6734,-2.6503,-2.5933,-2.501,0.0,0.0,0.0,0.0,0.0,0.0,0.0,0.0,0.0,0.0,0.0,0.0,0.0,0.0,0.0,0.0,0.0,0.0,0.0,0.0,0.0,0.0,0.0,-3.6521,-3.7167,-3.8105,-3.9474,-4.0803,-4.1604,-4.1639,-4.2359,-4.2975,-4.3489,-4.3558,-4.3429,-4.3283,-4.3923,-4.4302,-4.4302,-4.5044,-4.5423,-4.5423,-4.4543,-4.37,-4.2774,-4.1852,-4.0968,-4.0087,-3.9935,-3.9833,-3.9677,-3.9537,-3.9448,-3.9272,-3.9272,-3.9272,-3.9206,-3.851,-3.7798,-3.7052,-3.634,-3.6042,-3.5844,-3.5148,-3.4899,-3.4899,-3.4899,-3.4899,-3.4899,-3.4899,-3.4899,-3.4899,-3.4932,-3.4916,-3.4899,-3.4932,-3.4916,-3.4899,-3.4899,-3.4691,-3.4448,-3.4151,-3.3899,-3.3694,-3.3694,-3.3694,-3.3694,-3.3694,-3.4151,-3.4497,-3.4497,-3.4756,0.0,-3.4899,-3.4448,-3.4349,-3.4835,-3.3935,-3.3251,-3.3251,-3.2653,-3.1667,-3.0144,-2.9921,-2.9434,-2.8427,-2.778,-2.7411,-2.7396,-2.6734,-2.638,-2.638,0.0,0.0,0.0,0.0,0.0,0.0,0.0,0.0,0.0,0.0,0.0,0.0,0.0,0.0,0.0,0.0,0.0,0.0,0.0,0.0,0.0,-3.4779,-3.5945,-3.6056,-3.8389,-4.0148,-4.0222,-4.1051,-4.1832,-4.2412,-4.2584,-4.3109,-4.4272,-4.4277,-4.4369,-4.4768,-4.501,-4.5113,-4.5113,-4.5303,-4.5423,-4.5423,-4.5041,-4.4197,-4.2791,-4.2415,-4.146,-4.007,-3.9884,-3.9729,-3.9677,-3.9484,-3.9325,-3.9272,-3.9272,-3.9164,-3.8952,-3.9003,-3.8421,-3.7518,-3.7305,-3.6411,-3.5277,-3.4792,-3.4594,-3.4643,-3.4851,-3.4899,-3.4899,-3.4899,-3.4899,-3.5015,-3.5545,-3.5313,-3.5015,-3.5562,-3.5297,-3.4899,-3.4899,-3.4835,-3.4707,-3.4448,-3.4349,-3.4151,-3.3761,-3.4,-3.43,-3.43,-3.4101,-3.4101,-3.4691,-3.4691,0.0,-3.4899,-3.4787,-3.4756,-3.4899,-3.4626,-3.4267,-3.3866,-3.2837,-3.1758,-3.0654,-2.9717,-2.8935,-2.8411,-2.8227,-2.7904,-2.7411,-2.6734,-2.638,0.0,0.0,0.0,0.0,0.0,0.0,0.0,0.0,0.0,0.0,0.0,0.0,0.0,0.0,0.0,0.0,0.0,0.0,0.0,0.0,0.0,0.0,-3.6876,-3.7866,-3.8058,-3.9815,-4.1073,-4.0945,-4.1341,-4.192,-4.2728,-4.2987,-4.3593,-4.462,-4.4902,-4.5165,-4.5406,-4.5113,-4.5096,-4.5406,-4.5113,-4.5096,-4.5423,-4.4885,-4.4042,-4.2774,-4.2209,-4.1307,-4.007,-3.9833,-3.9677,0.0,-3.9432,-3.9272,-3.9255,-3.8957,-3.8884,0.0,0.0,0.0,0.0,0.0,-3.5844,-3.4651,-3.4546,-3.4497,-3.4546,-3.4691,-3.4804,-3.4899,-3.4756,-3.4787,-3.4982,-3.5413,-3.523,-3.4998,-3.5429,-3.5214,-3.4899,-3.4899,-3.4787,-3.4691,-3.4546,-3.4349,-3.4101,-3.3899,0.0,0.0,-3.4448,-3.4349,-3.43,-3.4691,-3.4707,-3.4739,0.0,-3.4899,-3.4899,-3.4899,-3.4899,-3.4691,-3.4151,-3.2885,0.0,0.0,0.0,-2.856,-2.798,-2.798,0.0,0.0,0.0,0.0,0.0,0.0,0.0,0.0,-2.7796,-2.7703,0.0,0.0,0.0,0.0,0.0,0.0,0.0,0.0,0.0,0.0,0.0,0.0,0.0,0.0,0.0,0.0,-3.9012,-4.0581,-4.1176,-4.1194,-4.128,-4.1561,-4.1604,-4.192,-4.2728,-4.3395,-4.4008,-4.4637,-4.5265,-4.558,-4.5423,0.0,0.0,0.0,0.0,-4.4475,-4.5165,-4.4231,-4.3442,-4.2638,-4.1681,-4.0815,-4.007,-3.9833,-3.9729,-3.9729,-3.9432,-3.9325,-3.9276,-3.8593,-3.8656,-3.9164,-3.8876,-3.8193,-3.7171,-3.5764,-3.4791,0.0,0.0,0.0,0.0,-3.4497,-3.4691,-3.4851,-3.4594,-3.4691,-3.4916,-3.4998,-3.4965,-3.4916,-3.4998,-3.4965,-3.4899,-3.4899,-3.4691,-3.4546,-3.4497,-3.4151,-3.3848,-3.405,-3.3949,-3.3949,-3.4399,-3.4691,-3.4787,-3.4594,-3.4756,0.0,-3.4899,-3.4899,-3.4899,-3.4899,0.0,0.0,-3.4137,-3.2789,-3.182,-3.1406,-2.969,-2.831,-2.7534,-2.7503,-2.7503,-2.7503,-2.7503,-2.8104,-2.9304,-2.9381,-2.9766,-3.0381,-2.8581,-2.8381,0.0,0.0,0.0,0.0,0.0,0.0,0.0,0.0,0.0,0.0,0.0,0.0,0.0,0.0,0.0,-3.8467,-3.9606,-4.0621,-4.1884,-4.1872,-4.1715,-4.1631,-4.1604,-4.192,-4.2728,-4.2847,-4.3371,-4.4602,-4.4746,-4.494,-4.5389,-4.4699,-4.4354,-4.4492,-4.3768,-4.3457,-4.3595,-4.3271,-4.2655,-4.1818,0.0,0.0,-4.007,-3.9935,-3.9849,-3.9849,-3.959,-3.9448,-3.9432,-3.9176,-3.887,-3.856,-3.8504,-3.8165,-3.7575,-3.5959,-3.526,-3.5045,-3.4403,-3.4201,-3.4201,-3.4448,-3.4691,-3.4851,-3.4594,-3.4691,0.0,-3.5628,-3.5363,-3.5032,-3.5628,-3.5346,-3.4899,-3.4899,-3.4851,-3.4739,-3.4546,-3.4399,-3.43,-3.4151,-3.425,-3.4399,-3.4497,-3.4546,-3.4643,-3.4804,-3.4851,-3.4899,-3.4899,-3.4899,-3.4899,-3.4899,-3.4899,-3.4603,-3.3914,-3.2733,-3.1611,-3.0765,-2.928,-2.8383,-2.8211,-2.8211,-2.8211,-2.8211,-2.8211,-2.8334,-2.8596,-2.915,-2.9766,-3.0412,-3.0027,-2.9981,0.0,0.0,0.0,0.0,0.0,0.0,0.0,0.0,0.0,0.0,0.0,-3.2192,-3.3941,0.0,-3.7648,-4.0036,-4.0534,-4.1025,-4.2133,-4.2061,-4.1849,-4.1648,-4.1604,-4.1762,-4.2166,-4.2415,-4.2958,-4.3769,-4.4237,-4.4696,-4.5144,-4.4265,-4.3939,-4.4268,-4.3164,-4.2768,-4.3214,-4.2601,-4.2106,-4.1561,-4.112,-4.0595,-4.0087,-3.9935,-3.9901,-3.9901,-3.9606,-3.9501,-3.9501,-3.9342,-3.8842,-3.8095,-3.8469,-3.8036,-3.6985,-3.5419,-3.4951,-3.4972,-3.432,-3.4101,-3.4101,-3.425,-3.4497,-3.4643,-3.4399,-3.4594,-3.4982,-3.5346,-3.5181,-3.4982,-3.5346,-3.5181,-3.4899,-3.4899,-3.4899,-3.4851,-3.4546,-3.4399,-3.425,-3.4151,-3.4201,-3.4349,-3.4497,-3.4594,-3.4756,-3.4899,-3.4899,-3.4899,-3.4899,-3.4899,-3.4899,-3.4899,-3.4899,-3.4601,-3.3856,-3.2417,-3.0997,-2.9658,-2.9014,-2.8573,-2.8411,-2.8411,-2.8411,-2.8411,-2.8411,-2.8735,-2.9412,-2.975,-3.0443,-3.1413,-3.1413,-3.1413,0.0,0.0,0.0,0.0,0.0,0.0,0.0,-2.5703,-2.7201,-2.9858,-3.1657,-3.3555,-3.6166,-3.7675,-3.9193,-4.1198,-4.1311,-4.1391,-4.2187,-4.2019,-4.1805,-4.1719,-4.1648,-4.1648,-4.1719,-4.2211,-4.2642,-4.3083,-4.3992,-4.4589,-4.4812,-4.3885,-4.3554,-4.3971,-4.2541,-4.2078,-4.2765,-4.1997,-4.1523,-4.1356,-4.066,-4.0238,-4.0087,-3.9986,-3.9952,-3.9935,-3.9642,-3.9484,-3.9448,-3.9272,-3.8694,-3.7986,-3.8521,-3.7907,-3.6642,-3.534,-3.4946,-3.4952,-3.4554,-3.4264,-3.4101,-3.4151,-3.4349,-3.4448,-3.425,-3.4497,-3.4899,-3.4899,-3.4899,-3.4899,-3.4899,-3.4899,-3.4899,-3.4899,-3.4899,-3.4787,-3.4497,-3.425,-3.4101,-3.4101,-3.4101,-3.4201,-3.4497,-3.4739,-3.4899,-3.4899,-3.4899,-3.4899,-3.4899,-3.4899,-3.4899,-3.4899,-3.4899,-3.4488,-3.3502,-3.1814,-3.0183,-2.8764,-2.8764,-2.87,-2.8396,-2.8535,-2.8596,-2.8596,-2.8735,-2.9335,-3.0428,-3.0551,-3.1151,-3.2198,-3.2336,-3.2398,-1.9875,-1.9889,-2.0064,-2.0924,-2.133,-2.2618,0.0,-2.753,-2.8368,-3.1923,-3.4211,-3.5921,-3.7005,-3.8681,-4.0234,-4.1331,-4.1192,-4.1272,-4.2163,-4.1909,-4.1762,-4.2092,-4.1831,-4.1762,-4.2092,-4.2157,-4.2519,-4.3458,-4.4246,-4.4634,-4.4565,-4.4089,-4.3541,-4.2917,-4.166,-4.1043,-4.1129,-4.1043,-4.0848,-4.0605,-4.0519,-4.0337,-4.007,-4.007,-4.0087,-4.007,-3.9781,-3.952,-3.9272,-3.8969,-3.881,-3.8635,-3.8528,-3.8343,-3.8068,-3.7284,-3.6573,-3.5979,-3.5556,-3.4837,-3.4151,-3.4399,-3.4497,-3.4497,-3.4448,-3.4643,-3.4899,-3.4899,-3.4899,-3.4899,-3.4899,-3.4899,-3.4899,-3.4899,-3.4899,-3.4739,-3.425,-3.4101,-3.4101,-3.4101,-3.4101,-3.425,-3.4756,-3.4899,-3.4899,-3.4899,-3.4899,-3.4899,-3.4899,-3.4899,-3.4899,-3.4899,-3.4899,-3.4195,-3.2331,-3.0629,-2.9398,-2.8748,-2.8558,-2.8444,-2.8411,-2.8981,-2.9304,-2.9304,-2.9889,-3.0274,-3.0428,-3.0997,-3.1351,-3.152,-3.2105,-3.2398,-1.9376,-1.9287,-1.946,-2.0953,-2.2059,-2.3566,-2.6742,-2.7789,-2.8951,-3.208,-3.399,-3.5554,-3.7025,-3.88,-4.03,-4.1331,-4.1373,-4.1542,-4.2205,-4.2086,-4.2008,-4.2157,-4.2239,-4.2342,-4.2541,-4.24,-4.2624,-4.3317,-4.3701,-4.3984,-4.4209,-4.3772,-4.3279,-4.2745,-4.1747,-4.1117,-4.0871,-4.0888,-4.0776,-4.06,-4.0534,-4.0387,-4.0188,-4.0138,-4.0037,-3.9986,-3.9781,-3.9573,-3.9379,-3.9202,-3.9094,-3.9094,-3.8947,-3.8646,-3.8182,-3.7568,-3.6913,-3.6356,-3.5773,-3.4953,-3.4151,-3.4399,-3.4399,-3.43,-3.4448,-3.4691,-3.4899,-3.4899,-3.4899,-3.4899,-3.4899,-3.4899,-3.4899,-3.4899,-3.4899,-3.4739,-3.4201,-3.4101,-3.4101,-3.4101,-3.4101,-3.425,-3.4804,-3.4899,-3.4899,-3.4899,-3.4899,-3.4899,-3.4899,-3.4899,-3.4899,-3.4899,-3.4518,-3.3793,-3.2615,-3.0995,-2.9811,-2.9273,-2.8637,-2.8299,-2.8411,-2.9058,-2.9412,-2.9412,-3.0089,-3.0612,-3.0982,-3.1243,-3.1582,-3.1982,-3.2259,-3.2398,-1.8669,-1.8564,-1.9014,-2.0802,-2.2233,-2.3888,-2.6276,-2.7468,-2.8837,-3.1649,-3.3115,-3.4607,-3.6906,-3.8583,-4.0109,-4.1576,-4.185,-4.2123,-4.2714,-4.2655,-4.2619,-4.2843,-4.3154,-4.3451,-4.3798,-4.3157,-4.2884,-4.3322,-4.357,-4.3718,-4.3848,-4.3638,-4.3286,-4.2749,-4.1965,-4.1356,-4.1088,-4.0965,-4.084,-4.0697,-4.0583,-4.0502,-4.0305,-4.0188,-4.0037,-3.9901,-3.9781,-3.9642,-3.9501,-3.9395,-3.9325,-3.9272,-3.9272,-3.8957,-3.8441,-3.8019,-3.7245,-3.6368,-3.5859,-3.5053,-3.425,-3.4497,-3.4448,-3.425,-3.4546,-3.4756,-3.4899,-3.4899,-3.4899,-3.4899,-3.4899,-3.4899,-3.4899,-3.4899,-3.4899,-3.4739,-3.4201,-3.4101,-3.4101,-3.4101,-3.4101,-3.425,-3.4804,-3.4899,-3.4899,-3.4899,-3.4899,-3.4899,-3.4899,-3.4899,-3.4899,-3.4899,-3.4283,-3.3599,-3.2929,-3.1544,-3.036,-2.9637,-2.8858,-2.8414,-2.8411,-2.9058,-2.9504,-2.9689,-3.0351,-3.1012,-3.1659,-3.1659,-3.1921,-3.2398,-3.2398,-3.2398,-1.8009,-1.8222,-1.909,-2.0504,-2.1403,-2.281,-2.5959,-2.6755,-2.7654,-3.0924,-3.2135,-3.3537,-3.6712,-3.8168,-3.973,-4.2269,-4.2685,-4.3014,-4.3924,-4.3642,-4.3665,-4.451,-4.4635,-4.5088,0.0,-4.4432,-4.3358,-4.3771,-4.4338,-4.4325,-4.3571,-4.3851,-4.3733,-4.2917,-4.2008,-4.1472,-4.1472,-4.1071,-4.084,-4.0697,-4.0697,-4.0551,-4.0305,-4.0188,-4.0037,-3.9901,-3.9901,-3.9746,-3.9501,-3.9501,-3.9448,-3.9272,-3.9272,-3.9309,-3.9239,-3.9239,-3.788,-3.6042,-3.6009,-3.5317,-3.4546,-3.4804,-3.4707,-3.4546,-3.4804,-3.4899,-3.4899,-3.4899,-3.4899,-3.4899,-3.4899,-3.4899,-3.4899,-3.4899,-3.4899,-3.4739,-3.4201,-3.4101,-3.4101,-3.4101,-3.4101,-3.425,-3.4804,-3.4899,-3.4899,-3.4899,-3.4899,-3.4899,-3.4899,-3.4899,-3.4899,-3.4899,-3.4376,-3.3689,-3.2973,-3.1973,-3.0866,-2.9665,-2.9273,-2.8873,-2.8396,-2.9058,-2.972,-3.0381,-3.1028,-3.169,-3.2367,-3.2367,-3.2367,-3.2398,-3.2398,-3.2398,-1.8444,-1.8544,-1.8809,-2.0599,-2.1459,-2.2539,-2.4925,-2.6078,-2.7184,-2.8958,-3.0681,-3.2511,-3.451,-3.702,-3.9303,-4.092,-4.2554,-4.3764,-4.4077,-4.4667,-4.5185,-4.5461,-4.5745,-4.6045,0.0,0.0,0.0,-4.4598,-4.417,-4.3791,-4.3497,-4.3631,-4.347,-4.2938,-4.2595,-4.2297,-4.1948,-4.1839,-4.1753,-4.1709,-4.1293,-4.0819,-4.0305,-4.0238,-4.0138,-4.0037,-3.9952,-3.9849,-3.9746,-3.959,-3.9501,-3.9432,-3.9325,-3.899,-3.8576,-3.8576,-3.7798,-3.6804,-3.7301,-3.6504,-3.5267,-3.553,-3.5103,-3.4546,-3.4804,-3.4899,-3.4899,-3.4899,-3.4899,-3.4899,-3.4899,-3.4899,-3.4899,-3.4899,-3.4899,-3.4739,-3.4201,-3.4101,-3.4101,-3.4101,-3.4101,-3.425,-3.4804,-3.4899,-3.4899,-3.4899,-3.4899,-3.4899,-3.4899,-3.4899,-3.4899,-3.4899,-3.4825,-3.4485,-3.3812,-3.2774,-3.1659,-3.0522,-2.9603,-2.8873,-2.8396,-2.9058,-2.9735,-3.0412,-3.1059,-3.172,-3.2398,-3.2398,-3.2398,-3.2398,-3.2398,-3.2398,-1.8958,-1.8781,-1.8557,-2.0468,-2.1269,-2.204,-2.3753,-2.4984,-2.6145,-2.757,-2.9237,-3.115,-3.332,-3.5954,-3.8442,-4.0525,-4.2619,-4.4168,-4.4689,-4.5589,-4.6287,-4.6522,-4.6768,-4.7033,-4.733,-4.6212,0.0,-4.5023,-4.4336,-4.3791,-4.3516,-4.3497,-4.3375,-4.3105,-4.2957,-4.2768,-4.2458,-4.2279,-4.2198,-4.2198,-4.1743,-4.123,-4.0628,-4.058,-4.0451,-4.0188,-4.0104,-3.9851,-3.9514,-3.9309,-3.9206,-3.9154,-3.9049,-3.8864,-3.8645,-3.8593,-3.8295,-3.788,-3.7831,-3.7083,-3.609,-3.6042,-3.558,-3.5037,-3.4934,-3.4899,-3.4899,-3.4899,-3.4899,-3.4899,-3.4899,-3.4899,-3.4899,-3.4899,-3.4899,-3.4739,-3.4201,-3.4201,-3.4201,-3.4101,-3.4201,-3.4399,-3.4835,-3.4899,-3.4899,-3.4899,-3.4899,-3.4899,-3.4899,-3.4899,-3.4899,-3.4899,-3.5041,-3.4914,-3.4242,-3.3567,-3.2552,-3.0985,-3.0424,-2.9722,-2.8765,-2.9412,-3.0089,-3.0751,-3.1182,-3.172,-3.2398,-3.2398,-3.2398,-3.2398,-3.2398,-3.2398,-1.9452,-1.8942,-1.8405,-1.9977,-2.0677,-2.1428,-2.2628,-2.3492,-2.4669,-2.6763,-2.7832,-2.9474,-3.2905,-3.5019,-3.7401,-4.0945,-4.2834,-4.44,-4.581,-4.6468,-4.7038,-4.7689,-4.7757,-4.8088,-4.8869,-4.7408,-4.6027,-4.5149,0.0,-4.4305,-4.3534,-4.3479,-4.3497,-4.3532,-4.3142,-4.2938,-4.2938,-4.2498,-4.2239,-4.2239,-4.2098,-4.181,-4.1348,-4.1213,-4.0832,-4.0337,-4.0337,-3.9781,-3.8857,-3.8857,-3.874,-3.8589,-3.8471,-3.8818,-3.9435,-3.9362,-3.9325,-3.9126,-3.7698,-3.7185,-3.7052,-3.634,-3.6059,-3.5876,-3.5164,-3.4932,-3.4899,-3.4899,-3.4899,-3.4899,-3.4899,-3.4899,-3.4899,-3.4899,-3.4899,-3.4739,-3.425,-3.43,-3.4448,-3.4151,-3.4349,-3.4594,-3.4851,-3.4899,-3.4899,-3.4899,-3.4899,-3.4899,-3.4899,-3.4899,-3.4899,-3.4899,-3.5135,-3.5023,-3.4337,-3.4364,-3.3456,-3.1206,-3.1542,-3.1134,-2.9539,-3.0089,-3.0735,-3.1366,-3.1382,-3.172,-3.2398,-3.2398,-3.2398,-3.2398,-3.2398,-3.2398,-1.8685,-1.8731,-1.8674,-1.9131,-2.0161,-2.1187,-2.1479,-2.2895,-2.4434,-2.5702,-2.7254,-2.9048,-3.1086,-3.4566,-3.777,-3.9913,-4.3134,-4.5773,-4.698,-4.7846,-4.8399,-4.8558,-4.881,-4.9064,-4.927,-4.842,-4.7425,0.0,-4.4809,-4.3768,-4.36,-4.3532,-4.3513,-4.3582,-4.3479,-4.3444,-4.3444,-4.325,-4.3014,-4.2711,-4.2711,-4.2382,-4.181,-4.1768,-4.1464,-4.0926,-4.1202,-4.0648,-3.9512,-3.9371,-3.8935,-3.8397,-3.8505,-3.8656,-3.889,-3.9441,-3.952,-3.9382,-3.9016,-3.8482,-3.7897,-3.7715,-3.6903,-3.5959,-3.5777,-3.5346,-3.4899,-3.4899,-3.4899,-3.4899,-3.4899,-3.4899,-3.4899,-3.4899,-3.4899,-3.4804,-3.4448,-3.4448,-3.4497,-3.4399,-3.4594,-3.4804,-3.4899,-3.4899,-3.4899,-3.4899,-3.4899,-3.4899,-3.4899,-3.4899,-3.4947,-3.5041,-3.5198,-3.527,-3.5194,-3.4409,-3.3665,-3.3119,-3.195,-3.1114,-3.0775,-3.051,-3.0735,-3.1366,-3.1382,-3.172,-3.2398,-3.2398,-3.2398,-3.2398,-3.2398,-3.2398,-1.8982,-1.8998,-1.8942,-1.9462,-2.0355,-2.125,-2.1791,-2.3075,-2.4452,-2.5631,-2.7166,-2.8781,-3.0516,-3.4184,-3.7503,-3.9209,-4.2814,-4.5786,-4.6897,-4.8044,-4.8785,-4.8909,-4.9193,-4.9415,-4.9415,-4.8504,-4.7662,-4.7071,-4.5333,-4.4114,-4.3719,-4.36,-4.36,-4.3667,-4.3667,-4.3667,-4.3667,-4.36,-4.3444,-4.3214,-4.3196,-4.2902,-4.2382,-4.2382,-4.208,-4.1508,0.0,-4.0971,-3.9608,-3.9415,-3.9111,-3.8659,-3.8357,-3.8867,-3.9754,-3.9562,-3.9665,-3.9867,-3.959,-3.9182,-3.8695,-3.8311,-3.7649,-3.692,-3.6589,-3.5976,-3.5379,-3.5379,-3.5148,-3.4899,-3.4899,-3.4899,-3.4899,-3.4899,-3.4899,-3.4851,-3.4546,-3.4594,-3.4707,-3.4707,-3.4804,-3.4899,-3.4899,-3.4899,-3.4899,-3.4899,-3.4899,-3.4899,-3.4899,-3.4947,-3.4994,-3.5088,-3.5291,-3.5446,-3.5492,-3.4918,-3.4318,-3.3802,-3.2886,-3.2169,-3.1634,-3.142,-3.1459,-3.1828,-3.1828,-3.2013,-3.2398,-3.2398,-3.2398,-3.2398,-3.2398,-3.2398,-1.9736,-1.9473,-1.9264,-2.0248,-2.0869,-2.1542,-2.2749,-2.361,-2.461,-2.6187,-2.7415,-2.8763,-3.0686,-3.3917,-3.6897,-3.8829,-4.2242,-4.5081,-4.6357,-4.7659,-4.862,-4.8925,-4.9239,-4.942,-4.9367,-4.8151,-4.7365,-4.7201,-4.597,-4.4811,-4.3902,-4.3701,-4.3667,-4.3804,-4.3804,-4.3804,-4.3804,-4.3701,-4.3634,-4.3634,-4.3566,-4.3339,-4.2995,-4.2995,-4.2655,-4.2121,0.0,0.0,-3.9527,-3.9259,-3.9112,-3.8913,-3.8128,-3.9153,-4.0892,-3.9743,-3.9778,-4.0295,-3.9716,-3.9425,-3.917,-3.8546,-3.8228,-3.7947,-3.7301,-3.6522,-3.586,-3.586,-3.5396,-3.4899,-3.4899,-3.4899,-3.4899,-3.4899,-3.4899,-3.4851,-3.4594,-3.4756,-3.4899,-3.4899,-3.4899,-3.4899,-3.4899,-3.4899,-3.4899,-3.4899,-3.4899,-3.4899,-3.4947,-3.5041,-3.5105,-3.5135,-3.5337,-3.5492,-3.5537,-3.5503,-3.5093,-3.4122,-3.4039,-3.351,-3.2463,-3.2491,-3.2492,-3.2398,-3.2398,-3.2398,-3.2398,-3.2398,-3.2398,-3.2398,-3.2398,-3.2398,-1.932,-1.9639,-2.0215,-1.989,-2.0846,-2.2101,-2.287,-2.3794,-2.5052,-2.7069,-2.804,-2.9157,-3.1015,-3.388,-3.6738,-3.9115,-4.1952,-4.4724,-4.7332,-4.782,-4.8296,-4.9196,-4.9569,-4.9538,-4.9105,-4.8403,-4.7585,-4.6705,-4.5693,-4.4859,-4.425,-4.391,-4.3786,-4.3883,-4.3883,-4.3883,-4.3883,-4.3786,-4.3771,-4.3753,-4.3634,-4.3548,-4.3479,-4.341,-4.3142,-4.2714,0.0,0.0,-4.0091,-3.9258,-3.854,-3.795,-3.795,-3.8631,-3.9613,-3.9992,-4.0122,-4.0075,-3.9667,-3.8942,-3.8282,-3.8918,-3.8278,-3.7284,-3.7152,-3.6158,-3.5081,-3.5081,-3.4998,-3.4899,-3.4899,-3.4899,-3.4899,-3.4899,-3.4899,-3.4899,-3.4851,-3.4851,-3.4899,-3.4899,-3.4899,-3.4899,-3.4899,-3.4899,-3.4899,-3.4899,-3.4899,-3.4947,-3.5041,-3.5105,-3.5152,-3.5245,-3.54,-3.552,-3.5594,-3.5178,-3.5018,-3.5284,-3.4463,-3.3921,-3.3707,-3.3292,-3.2841,-3.2398,-3.2398,-3.2398,-3.2398,-3.2523,-3.2523,-3.2398,-3.2523,-3.2523,-2.0473,-2.0602,-2.0996,-2.106,-2.1604,-2.2506,-2.3929,-2.4687,-2.5697,-2.7941,-2.8914,-2.9868,-3.1278,-3.3864,-3.6384,-3.8315,-4.0831,-4.3547,-4.637,-4.7105,-4.7909,-4.9307,-4.9416,-4.9281,-4.9018,-4.8085,-4.7261,-4.6743,-4.574,-4.4919,-4.4374,-4.4079,-4.3929,-4.3961,-4.3942,-4.3942,-4.3942,-4.3883,-4.3851,-4.3851,-4.3753,-4.3667,-4.3582,-4.3548,-4.319,-4.2558,-4.2317,0.0,-3.9981,-3.9478,-3.9028,-3.8669,-3.8743,-3.924,-3.9896,-3.9975,-3.9976,-3.9876,-3.9382,-3.8829,-3.8459,-3.8887,-3.8371,-3.7682,-3.7682,-3.692,-3.5959,-3.5578,-3.5197,-3.4899,-3.4899,-3.4899,-3.4899,-3.4899,-3.4899,-3.4899,-3.4899,-3.4899,-3.4899,-3.4899,-3.4899,-3.4899,-3.4899,-3.4899,-3.4947,-3.4994,-3.4994,-3.5041,-3.5198,-3.5245,-3.5337,-3.54,-3.5475,-3.5549,-3.5577,-3.5362,-3.5333,-3.5577,-3.4577,-3.3986,-3.3986,-3.3214,-3.2641,-3.2398,-3.2398,-3.2453,-3.2523,-3.2578,-3.2648,-3.2648,-3.2718,-3.2718,-2.1628,-2.1628,-2.1827,-2.2211,-2.2433,-2.305,-2.5079,-2.5765,-2.657,-2.8732,-2.9837,-3.07,-3.1721,-3.3764,-3.583,-3.7442,-3.976,-4.2265,-4.4972,-4.6318,-4.7551,-4.89,-4.903,-4.8872,-4.8573,-4.7549,-4.6817,-4.6644,-4.5744,0.0,-4.4411,-4.4192,-4.4048,-4.4005,-4.4005,-4.4005,-4.4005,-4.3961,-4.3929,-4.3929,-4.3851,-4.3786,-4.3649,-4.3431,-4.2975,-4.2301,-4.1889,0.0,0.0,-3.9487,-3.9316,-3.9267,-3.9286,-3.969,-4.0221,-3.9875,-3.9725,-3.9631,-3.9042,-3.8713,-3.8548,-3.8512,-3.8252,-3.797,-3.797,-3.7369,-3.6572,-3.5975,-3.5346,-3.4899,-3.4899,-3.4899,-3.4899,-3.4899,-3.4899,-3.4899,-3.4899,-3.4899,-3.4899,-3.4899,-3.4899,-3.4947,-3.4899,-3.4947,-3.4994,-3.5105,-3.5135,-3.5198,-3.5354,-3.5446,-3.5492,-3.5537,-3.5594,-3.5622,-3.5622,-3.5622,-3.5622,-3.5622,-3.4833,-3.4284,-3.4185,-3.3266,-3.2695,-3.2586,-3.2508,-3.2523,-3.2594,-3.2703,-3.2773,-3.2897,-3.2897,-3.2897,-2.1502,-2.2013,-2.2823,-2.2237,-2.3027,-2.4208,-2.526,-2.6556,-2.7944,-2.9504,-3.0599,-3.1531,-3.2351,-3.357,-3.5133,-3.7349,-3.9287,-4.1446,-4.4129,-4.6045,-4.7314,-4.7637,-4.8461,-4.8505,-4.7219,-4.6971,-4.6567,-4.5778,-4.54,0.0,-4.4411,-4.4374,-4.425,-4.4005,-4.4005,-4.4005,-4.4005,-4.4005,-4.4005,-4.4005,-4.3929,-4.3865,-4.3846,-4.2926,-4.2474,-4.2327,0.0,0.0,0.0,-3.8962,-3.8588,-3.8588,-3.8524,-3.8955,-3.9581,-3.9547,-3.9478,-3.9372,-3.8883,-3.8178,-3.7474,-3.7778,-3.7508,-3.7121,-3.7121,-3.6262,-3.5288,-3.5221,-3.5044,-3.4899,-3.4899,-3.4899,-3.4899,-3.4899,-3.4899,-3.4899,-3.4899,-3.4899,-3.4899,-3.4899,-3.4994,-3.5041,-3.4899,-3.5088,-3.5245,-3.5105,-3.5198,-3.5337,-3.5446,-3.5492,-3.552,-3.5577,-3.5577,-3.5622,-3.5622,-3.5622,-3.5622,-3.5622,-3.5532,-3.5224,-3.4738,-3.4169,-3.3614,-3.3145,-3.2765,-3.2578,-3.2594,-3.2935,-3.3005,-3.2897,-3.3005,-3.3005,-2.3195,-2.3564,-2.4184,-2.3927,-2.4754,-2.6021,-2.7725,-2.8378,-2.9186,-3.0971,-3.1533,-3.188,-3.2488,-3.3314,-3.4611,-3.6657,-3.7671,-3.9328,-4.2519,-4.4272,-4.5616,-4.6691,-4.7412,-4.7585,-4.7,-4.648,-4.602,-4.5695,-4.5568,0.0,-4.4966,-4.4599,-4.4346,-4.425,-4.406,-4.4005,-4.4005,-4.4005,-4.4005,-4.3986,-4.3491,-4.3237,-4.3156,-4.226,-4.1551,-4.0972,0.0,0.0,0.0,-3.8799,-3.8559,-3.8564,-3.9008,-3.9053,-3.8882,-3.9325,-3.9182,-3.8731,-3.8489,-3.815,-3.7846,-3.8007,-3.7707,-3.7248,-3.7058,-3.6605,-3.598,-3.5298,-3.4994,-3.4899,-3.4899,-3.4899,-3.4899,-3.4899,-3.4899,-3.4899,-3.4899,-3.4899,-3.4947,-3.4994,-3.5041,-3.5105,-3.5152,-3.5245,-3.5291,-3.5354,-3.54,-3.5429,-3.5566,-3.5549,-3.5594,-3.5577,-3.5622,-3.5622,-3.5622,-3.5622,-3.5622,-3.5622,-3.5316,-3.5068,-3.4927,-3.4415,-3.4053,-3.3937,-3.3751,-3.3563,-3.3335,-3.3455,-3.3382,-3.315,-3.3203,-3.3203,-2.4553,-2.4681,-2.5043,-2.5242,-2.6051,-2.7336,-2.9102,-2.9658,-3.0222,-3.1763,-3.2115,-3.2264,-3.2687,-3.3321,-3.4328,-3.589,-3.6756,-3.8265,-4.1222,-4.316,-4.4722,-4.5903,-4.6627,-4.6931,-4.668,-4.6082,-4.57,-4.5706,0.0,0.0,-4.5438,-4.4718,-4.436,-4.4438,-4.4199,-4.4036,-4.4005,-4.3794,-4.3664,-4.3633,-4.2835,-4.2414,-4.2353,-4.1489,-4.0755,-4.0104,0.0,0.0,0.0,-3.875,-3.867,-3.8614,-3.9182,-3.899,-3.8488,-3.9024,-3.8813,-3.8307,-3.8259,-3.8225,-3.8192,-3.8192,-3.7985,-3.763,-3.7271,-3.6895,-3.6412,-3.5605,-3.5165,-3.4947,-3.4994,-3.4947,-3.4899,-3.4994,-3.4994,-3.4994,-3.4994,-3.4994,-3.5041,-3.5152,-3.5198,-3.5245,-3.5291,-3.5337,-3.5429,-3.5492,-3.5537,-3.5566,-3.5577,-3.5622,-3.5622,-3.5622,-3.5622,-3.5622,-3.5622,-3.5622,-3.5622,-3.5622,-3.527,-3.5131,-3.5224,-3.4752,-3.4528,-3.4624,-3.4528,-3.4333,-3.402,-3.4086,-3.3986,-3.3729,-3.3591,-3.345,-2.5148,-2.5007,-2.5157,-2.5755,-2.668,-2.77,-2.8493,-2.9832,-3.1007,-3.1524,-3.2196,-3.2766,-3.3037,-3.3634,-3.4333,-3.5095,-3.6951,-3.8882,-4.0572,-4.3339,-4.5184,-4.5201,-4.6334,-4.6746,-4.5896,-4.575,-4.57,-4.57,0.0,0.0,-4.57,-4.4685,-4.4219,-4.4482,-4.4306,-4.4135,-4.4005,-4.3278,-4.2888,-4.2797,-4.1999,-4.1609,-4.1571,-4.0648,-4.023,0.0,0.0,0.0,0.0,-3.8792,-3.878,-3.8707,-3.8726,-3.8609,-3.851,-3.851,-3.8401,-3.8307,-3.8307,-3.8241,-3.8192,-3.8192,-3.8192,-3.8106,-3.765,-3.686,-3.6097,-3.6097,-3.5605,-3.5152,-3.5245,-3.5088,-3.4947,-3.5245,-3.5198,-3.5135,-3.5245,-3.5308,-3.5308,-3.5291,-3.54,-3.5446,-3.5291,-3.5458,-3.5577,-3.5492,-3.5549,-3.5622,-3.5622,-3.5622,-3.5622,-3.5622,-3.5622,-3.5622,-3.5622,-3.5622,-3.5622,-3.5622,-3.5728,-3.5773,-3.5773,-3.5391,-3.5174,-3.5174,-3.4783,-3.4592,-3.4576,-3.4704,-3.4785,-3.4769,-3.4333,-3.3797,-2.685,-2.7056,-2.7509,-2.7756,-2.922,-3.0719,-3.1241,-3.1989,-3.2588,-3.278,-3.2772,-3.2798,-3.3099,-3.3689,-3.4729,-3.6655,-3.7723,-3.9089,-4.1323,-4.3187,-4.4304,-4.4304,-4.5445,-4.6095,-4.5824,0.0,-4.5776,0.0,0.0,0.0,-4.4916,-4.4395,-4.4075,-4.4018,-4.3196,-4.2687,-4.2499,-4.2248,-4.2108,-4.2021,-4.1288,-4.0887,-4.0736,-3.9909,0.0,0.0,0.0,0.0,0.0,-3.8851,-3.8792,-3.8762,-3.8738,-3.8658,-3.8609,-3.8541,-3.8478,-3.8433,-3.8401,-3.8322,-3.8274,-3.8274,-3.8259,-3.8174,-3.802,-3.7469,-3.6768,-3.6147,-3.5588,-3.5245,-3.5291,-3.5245,-3.5198,-3.5291,-3.5245,-3.5245,-3.5291,-3.5291,-3.5354,-3.5446,-3.5492,-3.5492,-3.5503,-3.5577,-3.5577,-3.5594,-3.5577,-3.5622,-3.5622,-3.5622,-3.5622,-3.5622,-3.5622,-3.5622,-3.5622,-3.5667,-3.5728,-3.5728,-3.5844,-3.5993,-3.6079,-3.5932,-3.5915,-3.5968,-3.582,-3.5599,-3.5266,-3.5328,-3.5161,-3.4785,-3.4642,-3.4496,-2.8248,-2.8529,-2.8951,-2.9211,-3.0434,-3.1716,-3.2073,-3.2639,-3.3105,-3.3143,-3.3054,-3.3019,-3.3339,-3.385,-3.4699,-3.6222,-3.728,-3.8653,-4.0829,-4.2397,-4.3632,-4.4403,-4.5263,-4.58,0.0,-4.58,-4.5684,0.0,0.0,0.0,0.0,-4.357,-4.3229,-4.3005,-4.2435,-4.2071,-4.19,-4.1565,-4.1353,-4.1269,-4.0504,-4.0085,-3.9909,-3.9425,0.0,0.0,0.0,0.0,0.0,-3.891,-3.8851,-3.8792,-3.8732,-3.8719,-3.8707,-3.8609,-3.8541,-3.8491,-3.8446,-3.8401,-3.8354,-3.8354,-3.8289,-3.8241,-3.8225,-3.7792,-3.721,-3.6274,-3.581,-3.5577,-3.5458,-3.5337,-3.5337,-3.5383,-3.5383,-3.5383,-3.5429,-3.5412,-3.5429,-3.552,-3.552,-3.5566,-3.5577,-3.5622,-3.5622,-3.5622,-3.5622,-3.5622,-3.5622,-3.5622,-3.5684,-3.5684,-3.5711,-3.5756,-3.5756,-3.5756,-3.5817,-3.5861,-3.5993,-3.6122,-3.6182,-3.6208,-3.6276,-3.6301,-3.6301,-3.6174,-3.5854,-3.5854,-3.5616,-3.5098,-3.5098,-3.5005,0.0,-2.9453,-2.9592,-3.0108,-3.0668,-3.1161,-3.1473,-3.2207,0.0,-3.2808,-3.3093,-3.3397,-3.3744,-3.4136,-3.4456,-3.4633,-3.6197,-3.7996,-3.9708,-4.1495,-4.3338,-4.5244,-4.5673,-4.58,-4.58,-4.5742,0.0,0.0,0.0,0.0,0.0,-4.2434,-4.1898,-4.1636,-4.1928,-4.2054,-4.1933,-4.1067,-4.06,-4.0493,-3.9773,-3.9328,-3.921,-3.921,0.0,0.0,0.0,0.0,0.0,-3.9007,-3.8921,-3.8822,-3.8822,-3.878,-3.8707,-3.8707,-3.8609,-3.851,-3.851,-3.8478,-3.8415,-3.8382,-3.8336,-3.8307,-3.8241,-3.788,-3.7358,-3.6597,-3.6284,-3.6054,-3.5739,-3.5503,-3.5383,-3.5532,-3.5549,-3.552,-3.5577,-3.5622,-3.5622,-3.5622,-3.5622,-3.5622,-3.5622,-3.5622,-3.5622,-3.5622,-3.5622,-3.5622,-3.5622,-3.5728,-3.5817,-3.5817,-3.5949,-3.6019,-3.6019,-3.5905,-3.5905,-3.6019,-3.6122,-3.6225,-3.6225,-3.6276,-3.6301,-3.6301,-3.6301,-3.6301,-3.6301,-3.6301,-3.6071,-3.5661,-3.5661,-3.5391,-2.961,0.0,-3.009,-3.0723,-3.1851,-3.2665,0.0,-3.2914,-3.3592,-3.3255,-3.3262,-3.3608,-3.4531,-3.4525,-3.5208,-3.771,-3.8771,-4.0031,-4.2221,-4.37,-4.4762,-4.5343,-4.5645,-4.5786,-4.5727,-4.5211,0.0,0.0,0.0,0.0,0.0,-4.2106,-4.1706,-4.1042,-4.0954,-4.0731,-4.0416,-4.0182,-3.9986,-3.975,-3.9639,-3.9476,-3.9346,-3.9346,0.0,0.0,0.0,0.0,-3.9073,-3.9007,-3.895,-3.8881,-3.8822,-3.878,-3.8707,-3.8707,-3.8658,-3.8658,-3.8658,-3.8578,-3.8478,-3.8415,-3.8382,-3.8368,-3.8368,-3.8018,-3.7577,-3.7283,-3.6803,-3.6308,-3.6156,-3.5827,-3.5532,-3.5577,-3.5577,-3.5594,-3.5577,-3.5622,-3.5622,-3.5622,-3.5622,-3.5622,-3.5622,-3.5622,-3.5622,-3.5622,-3.5684,-3.5773,-3.5773,-3.5844,-3.5932,-3.5932,-3.5975,-3.6019,-3.6122,-3.6122,-3.614,-3.6165,-3.6233,-3.6276,-3.6276,-3.6301,-3.6301,-3.6301,-3.6301,-3.6301,-3.6301,-3.6301,-3.6259,-3.6114,-3.6114,-3.6071,-2.9783,-3.0542,-3.1227,-3.2078,-3.2875,-3.3424,-3.3616,-3.3669,-3.3602,-3.3352,-3.3408,-3.3752,-3.4492,-3.4865,-3.5796,-3.8051,-3.9315,-4.0824,-4.3188,-4.4513,-4.5263,-4.5381,-4.5629,-4.5791,0.0,0.0,0.0,0.0,0.0,0.0,0.0,-4.1448,-4.1255,-4.081,-4.0687,-4.0489,-4.0177,-4.008,-3.9935,-3.9661,-3.9727,-3.9631,-3.9444,-3.9444,0.0,0.0,0.0,0.0,-3.9101,-3.9045,-3.9007,-3.8921,-3.891,-3.8822,-3.875,-3.875,-3.8719,-3.8707,-3.8707,-3.8658,-3.8578,-3.8478,-3.8446,-3.8446,-3.8415,-3.8234,-3.8,-3.7721,-3.7173,-3.6643,-3.6474,-3.6088,-3.5667,-3.5667,-3.5756,-3.5756,-3.5622,-3.5711,-3.5756,-3.5711,-3.5756,-3.58,-3.58,-3.58,-3.58,-3.58,-3.5861,-3.5905,-3.5905,-3.5993,-3.6079,-3.6079,-3.6105,-3.6191,-3.6233,-3.6251,-3.6251,-3.6251,-3.6259,-3.6301,-3.6301,-3.6301,-3.6301,-3.6301,-3.6301,-3.6301,-3.6301,-3.6301,-3.6301,-3.6301,-3.6301,-3.6301,-2.9965,-3.1291,-3.2441,-3.3334,-3.3564,-3.381,-3.4684,-3.4109,-3.3379,-3.3379,-3.3606,-3.3942,-3.4482,-3.5366,-3.6421,-3.775,-3.9485,-4.1426,-4.362,-4.4652,-4.5243,-4.5343,-4.5599,0.0,0.0,0.0,0.0,0.0,0.0,0.0,0.0,-4.079,-4.079,-4.079,-4.079,-4.072,-4.0554,-4.0339,-4.0158,-3.9956,-3.9956,-3.9826,-3.9602,-3.9552,-3.9458,0.0,0.0,0.0,-3.9101,-3.9101,-3.9045,-3.8979,-3.8979,-3.8921,-3.8822,-3.8822,-3.8762,-3.8738,-3.8738,-3.8707,-3.8658,-3.8559,-3.8541,-3.851,-3.8465,-3.8496,-3.8446,-3.805,-3.7542,-3.7058,-3.6764,-3.6308,-3.5888,-3.5861,-3.5905,-3.5932,-3.5711,-3.5844,-3.5975,-3.5861,-3.5932,-3.6019,-3.6019,-3.6019,-3.6019,-3.6019,-3.6019,-3.6019,-3.6019,-3.6122,-3.6208,-3.6208,-3.6276,-3.6301,-3.6301,-3.6301,-3.6301,-3.6301,-3.6301,-3.6301,-3.6301,-3.6301,-3.6301,-3.6301,-3.6301,-3.6301,-3.6301,-3.6301,-3.6301,-3.6301,-3.6301,-3.6301,-3.0377,-3.1817,-3.2862,-3.2923,-3.3633,-3.4212,-3.3701,-3.3676,-3.3734,-3.3734,-3.3762,-3.4336,-3.601,-3.6582,-3.7649,-4.0116,-4.205,-4.3618,-4.4718,-4.5058,-4.5199,-4.5154,0.0,0.0,0.0,0.0,0.0,0.0,0.0,0.0,0.0,-4.079,-4.079,-4.079,-4.079,-4.079,-4.0746,-4.0554,-4.0356,-4.0158,-4.0158,-4.0139,-4.0061,-3.987,-3.9693,0.0,0.0,0.0,-3.9101,-3.9101,-3.9045,-3.8979,-3.8979,-3.895,-3.8881,-3.8822,-3.8822,-3.8851,-3.8792,-3.875,-3.8707,-3.8676,-3.8658,-3.8658,-3.8658,-3.8658,-3.8658,-3.8596,-3.8183,-3.7649,-3.721,-3.6803,-3.6392,-3.6062,-3.5975,-3.5975,-3.5932,-3.5975,-3.5975,-3.5975,-3.5975,-3.6019,-3.6019,-3.6019,-3.6019,-3.6019,-3.6079,-3.6182,-3.6182,-3.6233,-3.6259,-3.6259,-3.6301,-3.6301,-3.6301,-3.6301,-3.6301,-3.6301,-3.6301,-3.6301,-3.6301,-3.6301,-3.6301,-3.6301,-3.6301,-3.6301,-3.6301,-3.6301,-3.6301,-3.6301,-3.6301,-3.6301,-3.0145,-3.1556,-3.2788,-3.3281,-3.4631,-3.5882,-3.6158,-3.5637,-3.5147,-3.5147,-3.5147,-3.5487,-3.6634,-3.7671,-3.9316,-4.2208,-4.3759,-4.4756,-4.5156,-4.5237,-4.5279,0.0,0.0,0.0,0.0,0.0,0.0,0.0,0.0,0.0,0.0,0.0,-4.0812,-4.0812,-4.0812,-4.0812,-4.0812,-4.0707,-4.0564,-4.0356,-4.0356,-4.0304,-4.0196,-4.008,-3.9897,-3.9702,0.0,-3.9376,-3.9156,-3.9156,-3.9101,-3.9045,-3.9045,-3.9007,-3.8968,-3.8881,-3.8862,-3.891,-3.8862,-3.8822,-3.875,-3.881,-3.875,-3.8707,-3.875,-3.8719,-3.8707,-3.8707,-3.83,-3.7877,-3.7703,-3.7173,-3.6603,-3.6416,-3.6284,-3.6148,-3.6019,-3.6105,-3.6148,-3.6122,-3.6148,-3.6174,-3.6174,-3.6174,-3.6174,-3.6174,-3.6233,-3.6233,-3.6233,-3.6259,-3.6301,-3.6301,-3.6301,-3.6301,-3.6301,-3.6301,-3.6301,-3.6301,-3.6301,-3.6301,-3.6301,-3.6301,-3.6301,-3.6301,-3.6301,-3.6301,-3.6301,-3.6301,-3.6301,-3.6301,-3.6301,-3.6301,-3.0467,-3.1616,-3.279,-3.3923,-3.5363,-3.6856,-3.8114,-3.7342,-3.6442,-3.678,-3.6707,-3.6768,-3.738,-3.8968,-4.1014,-4.3573,-4.4723,-4.5297,-4.5297,-4.5125,-4.5013,-4.5151,0.0,0.0,0.0,0.0,0.0,0.0,0.0,0.0,0.0,0.0,-4.0807,-4.0807,-4.0807,-4.0807,-4.0807,-4.0792,-4.072,-4.0564,-4.0569,-4.0489,-4.0339,-4.0286,-4.0158,-3.9937,-3.9895,-3.9651,-3.9279,-3.9298,-3.9219,-3.9129,-3.9101,-3.9045,-3.8997,-3.895,-3.8921,-3.8892,-3.8939,-3.8881,-3.8851,-3.8862,-3.8822,-3.875,-3.8792,-3.878,-3.8719,-3.8707,-3.8415,-3.8099,-3.7982,-3.7451,-3.6825,-3.6643,-3.6433,-3.6259,-3.6088,-3.6174,-3.6259,-3.6251,-3.6276,-3.6301,-3.6301,-3.6301,-3.6301,-3.6301,-3.6301,-3.6301,-3.6301,-3.6301,-3.6301,-3.6301,-3.6301,-3.6301,-3.6301,-3.6301,-3.6301,-3.6301,-3.6301,-3.6301,-3.6301,-3.6301,-3.6301,-3.6301,-3.6301,-3.6301,-3.6301,-3.6301,-3.6301,-3.6301,-3.6301,-3.6301,-3.2297,-3.2791,-3.321,-3.4729,-3.5256,-3.58,-3.725,-3.6967,-3.6793,-3.8212,-3.7918,-3.7724,-3.8758,-4.0716,-4.2576,-4.3804,-4.4723,-4.5297,-4.5297,0.0,-4.4112,0.0,0.0,0.0,0.0,0.0,0.0,0.0,0.0,0.0,0.0,0.0,0.0,-4.0807,-4.0807,-4.0807,-4.0807,-4.0792,-4.0788,-4.0776,-4.0771,-4.0778,-4.0746,-4.0569,-4.0422,-4.0356,-4.0158,-3.988,-3.9552,-3.9505,-3.9364,-3.9183,-3.9129,-3.9045,-3.9007,-3.9045,-3.9007,-3.891,-3.895,-3.895,-3.8892,-3.891,-3.8892,-3.8862,-3.8822,-3.8851,-3.8851,-3.8738,-3.8719,-3.8541,-3.7756,-3.7505,-3.7266,-3.6533,-3.6284,-3.6301,-3.6301,-3.6301,-3.6301,-3.6301,-3.6301,-3.6301,-3.6301,-3.6301,-3.6301,-3.6301,-3.6301,-3.6301,-3.6301,-3.6301,-3.6301,-3.6301,-3.6301,-3.6301,-3.6301,-3.6301,-3.6301,-3.6301,-3.6301,-3.6301,-3.6301,-3.6301,-3.6301,-3.6301,-3.6301,-3.6301,-3.6301,-3.6301,-3.6301,-3.6301,-3.6301,-3.6301,-3.1292,-3.2177,-3.3167,-3.4252,-3.5325,-3.6473,-3.7952,-3.8486,-3.8927,-3.9974,-3.9955,-3.9946,-4.0709,-4.1827,-4.2768,-4.3194,-4.3959,-4.4322,-4.3825,-4.3463,0.0,0.0,0.0,0.0,0.0,0.0,0.0,0.0,0.0,0.0,0.0,0.0,0.0,-4.0859,-4.0859,-4.0868,-4.0848,-4.0826,-4.0804,-4.08,-4.0803,-4.079,-4.079,-4.072,-4.0598,-4.0457,-4.0372,-4.0157,-3.984,-3.9645,-3.9494,-3.9376,-3.9183,-3.9073,-3.9064,-3.9101,-3.9073,-3.9017,-3.9045,-3.9007,-3.895,-3.9007,-3.8979,-3.8892,-3.8939,-3.8892,-3.8881,-3.8851,-3.8851,-3.8773,-3.835,-3.7879,-3.7432,-3.7132,-3.6678,-3.6301,-3.6301,-3.6301,-3.6301,-3.6301,-3.6301,-3.6301,-3.6301,-3.6301,-3.6301,-3.6301,-3.6301,-3.6301,-3.6301,-3.6301,-3.6301,-3.6301,-3.6343,-3.6444,-3.6444,-3.6502,-3.6544,-3.6544,-3.6402,-3.6343,-3.6402,-3.6444,-3.6444,-3.6544,-3.6544,-3.6544,-3.6544,-3.6544,-3.6544,-3.6544,-3.6544,-3.6544,-3.1269,-3.2265,-3.3457,-3.4252,-3.5713,-3.735,-3.8829,-3.962,-4.032,-4.1277,-4.1295,-4.1193,-4.148,-4.1865,-4.2172,-4.2354,-4.308,-4.3443,-4.2889,0.0,0.0,0.0,0.0,0.0,0.0,0.0,0.0,0.0,0.0,0.0,0.0,0.0,0.0,0.0,-4.0898,-4.0908,-4.0907,-4.0826,-4.0804,-4.08,-4.0803,-4.079,-4.079,-4.079,-4.072,-4.0583,-4.0583,-4.0422,-4.0139,-3.9944,-3.9709,-3.9483,-3.9219,-3.9129,-3.9101,-3.9101,-3.9101,-3.9101,-3.9101,-3.9073,-3.9036,-3.9073,-3.9045,-3.8979,-3.8979,-3.8979,-3.895,-3.8892,-3.8939,-3.891,-3.881,-3.8183,-3.7542,-3.7358,-3.6838,-3.6343,-3.6301,-3.6301,-3.6301,-3.6301,-3.6301,-3.6301,-3.6301,-3.6301,-3.6301,-3.6301,-3.6301,-3.6301,-3.6301,-3.6343,-3.6402,-3.6402,-3.6444,-3.6502,-3.6544,-3.6643,-3.6702,-3.6702,-3.6544,-3.6461,-3.6544,-3.6544,-3.6602,-3.6702,-3.6702,-3.6702,-3.6702,-3.6702,-3.6702,-3.6702,-3.6702,-3.6702,-3.2798,-3.3363,-3.4194,-3.5006,-3.6464,-3.8124,-3.9639,-4.0056,-4.0548,-4.2007,-4.1662,-4.1027,-4.0761,-4.0703,-4.0882,-4.1398,-4.2221,-4.2775,0.0,0.0,0.0,0.0,0.0,0.0,0.0,0.0,0.0,0.0,0.0,0.0,0.0,0.0,0.0,0.0,-4.0898,-4.0907,-4.0897,-4.0823,-4.08,-4.08,-4.0803,-4.079,-4.079,-4.079,-4.079,-4.079,-4.079,-4.0693,-4.0489,-4.0422,-4.0043,-3.9481,-3.9279,-3.9156,-3.9101,-3.9101,-3.9101,-3.9101,-3.9101,-3.9101,-3.9101,-3.9101,-3.9101,-3.9073,-3.9007,-3.9064,-3.9073,-3.895,-3.895,-3.8997,-3.8939,-3.8346,-3.7632,-3.7038,-3.6696,-3.6461,-3.6343,-3.6301,-3.6301,-3.6301,-3.6301,-3.6301,-3.6301,-3.6301,-3.6301,-3.6301,-3.6301,-3.6301,-3.6301,-3.6402,-3.6544,-3.6702,-3.6602,-3.6544,-3.6702,-3.6702,-3.6702,-3.6702,-3.6702,-3.6702,-3.6702,-3.6702,-3.6702,-3.6702,-3.6702,-3.6702,-3.6702,-3.6702,-3.6702,-3.6702,-3.6702,-3.6702,-3.1942,-3.2914,-3.416,-3.5061,-3.7302,-3.9448,-3.9915,-4.0891,-4.2078,-4.3241,-4.25,-4.1698,-4.1806,-4.1506,-4.1127,-4.0731,-4.1342,-4.1686,0.0,0.0,0.0,0.0,0.0,0.0,0.0,0.0,0.0,0.0,0.0,0.0,0.0,0.0,0.0,0.0,-4.0828,-4.0826,-4.0823,-4.08,-4.0808,-4.0803,-4.0803,-4.079,-4.079,-4.079,-4.079,-4.079,-4.079,-4.0733,-4.0626,-4.0419,-4.01,-3.9762,-3.9505,-3.9396,-3.9371,-3.9165,-3.9101,-3.9101,-3.9101,-3.9101,-3.9101,-3.9101,-3.9101,-3.9101,-3.9073,-3.9073,-3.9101,-3.9045,-3.9045,-3.9045,-3.8979,-3.8491,-3.7948,-3.7596,-3.7091,-3.6643,-3.6602,-3.6502,-3.6461,-3.6544,-3.6502,-3.6444,-3.6444,-3.6444,-3.6402,-3.6301,-3.6301,-3.6343,-3.6444,-3.6544,-3.6661,-3.6702,-3.6725,-3.6748,-3.6748,-3.6869,-3.6908,-3.6908,-3.6908,-3.6869,-3.6788,-3.6748,-3.6829,-3.6908,-3.6908,-3.6908,-3.6908,-3.6908,-3.6908,-3.6908,-3.6908,-3.6908,-3.2863,-3.4126,-3.5607,-3.6822,-3.8559,-4.0129,-4.0772,-4.1415,-4.2179,-4.3274,-4.2302,-4.1376,-4.1751,-4.129,-4.0729,-4.0368,-4.0711,-4.0845,0.0,0.0,0.0,0.0,0.0,0.0,0.0,0.0,0.0,0.0,0.0,0.0,0.0,0.0,0.0,0.0,-3.9962,-3.9807,-3.9813,-4.0111,-4.0118,-3.9785,-4.0462,-4.0616,-4.0288,-4.0636,-4.079,-4.079,-4.079,-4.0778,-4.0733,-4.0485,-4.0264,-4.0063,-3.9731,-3.959,-3.9505,-3.9298,-3.9202,-3.9202,-3.9156,-3.9129,-3.9129,-3.9101,-3.9101,-3.9101,-3.9101,-3.9101,-3.9101,-3.9101,-3.9101,-3.9101,-3.9064,-3.8585,-3.8068,-3.7861,-3.7281,-3.6725,-3.6702,-3.6661,-3.6602,-3.6684,-3.6643,-3.6602,-3.6602,-3.6602,-3.6544,-3.6444,-3.6444,-3.6502,-3.6626,-3.6684,-3.6742,-3.6806,-3.6788,-3.6829,-3.6851,-3.693,-3.6987,-3.6987,-3.6987,-3.697,-3.6891,-3.6869,-3.6908,-3.6987,-3.6987,-3.6987,-3.6987,-3.6987,-3.6987,-3.6987,-3.6987,-3.6987,-3.455,-3.6064,-3.7771,-3.9386,-3.99,-4.0377,-4.1864,-4.157,-4.1319,-4.2372,-4.1386,-4.0485,-4.1009,-4.046,-4.0017,-4.0253,-4.031,0.0,0.0,0.0,0.0,0.0,0.0,0.0,0.0,0.0,0.0,0.0,0.0,0.0,0.0,0.0,0.0,0.0,-3.8631,0.0,-3.8283,-3.9015,-3.8972,0.0,-3.9804,-4.0152,-3.9398,-4.0365,-4.079,-4.079,-4.079,-4.079,-4.079,-4.0598,-4.0489,-4.0406,-4.002,-3.9769,-3.9641,-3.9471,-3.9399,-3.9373,-3.9256,-3.921,-3.9229,-3.9129,-3.9101,-3.9101,-3.9101,-3.9101,-3.9101,-3.9101,-3.9101,-3.9101,-3.9101,-3.8628,-3.8083,-3.7861,-3.7301,-3.6788,-3.6725,-3.6702,-3.6702,-3.6725,-3.6702,-3.6702,-3.6702,-3.6702,-3.6702,-3.6702,-3.6702,-3.6725,-3.6788,-3.6766,-3.6806,-3.6987,-3.6908,-3.6869,-3.6987,-3.6987,-3.6987,-3.6987,-3.6987,-3.6987,-3.6987,-3.6987,-3.6987,-3.6987,-3.6987,-3.6987,-3.6987,-3.6987,-3.6987,-3.6987,-3.6987,-3.6987,-3.2908,-3.4798,-3.6927,-3.856,-3.9918,-4.0946,-4.1295,-4.0744,-4.0454,-4.1531,-4.1148,-4.0722,-4.106,-4.061,-4.0234,-4.0291,0.0,0.0,0.0,0.0,0.0,0.0,0.0,0.0,0.0,0.0,0.0,0.0,0.0,0.0,0.0,0.0,0.0,-3.8218,0.0,-3.821,-3.823,-3.8392,-3.8392,0.0,-3.8586,-3.8663,-3.8528,-4.0094,-4.079,-4.079,-4.079,-4.079,-4.079,-4.0746,-4.0733,-4.0673,-4.0389,-4.0177,-3.9962,-3.966,-3.9502,-3.9373,-3.9256,-3.9256,-3.9346,-3.9229,-3.9183,-3.9183,-3.9183,-3.9156,-3.9101,-3.9101,-3.9101,-3.9101,-3.9101,-3.8807,-3.841,-3.8117,-3.7468,-3.6948,-3.6948,-3.6869,-3.6829,-3.6908,-3.6869,-3.6788,-3.6788,-3.6788,-3.6748,-3.6702,-3.6725,-3.6788,-3.6788,-3.6869,-3.6948,-3.6987,-3.697,-3.6987,-3.6987,-3.6987,-3.6987,-3.6987,-3.6987,-3.6987,-3.6987,-3.6987,-3.6987,-3.6987,-3.6987,-3.6987,-3.6987,-3.6987,-3.6987,-3.6987,-3.6987,-3.6987,-3.2852,-3.4706,-3.678,-3.8781,-4.0487,-4.1479,-4.0708,-4.0194,-3.9945,-4.0129,-4.0151,-4.0239,-4.0644,-4.0482,-4.031,0.0,0.0,0.0,0.0,0.0,0.0,0.0,0.0,0.0,0.0,0.0,0.0,0.0,0.0,0.0,0.0,-3.7326,-3.721,0.0,-3.6993,-3.6914,-3.7,-3.7386,-3.7386,-3.7019,-3.7831,-3.8431,-3.8856,-3.9746,-4.0404,-4.079,-4.079,-4.079,-4.079,-4.079,-4.079,-4.0778,-4.0534,-4.0319,-4.012,-3.9857,-3.9623,-3.9476,-3.938,-3.9399,-3.9444,-3.9328,-3.9256,-3.921,-3.9275,-3.9229,-3.9156,-3.9156,-3.9156,-3.9129,-3.9101,-3.8836,-3.8535,-3.8201,-3.7667,-3.7223,-3.7048,-3.6948,-3.6908,-3.6987,-3.693,-3.6908,-3.6908,-3.6908,-3.6869,-3.6846,-3.6869,-3.6908,-3.6908,-3.6948,-3.6987,-3.6987,-3.6987,-3.6987,-3.6987,-3.6987,-3.6987,-3.6987,-3.6987,-3.6987,-3.6987,-3.6987,-3.6987,-3.6987,-3.6987,-3.6987,-3.6987,-3.6987,-3.6987,-3.6987,-3.6987,-3.6987,-3.2981,-3.4908,-3.7037,-3.9313,-4.0891,-4.1497,-4.0029,-3.968,-3.9528,-3.8969,-3.9192,-3.9647,-4.0077,-4.0101,-4.0062,0.0,0.0,0.0,0.0,0.0,0.0,0.0,0.0,0.0,0.0,0.0,0.0,0.0,0.0,0.0,-3.6955,-3.6387,-3.6129,-3.6243,-3.5705,-3.5495,-3.5704,-3.6361,-3.6361,-3.5723,-3.7116,-3.8295,-3.9282,-3.9282,-3.9823,-4.079,-4.079,-4.079,-4.079,-4.079,-4.079,-4.0778,-4.0631,-4.0425,-4.0177,-4.002,-3.98,-3.9596,-3.952,-3.9495,-3.9495,-3.9444,-3.9328,-3.9283,-3.9373,-3.9328,-3.921,-3.921,-3.921,-3.9183,-3.9129,-3.8894,-3.8597,-3.8183,-3.7844,-3.7487,-3.7087,-3.6987,-3.6987,-3.6987,-3.6987,-3.6987,-3.6987,-3.6987,-3.6987,-3.6987,-3.6987,-3.6987,-3.6987,-3.6987,-3.6987,-3.6987,-3.6987,-3.6987,-3.6987,-3.6987,-3.6987,-3.6987,-3.6987,-3.6987,-3.6987,-3.6987,-3.6987,-3.6987,-3.6987,-3.6987,-3.6987,-3.6987,-3.6987,-3.6987,-3.6987,-3.6987,-3.1458,-3.4449,-3.7734,-3.946,-4.0047,-3.9974,-3.9074,-3.8854,-3.8951,-3.9317,-3.9433,-3.9526,-3.9599,-3.9368,0.0,0.0,0.0,0.0,0.0,0.0,0.0,0.0,0.0,0.0,0.0,0.0,0.0,0.0,0.0,0.0,-3.515,-3.5154,-3.5202,-3.5267,-3.536,-3.5509,-3.5704,-3.58,-3.58,-3.5704,-3.5936,-3.6864,-3.8373,-3.8373,-3.9262,-4.079,-4.079,-4.079,-4.079,-4.079,-4.079,-4.079,-4.0778,-4.0519,-4.0196,-4.0177,-3.9935,-3.9596,-3.952,-3.9546,-3.9571,-3.9495,-3.9469,-3.9469,-3.9469,-3.9444,-3.9373,-3.9373,-3.9301,-3.9183,-3.9183,-3.9129,-3.8884,-3.8267,-3.8068,-3.7809,-3.7164,-3.6987,-3.6987,-3.6987,-3.6987,-3.6987,-3.6987,-3.6987,-3.6987,-3.6987,-3.6987,-3.6987,-3.6987,-3.6987,-3.6987,-3.6987,-3.6987,-3.6987,-3.6987,-3.6987,-3.6987,-3.6987,-3.6987,-3.6987,-3.6987,-3.6987,-3.6987,-3.6987,-3.6987,-3.6987,-3.6987,-3.6987,-3.6987,-3.6987,-3.6987,-3.6987,-3.2155,-3.4724,-3.7202,-3.8836,-3.957,-3.968,-3.8891,-3.8707,-3.881,-3.9192,-3.9401,-3.9449,-3.9267,0.0,0.0,0.0,0.0,0.0,0.0,0.0,0.0,0.0,0.0,0.0,0.0,0.0,0.0,0.0,0.0,-3.479,-3.4687,-3.4732,-3.4889,-3.5098,-3.5178,-3.5378,-3.5704,-3.5704,-3.5704,-3.5704,-3.5704,-3.6323,-3.7464,-3.7464,-3.8682,-4.079,-4.079,-4.079,-4.079,-4.079,-4.079,-4.079,-4.079,-4.0612,-4.0356,-4.0251,-4.002,-3.9731,-3.9602,-3.9571,-3.9596,-3.9571,-3.952,-3.9495,-3.9546,-3.952,-3.9444,-3.9444,-3.9399,-3.9354,-3.921,-3.9183,-3.897,-3.8249,-3.8101,-3.7897,-3.7164,-3.6987,-3.6987,-3.6987,-3.6987,-3.6987,-3.6987,-3.6987,-3.6987,-3.6987,-3.6987,-3.6987,-3.6987,-3.6987,-3.6987,-3.6987,-3.6987,-3.6987,-3.6987,-3.6987,-3.6987,-3.6987,-3.6987,-3.6987,-3.6987,-3.6987,-3.6987,-3.6987,-3.6987,-3.6987,-3.6987,-3.6987,-3.6987,-3.6987,-3.6987,-3.6987,-3.243,-3.41,-3.5495,-3.7312,-3.8377,-3.8872,-3.8487,-3.8603,-3.8881,-3.9156,-3.9258,-3.9154,-3.8728,0.0,0.0,0.0,0.0,0.0,0.0,0.0,0.0,0.0,0.0,0.0,0.0,0.0,0.0,0.0,0.0,-3.4623,-3.4517,-3.4561,-3.4752,-3.5049,-3.5081,-3.5273,-3.562,-3.5673,-3.5704,-3.5704,-3.5695,-3.6121,-3.6903,-3.6933,-3.8114,-4.0152,-4.0365,-4.0462,-4.0481,-4.0713,-4.079,-4.079,-4.079,-4.0673,-4.0473,-4.0269,-4.008,-3.987,-3.9656,-3.9602,-3.9602,-3.9602,-3.9571,-3.9546,-3.9577,-3.9571,-3.952,-3.952,-3.952,-3.9469,-3.9283,-3.9229,-3.9027,-3.8378,-3.8168,-3.7897,-3.7164,-3.6987,-3.6987,-3.6987,-3.6987,-3.6987,-3.6987,-3.6987,-3.6987,-3.6987,-3.6987,-3.6987,-3.6987,-3.6987,-3.6987,-3.6987,-3.6987,-3.6987,-3.6987,-3.6987,-3.6987,-3.6987,-3.6987,-3.6987,-3.6987,-3.6987,-3.6987,-3.6987,-3.6987,-3.6987,-3.6987,-3.6987,-3.6987,-3.6987,-3.6987,-3.6987,-3.1054,-3.1586,-3.221,-3.4587,-3.5862,-3.667,-3.7386,-3.8338,-3.9156,-3.9408,-3.9029,-3.8474,0.0,0.0,0.0,0.0,0.0,0.0,0.0,0.0,0.0,0.0,0.0,0.0,0.0,0.0,0.0,0.0,0.0,-3.4316,-3.4316,-3.4495,-3.4689,-3.4889,-3.5032,-3.5193,-3.5405,-3.5589,-3.5704,-3.5704,-3.5697,-3.6112,-3.6903,-3.6964,-3.7486,-3.8392,-3.9204,-3.9584,-3.9642,-4.0462,-4.079,-4.079,-4.079,-4.0673,-4.0473,-4.0269,-4.008,-3.987,-3.9656,-3.9602,-3.9602,-3.9602,-3.9596,-3.9596,-3.9602,-3.9596,-3.9577,-3.9577,-3.9546,-3.9469,-3.9418,-3.9301,-3.9082,-3.867,-3.8346,-3.7897,-3.7164,-3.6987,-3.6987,-3.6987,-3.6987,-3.6987,-3.6987,-3.6987,-3.6987,-3.6987,-3.6987,-3.6987,-3.6987,-3.6987,-3.6987,-3.6987,-3.6987,-3.6987,-3.6987,-3.6987,-3.6987,-3.6987,-3.6987,-3.6987,-3.6987,-3.6987,-3.6987,-3.6987,-3.6987,-3.6987,-3.6987,-3.6987,-3.6987,-3.6987,-3.6987,-3.6987,-3.0962,-3.1384,-3.1843,-3.377,-3.4971,-3.5787,-3.6083,-3.7396,-3.8452,-3.8143,-3.8348,-3.8247,0.0,0.0,0.0,0.0,0.0,0.0,0.0,0.0,0.0,0.0,0.0,0.0,0.0,0.0,0.0,0.0,0.0,0.0,-3.4293,-3.4495,-3.4689,-3.4889,-3.5032,-3.5258,-3.5577,-3.5662,-3.5704,-3.5704,-3.5695,-3.585,-3.6129,-3.6162,-3.6317,-3.6635,-3.7528,-3.8504,-3.9526,-3.9847,-4.0312,-4.079,-4.079,-4.0765,-4.066,-4.0321,-4.0158,-4.004,-3.9727,-3.9602,-3.9602,-3.9602,-3.9602,-3.9602,-3.9602,-3.9602,-3.9602,-3.9602,-3.9577,-3.9546,-3.9495,-3.9399,-3.9147,-3.8442,-3.7998,-3.7596,-3.7126,-3.6987,-3.6987,-3.6987,-3.6987,-3.6987,-3.6987,-3.6987,-3.6987,-3.6987,-3.6987,-3.6987,-3.6987,-3.6987,-3.6987,-3.6987,-3.6987,-3.6987,-3.6987,-3.6987,-3.6987,-3.6987,-3.6987,-3.6987,-3.6987,-3.6987,-3.6987,-3.6987,-3.6987,-3.6987,-3.6987,-3.6987,-3.6987,-3.6987,-3.6987,-3.6987,-3.0301,-3.0595,-3.098,-3.2577,-3.3541,-3.4284,-3.5175,-3.6422,-3.7393,-3.731,-3.762,0.0,0.0,0.0,0.0,0.0,0.0,0.0,0.0,0.0,0.0,0.0,0.0,0.0,0.0,0.0,0.0,0.0,0.0,0.0,-3.4197,-3.4386,-3.4649,-3.4963,-3.5047,-3.5288,-3.5704,-3.5704,-3.5704,-3.5704,-3.5695,-3.5695,-3.5706,-3.5707,-3.5698,-3.5718,-3.6348,-3.7374,-3.8698,-3.927,-3.984,-4.0377,-4.0687,-4.079,-4.0746,-4.0339,-4.0196,-4.0139,-3.9731,-3.9602,-3.9602,-3.9602,-3.9602,-3.9602,-3.9602,-3.9602,-3.9602,-3.9602,-3.9602,-3.9577,-3.952,-3.9328,-3.896,-3.8201,-3.7721,-3.7413,-3.7087,-3.6987,-3.6987,-3.6987,-3.6987,-3.6987,-3.6987,-3.6987,-3.6987,-3.6987,-3.6987,-3.6987,-3.6987,-3.6987,-3.6987,-3.6987,-3.6987,-3.6987,-3.6987,-3.6987,-3.6987,-3.6987,-3.6987,-3.6987,-3.6987,-3.6987,-3.6987,-3.6987,-3.6987,-3.6987,-3.6987,-3.6987,-3.6987,-3.6987,-3.6987,-3.6987,0.0,0.0,0.0,-3.0944,-3.1354,-3.2072,-3.4668,-3.5511,-3.6023,-3.6988,-3.6787,0.0,0.0,0.0,0.0,0.0,0.0,0.0,0.0,0.0,0.0,0.0,0.0,0.0,0.0,0.0,0.0,0.0,0.0,-3.3788,-3.3998,-3.4197,-3.4551,-3.5078,-3.5114,-3.5288,-3.5704,-3.5704,-3.5704,-3.5704,-3.5697,-3.5707,-3.5707,-3.5699,-3.5708,-3.5708,-3.5775,-3.6231,-3.7094,-3.8759,-3.9445,-3.9561,-4.0416,-4.0764,-4.0726,-4.0339,-4.0214,-4.0139,-3.9731,-3.9602,-3.9602,-3.9602,-3.9602,-3.9602,-3.9602,-3.9602,-3.9602,-3.9602,-3.9602,-3.9577,-3.952,-3.9101,-3.8579,-3.7948,-3.7667,-3.7413,-3.7087,-3.6987,-3.6987,-3.6987,-3.6987,-3.6987,-3.6987,-3.6987,-3.6987,-3.6987,-3.6987,-3.6987,-3.6987,-3.6987,-3.6987,-3.6987,-3.6987,-3.6987,-3.6987,-3.6987,-3.6987,-3.6987,-3.6987,-3.6987,-3.6987,-3.6987,-3.6987,-3.6987,-3.6987,-3.6987,-3.6987,-3.6987,-3.6987,-3.6987,-3.6987,-3.6987,-2.9228,0.0,0.0,0.0,0.0,0.0,0.0,0.0,-3.418,-3.4624,-3.5039,0.0,0.0,0.0,0.0,0.0,0.0,0.0,0.0,0.0,0.0,0.0,0.0,0.0,0.0,0.0,0.0,0.0,-3.3972,-3.4148,-3.4221,-3.4404,-3.4713,-3.5098,-3.5114,-3.5288,-3.5704,-3.5704,-3.5704,-3.5704,-3.5697,-3.5707,-3.5707,-3.5757,-3.5775,-3.5775,-3.5793,-3.5937,-3.622,-3.7259,-3.8054,-3.8722,-3.9583,-3.989,-3.9881,-4.012,-4.0194,-4.0139,-3.9731,-3.9602,-3.9602,-3.9602,-3.9602,-3.9602,-3.9602,-3.9602,-3.9602,-3.9602,-3.9602,-3.9552,-3.9283,-3.9101,-3.8778,-3.7982,-3.7756,-3.7613,-3.7087,-3.6987,-3.6987,-3.6987,-3.6987,-3.6987,-3.6987,-3.6987,-3.6987,-3.6987,-3.6987,-3.6987,-3.6987,-3.6987,-3.6987,-3.6987,-3.6987,-3.6987,-3.6987,-3.6987,-3.6987,-3.6987,-3.6987,-3.6987,-3.6987,-3.6987,-3.6987,-3.6987,-3.6987,-3.6987,-3.6987,-3.6987,-3.6987,-3.6987,-3.6987,-3.6987,-2.9528,-2.9334,-2.9342,-2.9675,0.0,0.0,-3.1143,-3.186,-3.2524,0.0,0.0,0.0,0.0,0.0,0.0,0.0,0.0,0.0,0.0,0.0,0.0,0.0,0.0,0.0,0.0,0.0,0.0,0.0,-3.3998,-3.4221,-3.4293,-3.4495,-3.4753,-3.5098,-3.5114,-3.5288,-3.5704,-3.5704,-3.5704,-3.5704,-3.5697,-3.5698,-3.5708,-3.5766,-3.5803,-3.5793,-3.581,-3.5799,-3.5829,-3.6306,-3.6997,-3.7831,-3.8713,-3.9265,-3.9549,-3.9637,-3.9887,-4.0139,-3.9731,-3.9602,-3.9602,-3.9602,-3.9602,-3.9602,-3.9602,-3.9602,-3.9602,-3.9602,-3.9602,-3.9527,-3.912,-3.8942,-3.8718,-3.8,-3.7703,-3.7485,-3.7164,-3.7066,-3.6987,-3.6987,-3.6987,-3.6987,-3.6987,-3.6987,-3.6987,-3.6987,-3.6987,-3.6987,-3.6987,-3.6987,-3.6987,-3.6987,-3.6987,-3.6987,-3.6987,-3.6987,-3.6987,-3.6987,-3.6987,-3.6987,-3.6987,-3.6987,-3.6987,-3.6987,-3.6987,-3.6987,-3.6987,-3.6987,-3.6987,-3.6987,-3.6987,-3.6987,-3.0152,-2.9889,-3.0021,-3.064,-3.0203,0.0,-3.1713,-3.1468,-3.1223,0.0,0.0,0.0,0.0,0.0,0.0,0.0,0.0,0.0,0.0,0.0,0.0,0.0,0.0,0.0,0.0,-3.3605,-3.3726,-3.378,-3.3947,-3.4148,-3.4316,-3.4495,-3.4753,-3.5098,-3.5114,-3.5288,-3.5704,-3.5704,-3.5704,-3.5695,-3.5697,-3.5708,-3.5708,-3.5775,-3.5793,-3.5799,-3.5799,-3.5799,-3.5799,-3.5799,-3.6229,-3.6939,-3.7841,-3.8636,-3.9262,-3.8923,-3.9331,-3.9986,-3.9603,-3.9526,-3.9602,-3.9602,-3.9602,-3.9602,-3.9602,-3.9602,-3.9602,-3.9602,-3.9602,-3.9502,-3.9036,-3.8766,-3.8504,-3.8036,-3.7631,-3.7334,-3.7297,-3.7143,-3.7027,-3.7009,-3.6987,-3.6987,-3.6987,-3.6987,-3.6987,-3.6987,-3.6987,-3.6987,-3.6987,-3.6987,-3.6987,-3.6987,-3.6987,-3.6987,-3.6987,-3.6987,-3.6987,-3.6987,-3.6987,-3.6987,-3.6987,-3.6987,-3.6987,-3.6987,-3.6987,-3.6987,-3.6987,-3.6987,-3.6987,-3.6987,-3.6987,-3.6987,-3.2087,-3.1732,-3.1486,-3.0997,-3.1222,0.0,-3.0359,-3.0547,-3.0998,0.0,-3.1488,0.0,0.0,0.0,0.0,0.0,0.0,0.0,0.0,0.0,0.0,0.0,0.0,0.0,0.0,-3.3671,-3.3815,-3.4173,-3.4363,-3.4495,-3.4539,-3.458,-3.4753,-3.5098,-3.5114,-3.5288,-3.5704,-3.5704,-3.5695,-3.5697,-3.5708,-3.5728,-3.5775,-3.5801,-3.5791,-3.5799,-3.5799,-3.5799,-3.5799,-3.5799,-3.5888,-3.6121,-3.6986,-3.7404,-3.7569,-3.7949,-3.8534,-3.9107,-3.8823,-3.9086,-3.9602,-3.9602,-3.9602,-3.9602,-3.9602,-3.9602,-3.9602,-3.9602,-3.9602,-3.9527,-3.9229,-3.8989,-3.8725,-3.8267,-3.7967,-3.7685,-3.7372,-3.7259,-3.7182,-3.7027,-3.6987,-3.6987,-3.6987,-3.6987,-3.6987,-3.6987,-3.6987,-3.6987,-3.6987,-3.6987,-3.6987,-3.6987,-3.6987,-3.6987,-3.6987,-3.6987,-3.6987,-3.6987,-3.6987,-3.6987,-3.6987,-3.6987,-3.6987,-3.6987,-3.6987,-3.6987,-3.6987,-3.6987,-3.6987,-3.6987,-3.6987,-3.6987,-3.2409,-3.2169,-3.231,-3.1895,-3.1728,0.0,0.0,-3.0444,-3.0578,-3.1217,-3.1016,-3.0994,0.0,0.0,0.0,0.0,0.0,0.0,0.0,0.0,0.0,0.0,0.0,0.0,0.0,0.0,-3.4221,-3.4517,-3.4561,-3.4623,-3.4706,-3.4687,-3.4851,-3.5193,-3.5209,-3.5372,-3.5707,-3.5707,-3.5698,-3.5708,-3.5737,-3.5766,-3.5803,-3.5801,-3.5799,-3.5799,-3.5799,-3.5799,-3.5799,-3.5799,-3.5799,-3.5829,-3.6267,-3.6705,-3.7056,-3.7132,-3.7888,-3.8858,-3.8534,-3.893,-3.9602,-3.9602,-3.9602,-3.9602,-3.9602,-3.9602,-3.9602,-3.9602,-3.9602,-3.9552,-3.9283,-3.9064,-3.8803,-3.8428,-3.8138,-3.7828,-3.7521,-3.7372,-3.722,-3.7027,-3.6987,-3.6987,-3.6987,-3.6987,-3.6987,-3.6987,-3.6987,-3.6987,-3.6987,-3.6987,-3.6987,-3.6987,-3.6987,-3.6987,-3.6987,-3.6987,-3.6987,-3.6987,-3.6987,-3.6987,-3.6987,-3.6987,-3.6987,-3.6987,-3.6987,-3.6987,-3.6987,-3.6987,-3.6987,-3.6987,-3.6987,-3.6987,-3.284,-3.2688,-3.3092,-3.2768,-3.2232,-3.1635,0.0,0.0,0.0,0.0,0.0,0.0,0.0,0.0,0.0,0.0,0.0,0.0,0.0,0.0,0.0,0.0,0.0,0.0,0.0,0.0,-3.4457,-3.479,-3.4578,-3.4538,-3.481,-3.4829,-3.4963,-3.5297,-3.5311,-3.5419,-3.5708,-3.5708,-3.5708,-3.5718,-3.5775,-3.5803,-3.5812,-3.581,-3.5799,-3.5799,-3.5799,-3.5799,-3.5799,-3.5799,-3.5799,-3.5791,-3.5793,-3.623,-3.6804,-3.6378,-3.7149,-3.8362,-3.7999,-3.8418,-3.9151,-3.9295,-3.9445,-3.9602,-3.9602,-3.9602,-3.9602,-3.9602,-3.9602,-3.9552,-3.9335,-3.912,-3.8892,-3.8634,-3.8303,-3.7951,-3.7703,-3.7521,-3.7297,-3.7105,-3.7027,-3.6987,-3.6987,-3.6987,-3.6987,-3.6987,-3.6987,-3.6987,-3.6987,-3.6987,-3.6987,-3.6987,-3.6987,-3.6917,-3.6777,-3.69,-3.6917,-3.6777,-3.6759,-3.6759,-3.6759,-3.6619,-3.6601,-3.6759,-3.6759,-3.6759,-3.6759,-3.6759,-3.6829,-3.6987,-3.6987,-3.69,-3.5267,-3.4846,-3.456,0.0,-3.3188,-3.3092,0.0,0.0,-3.1145,-3.0472,0.0,0.0,0.0,0.0,0.0,0.0,0.0,0.0,0.0,0.0,0.0,0.0,0.0,0.0,0.0,0.0,0.0,-3.4832,-3.4226,-3.4112,-3.4851,-3.4889,-3.5016,-3.5297,-3.5311,-3.5419,-3.5708,-3.5708,-3.5737,-3.5794,-3.5803,-3.5793,-3.5791,-3.5791,-3.5799,-3.5799,-3.5799,-3.5799,-3.5799,-3.5799,-3.5799,-3.5799,-3.5791,-3.586,-3.5912,-3.5624,-3.6017,-3.6642,-3.6364,-3.6757,-3.7493,-3.8225,-3.8957,-3.9602,-3.9602,-3.9602,-3.9602,-3.9602,-3.9602,-3.9577,-3.9552,-3.9362,-3.9101,-3.8892,-3.8634,-3.8318,-3.7951,-3.7703,-3.7521,-3.7297,-3.7105,-3.6987,-3.6987,-3.6987,-3.6987,-3.6987,-3.6987,-3.6987,-3.6987,-3.6987,-3.6987,-3.6987,-3.6987,-3.6707,-3.6004,-3.6584,-3.6689,-3.5987,-3.5952,-3.5952,-3.5952,-3.5302,-3.5267,-3.5934,-3.5952,-3.5952,-3.5952,-3.5952,-3.6303,-3.6987,-3.6987,-3.6619,-3.4961,0.0,0.0,0.0,0.0,0.0,-3.1293,0.0,-3.0796,0.0,0.0,0.0,0.0,0.0,0.0,0.0,0.0,0.0,0.0,0.0,0.0,0.0,0.0,0.0,0.0,0.0,0.0,0.0,0.0,-3.4073,-3.4982,-3.502,-3.5138,-3.5412,-3.5412,-3.5531,-3.5765,-3.5765,-3.5773,-3.5801,-3.5801,-3.5801,-3.5799,-3.5799,-3.5799,-3.5799,-3.5799,-3.5799,-3.5799,-3.5799,-3.5799,-3.5799,-3.5799,-3.5773,-3.5699,-3.5339,-3.5714,-3.636,-3.6056,-3.6449,-3.7211,-3.8037,-3.8544,-3.8939,-3.947,-3.9602,-3.9602,-3.9602,-3.9602,-3.9602,-3.9602,-3.9406,-3.9044,-3.8358,-3.7996,-3.7703,-3.73,-3.7128,-3.7166,-3.7432,-3.7297,-3.7182,-3.7182,-3.7066,-3.6987,-3.6987,-3.6987,-3.6987,-3.6987,-3.6987,-3.6987,-3.6987,-3.6987,-3.6654,-3.5881,-3.611,-3.5987,-3.5214,-3.5162,-3.5162,-3.5162,-3.4863,-3.4846,-3.5162,-3.5162,-3.5162,-3.5162,-3.5601,-3.5759,-3.5653,-3.5653,-3.5478,-3.4713,0.0,0.0,0.0,0.0,0.0,0.0,0.0,0.0,0.0,0.0,0.0,0.0,0.0,-3.0815,-3.0567,0.0,-3.0409,0.0,0.0,0.0,0.0,0.0,0.0,0.0,0.0,0.0,0.0,0.0,0.0,-3.507,-3.5162,-3.5285,-3.5495,-3.5538,-3.5629,-3.5791,-3.5799,-3.5799,-3.5799,-3.5799,-3.5799,-3.5799,-3.5799,-3.5799,-3.5799,-3.5799,-3.5799,-3.5799,-3.5799,-3.5799,-3.5791,-3.581,-3.5765,-3.5689,-3.5311,-3.5564,-3.6018,-3.5715,-3.6107,-3.6873,-3.7455,-3.7943,-3.8375,-3.8788,-3.9051,-3.9183,-3.9,-3.8925,-3.8957,-3.9183,-3.9102,-3.8753,-3.7988,-3.7626,-3.7393,-3.6942,-3.6829,-3.6944,-3.7506,-3.7484,-3.7334,-3.722,-3.7105,-3.6987,-3.6987,-3.6987,-3.6987,-3.6987,-3.6987,-3.6987,-3.6987,-3.6987,-3.6584,-3.5583,-3.5688,-3.5407,-3.4424,-3.4372,-3.4284,-3.4073,-3.4056,-3.4161,-3.4372,-3.4354,-3.4354,-3.4372,-3.4916,-3.4793,-3.4073,-3.4705,-3.4776,0.0,0.0,0.0,-3.315,0.0,0.0,0.0,0.0,-3.1236,0.0,0.0,0.0,0.0,-3.2114,-3.2329,-3.1503,-3.1427,0.0,0.0,0.0,0.0,0.0,0.0,0.0,0.0,0.0,0.0,0.0,0.0,0.0,-3.5114,-3.532,-3.5416,-3.5495,-3.5626,-3.5718,-3.5791,-3.5799,-3.5799,-3.5799,-3.5799,-3.5799,-3.5799,-3.5799,-3.5799,-3.5799,-3.5799,-3.5799,-3.5799,-3.5799,-3.5799,-3.5791,-3.5793,-3.5803,-3.5757,-3.5483,-3.534,-3.5207,-3.4926,-3.5308,-3.5935,-3.5972,-3.7042,-3.8169,-3.7399,-3.7718,-3.8188,-3.7399,-3.7174,-3.7343,-3.815,-3.8357,-3.8265,-3.8026,-3.7973,-3.7867,-3.7363,-3.7116,-3.7127,-3.7524,-3.7577,-3.7466,-3.7066,-3.7009,-3.6987,-3.6987,-3.6987,-3.6987,-3.6987,-3.6987,-3.6987,-3.6987,-3.6987,-3.6373,-3.4846,-3.539,-3.5162,-3.3616,-3.3528,-3.3231,-3.2493,-3.2476,-3.2809,-3.3511,-3.3529,-3.3529,-3.3528,-3.3564,-3.3178,-3.2529,-3.4758,-3.4986,0.0,0.0,-3.4942,-3.3834,0.0,0.0,0.0,0.0,0.0,0.0,0.0,0.0,0.0,-3.1312,-3.158,-3.0739,-3.1102,-3.1197,0.0,0.0,0.0,0.0,0.0,0.0,0.0,0.0,0.0,0.0,0.0,0.0,0.0,-3.5032,-3.5416,-3.5495,-3.5626,-3.5728,-3.5791,-3.5799,-3.5799,-3.5799,-3.5799,-3.5799,-3.5799,-3.5799,-3.5799,-3.5799,-3.5799,-3.5799,-3.5799,-3.5799,-3.5799,-3.5791,-3.581,-3.5801,-3.5765,-3.5451,-3.5273,-3.5152,-3.4792,-3.4833,-3.5127,-3.5709,-3.6273,-3.6761,-3.7005,-3.7286,-3.7437,-3.7174,-3.7099,-3.7155,-3.7437,-3.7512,-3.7314,-3.6541,-3.6789,-3.7076,-3.6622,-3.6876,-3.7321,-3.7719,-3.7703,-3.7503,-3.7259,-3.7105,-3.6987,-3.6987,-3.6987,-3.6794,-3.6268,-3.6215,-3.6022,-3.5513,-3.546,-3.5039,-3.3986,-3.3687,-3.3336,-3.2809,-3.2774,-3.2669,-3.2406,-3.2406,-3.2511,-3.2774,-3.2774,-3.2774,-3.2774,-3.3248,-3.3108,-3.2423,-3.3705,-3.3757,-3.5209,-3.5209,0.0,0.0,-3.3586,0.0,-3.1675,0.0,0.0,0.0,0.0,0.0,0.0,-3.1713,-3.1694,-3.1178,-3.1312,-3.1197,0.0,-3.0204,0.0,0.0,0.0,-3.0868,0.0,-3.0817,-3.126,-3.2137,0.0,0.0,0.0,0.0,-3.547,-3.5495,-3.5658,-3.5747,-3.5791,-3.5799,-3.5799,-3.5799,-3.5799,-3.5799,-3.5799,-3.5799,-3.5799,-3.5799,-3.5799,-3.5799,-3.5799,-3.5799,-3.5799,-3.5799,-3.5799,-3.5799,-3.5773,-3.5476,-3.5239,-3.5051,-3.4771,-3.4645,-3.4677,-3.5259,-3.5653,-3.5935,-3.6141,-3.6423,-3.661,-3.6291,-3.6197,-3.6273,-3.6592,-3.6667,-3.6494,-3.5815,-3.6296,-3.6795,-3.6381,-3.6893,-3.7522,-3.7941,-3.7916,-3.7739,-3.7447,-3.7297,-3.7164,-3.7009,-3.6987,-3.6707,-3.5917,-3.5811,-3.553,-3.4776,-3.4688,-3.4372,-3.3564,-3.2827,-3.2406,-3.2406,-3.2406,-3.2406,-3.2406,-3.2406,-3.2406,-3.2406,-3.2406,-3.2406,-3.2406,-3.288,-3.2845,-3.2406,-3.2897,-3.2862]},{"header":{"parameterUnit":"m.s-1","parameterCategory":1,"la1":30.6,"la2":29.2853,"lo1":-89.7004,"lo2":-87.6739,"dy":0.0162,"dx":0.0183,"nx":112,"ny":82,"refTime":"2025-05-22T18:00:00:Z","depth":0,"parameterNumber":3,"parameterNumberName":"V-component_of_WINDS"},"data":[0.0,0.0,0.0,0.0,0.0,0.0,0.0,0.0,0.0,0.0,0.0,0.0,0.0,0.0,0.0,0.0,0.0,0.0,0.0,0.0,0.0,0.0,0.0,0.0,0.0,0.0,0.0,0.0,0.0,0.0,0.0,0.0,0.0,0.0,0.0,0.0,0.0,0.0,0.0,0.0,0.0,0.0,0.0,0.0,0.0,0.0,0.0,0.0,0.0,0.0,0.0,0.0,0.0,0.0,0.0,0.0,0.0,0.0,0.0,0.0,0.0,0.0,0.0,0.0,0.0,0.0,0.0,0.0,0.0,0.0,0.0,0.0,0.0,0.0,0.0,0.0,0.0,0.0,0.0,0.0,0.0,0.0,0.0,0.0,0.0,0.0,0.0,0.0,0.0,0.0,-1.9767,-2.1123,-2.4147,-2.6871,-2.8882,-2.8694,-2.7632,-2.5652,0.0,0.0,0.0,0.0,0.0,0.0,0.0,0.0,0.0,0.0,0.0,0.0,0.0,0.0,0.0,0.0,0.0,0.0,0.0,0.0,0.0,0.0,0.0,0.0,0.0,0.0,0.0,0.0,0.0,0.0,0.0,0.0,0.0,0.0,0.0,0.0,0.0,0.0,0.0,0.0,0.0,0.0,0.0,0.0,0.0,0.0,0.0,0.0,0.0,0.0,0.0,0.0,0.0,0.0,0.0,0.0,0.0,0.0,0.0,0.0,0.0,0.0,0.0,0.0,0.0,0.0,0.0,0.0,0.0,0.0,0.0,0.0,0.0,0.0,0.0,0.0,0.0,0.0,0.0,0.0,0.0,0.0,0.0,0.0,0.0,0.0,0.0,0.0,0.0,0.0,0.0,0.0,0.0,0.0,0.0,0.0,0.0,0.0,0.0,0.0,0.0,0.0,0.0,0.0,-2.0199,-2.4121,-2.5333,-2.6648,-2.8633,-2.8133,-2.703,-2.5448,0.0,0.0,0.0,0.0,0.0,0.0,0.0,0.0,0.0,0.0,0.0,0.0,0.0,0.0,0.0,0.0,0.0,0.0,0.0,0.0,0.0,0.0,0.0,0.0,0.0,0.0,0.0,0.0,0.0,0.0,0.0,0.0,0.0,0.0,0.0,0.0,0.0,0.0,0.0,0.0,0.0,0.0,0.0,0.0,0.0,0.0,0.0,0.0,0.0,0.0,0.0,0.0,0.0,0.0,0.0,0.0,0.0,0.0,0.0,0.0,0.0,0.0,0.0,0.0,0.0,0.0,0.0,0.0,0.0,0.0,0.0,0.0,0.0,0.0,0.0,0.0,0.0,0.0,0.0,0.0,0.0,0.0,0.0,0.0,0.0,0.0,0.0,0.0,0.0,0.0,0.0,0.0,0.0,0.0,0.0,0.0,0.0,0.0,0.0,0.0,0.0,0.0,0.0,-1.9238,-2.0747,-2.4407,-2.5449,-2.64,-2.7959,-2.7742,-2.6729,-2.4998,-2.5894,0.0,0.0,0.0,0.0,0.0,0.0,0.0,0.0,0.0,0.0,0.0,0.0,0.0,0.0,0.0,0.0,0.0,0.0,0.0,0.0,0.0,0.0,0.0,0.0,0.0,0.0,0.0,0.0,0.0,0.0,0.0,0.0,0.0,0.0,0.0,0.0,0.0,0.0,0.0,0.0,0.0,0.0,0.0,0.0,0.0,0.0,0.0,0.0,0.0,0.0,0.0,0.0,0.0,0.0,0.0,0.0,0.0,0.0,0.0,0.0,0.0,0.0,0.0,0.0,0.0,0.0,0.0,0.0,0.0,0.0,0.0,0.0,0.0,0.0,0.0,0.0,0.0,0.0,0.0,0.0,0.0,0.0,0.0,0.0,0.0,0.0,0.0,0.0,0.0,0.0,0.0,0.0,0.0,0.0,0.0,0.0,0.0,0.0,0.0,0.0,0.0,0.0,-2.0332,-2.1471,-2.4535,-2.5411,-2.6318,-2.7649,-2.7348,-2.6316,-2.453,-2.4834,0.0,0.0,0.0,0.0,0.0,0.0,0.0,0.0,0.0,0.0,0.0,0.0,0.0,0.0,0.0,0.0,0.0,0.0,0.0,0.0,0.0,0.0,0.0,0.0,0.0,0.0,0.0,0.0,0.0,0.0,0.0,0.0,0.0,0.0,0.0,0.0,0.0,0.0,0.0,0.0,0.0,0.0,0.0,0.0,0.0,0.0,0.0,0.0,0.0,0.0,0.0,0.0,0.0,0.0,0.0,0.0,0.0,0.0,0.0,0.0,0.0,0.0,0.0,0.0,0.0,0.0,0.0,0.0,0.0,0.0,0.0,0.0,0.0,0.0,0.0,0.0,0.0,0.0,0.0,0.0,0.0,0.0,0.0,0.0,0.0,0.0,0.0,0.0,0.0,0.0,0.0,0.0,0.0,0.0,0.0,0.0,0.0,0.0,0.0,0.0,0.0,0.0,-2.0762,-2.2744,-2.546,-2.5746,-2.6494,-2.8259,-2.6907,-2.5355,-2.4086,-2.3603,0.0,0.0,0.0,0.0,0.0,0.0,0.0,0.0,0.0,0.0,0.0,0.0,0.0,0.0,0.0,0.0,0.0,0.0,0.0,0.0,0.0,0.0,0.0,0.0,0.0,0.0,0.0,0.0,0.0,0.0,0.0,0.0,0.0,0.0,0.0,0.0,0.0,0.0,0.0,0.0,0.0,0.0,0.0,0.0,0.0,0.0,0.0,0.0,0.0,0.0,0.0,0.0,0.0,0.0,0.0,0.0,0.0,0.0,0.0,0.0,0.0,0.0,0.0,0.0,0.0,0.0,0.0,0.0,0.0,0.0,0.0,0.0,0.0,0.0,0.0,0.0,0.0,0.0,0.0,0.0,0.0,0.0,0.0,0.0,0.0,0.0,0.0,0.0,0.0,0.0,0.0,0.0,0.0,0.0,0.0,0.0,0.0,0.0,0.0,0.0,0.0,0.0,-2.0322,-2.1836,-2.3907,-2.5158,-2.5959,-2.6312,-2.6249,-2.5432,-2.3624,0.0,0.0,0.0,0.0,0.0,0.0,0.0,0.0,0.0,0.0,0.0,0.0,0.0,0.0,0.0,0.0,0.0,0.0,0.0,0.0,0.0,0.0,0.0,0.0,0.0,0.0,0.0,0.0,0.0,0.0,0.0,0.0,0.0,0.0,0.0,0.0,0.0,0.0,0.0,0.0,0.0,0.0,0.0,0.0,0.0,0.0,0.0,0.0,0.0,0.0,0.0,0.0,0.0,0.0,0.0,0.0,0.0,0.0,0.0,0.0,0.0,0.0,0.0,0.0,0.0,0.0,0.0,0.0,0.0,0.0,0.0,0.0,0.0,0.0,0.0,0.0,0.0,0.0,0.0,0.0,0.0,0.0,0.0,0.0,0.0,0.0,0.0,0.0,0.0,0.0,0.0,0.0,0.0,0.0,0.0,0.0,0.0,0.0,0.0,0.0,0.0,0.0,-1.9102,-2.0273,-2.1777,-2.3735,-2.4935,-2.5634,-2.5869,-2.5722,-2.4949,-2.3256,0.0,0.0,0.0,0.0,0.0,0.0,0.0,0.0,0.0,0.0,0.0,0.0,0.0,0.0,0.0,0.0,0.0,0.0,0.0,0.0,0.0,0.0,0.0,0.0,0.0,0.0,0.0,0.0,0.0,0.0,0.0,0.0,0.0,0.0,0.0,0.0,0.0,0.0,0.0,0.0,0.0,0.0,0.0,0.0,0.0,0.0,0.0,0.0,0.0,0.0,0.0,0.0,0.0,0.0,0.0,0.0,0.0,0.0,0.0,0.0,0.0,0.0,0.0,0.0,0.0,0.0,0.0,0.0,0.0,0.0,0.0,0.0,0.0,0.0,0.0,0.0,0.0,0.0,0.0,0.0,0.0,0.0,0.0,0.0,0.0,0.0,0.0,0.0,0.0,0.0,0.0,0.0,0.0,0.0,0.0,0.0,0.0,0.0,0.0,0.0,0.0,0.0,-1.917,-2.0801,-2.2928,-2.546,-2.53,-2.5755,-2.7538,-2.5417,-2.3729,0.0,0.0,0.0,0.0,0.0,0.0,0.0,0.0,0.0,0.0,0.0,0.0,0.0,0.0,0.0,0.0,0.0,0.0,0.0,0.0,0.0,0.0,0.0,0.0,0.0,0.0,0.0,0.0,0.0,0.0,0.0,0.0,0.0,0.0,0.0,0.0,0.0,0.0,0.0,0.0,0.0,0.0,0.0,0.0,0.0,0.0,0.0,0.0,0.0,0.0,0.0,0.0,0.0,0.0,0.0,0.0,0.0,0.0,0.0,0.0,0.0,0.0,0.0,0.0,0.0,0.0,0.0,0.0,0.0,0.0,0.0,0.0,0.0,0.0,0.0,0.0,0.0,0.0,0.0,0.0,0.0,0.0,0.0,0.0,0.0,0.0,0.0,0.0,0.0,0.0,0.0,0.0,0.0,0.0,0.0,0.0,0.0,0.0,0.0,0.0,0.0,0.0,0.0,-1.876,-2.0791,-2.2664,-2.3811,-2.4785,-2.5506,-2.5599,-2.4874,-2.3827,-2.2498,0.0,0.0,0.0,0.0,0.0,0.0,0.0,0.0,0.0,0.0,0.0,0.0,0.0,0.0,0.0,0.0,0.0,0.0,0.0,0.0,0.0,0.0,0.0,0.0,0.0,0.0,0.0,0.0,0.0,0.0,0.0,0.0,0.0,0.0,0.0,0.0,0.0,0.0,0.0,0.0,0.0,0.0,0.0,0.0,0.0,0.0,0.0,0.0,0.0,0.0,0.0,0.0,0.0,0.0,0.0,0.0,0.0,0.0,0.0,0.0,0.0,0.0,0.0,0.0,0.0,0.0,0.0,0.0,0.0,0.0,0.0,0.0,0.0,0.0,0.0,0.0,0.0,0.0,0.0,0.0,0.0,0.0,0.0,0.0,0.0,0.0,0.0,0.0,0.0,0.0,0.0,0.0,0.0,0.0,0.0,0.0,0.0,0.0,0.0,0.0,0.0,0.0,-1.8644,-2.0517,-2.2135,-2.3,-2.4168,-2.4777,-2.4826,-2.4437,-2.364,-2.2282,0.0,0.0,0.0,0.0,0.0,0.0,0.0,0.0,0.0,0.0,0.0,0.0,0.0,0.0,0.0,0.0,0.0,0.0,0.0,0.0,0.0,0.0,0.0,0.0,0.0,0.0,0.0,0.0,0.0,0.0,0.0,0.0,0.0,0.0,0.0,0.0,0.0,0.0,0.0,0.0,0.0,0.0,0.0,0.0,0.0,0.0,0.0,0.0,0.0,0.0,0.0,0.0,0.0,0.0,0.0,0.0,0.0,0.0,0.0,0.0,0.0,0.0,0.0,0.0,0.0,0.0,0.0,0.0,0.0,0.0,0.0,0.0,0.0,0.0,0.0,0.0,0.0,0.0,0.0,0.0,0.0,0.0,0.0,0.0,0.0,0.0,0.0,0.0,0.0,0.0,0.0,0.0,0.0,0.0,0.0,0.0,0.0,0.0,0.0,0.0,0.0,0.0,-1.8775,-2.0024,-2.1446,-2.3005,-2.3498,-2.3993,-2.4872,-2.4247,-2.3388,-2.233,0.0,0.0,0.0,0.0,0.0,0.0,0.0,0.0,0.0,0.0,0.0,0.0,0.0,0.0,0.0,0.0,0.0,0.0,0.0,0.0,0.0,0.0,0.0,0.0,0.0,0.0,0.0,0.0,0.0,0.0,0.0,0.0,0.0,0.0,0.0,0.0,0.0,0.0,0.0,0.0,0.0,0.0,0.0,0.0,0.0,0.0,0.0,0.0,0.0,0.0,0.0,0.0,0.0,0.0,0.0,0.0,0.0,0.0,0.0,0.0,-1.5487,0.0,0.0,0.0,0.0,0.0,0.0,0.0,0.0,0.0,0.0,0.0,0.0,0.0,0.0,0.0,0.0,0.0,0.0,0.0,0.0,0.0,0.0,0.0,0.0,0.0,0.0,0.0,0.0,0.0,0.0,0.0,0.0,0.0,0.0,0.0,0.0,0.0,0.0,0.0,0.0,0.0,-1.8562,-2.0135,-2.1765,-2.3155,-2.3698,-2.4281,-2.5171,-2.4713,-2.3917,-2.2871,-2.1825,0.0,0.0,0.0,0.0,0.0,0.0,0.0,0.0,0.0,0.0,0.0,0.0,0.0,0.0,0.0,0.0,0.0,0.0,0.0,0.0,0.0,0.0,0.0,0.0,0.0,0.0,0.0,0.0,0.0,0.0,0.0,0.0,0.0,0.0,0.0,0.0,0.0,0.0,0.0,0.0,0.0,0.0,0.0,0.0,0.0,0.0,0.0,0.0,0.0,0.0,0.0,0.0,0.0,0.0,0.0,0.0,0.0,0.0,0.0,0.0,-1.6554,0.0,0.0,0.0,0.0,0.0,0.0,0.0,0.0,0.0,0.0,0.0,0.0,0.0,0.0,0.0,0.0,0.0,0.0,0.0,0.0,0.0,0.0,0.0,0.0,0.0,0.0,0.0,0.0,0.0,0.0,0.0,0.0,0.0,0.0,0.0,0.0,0.0,0.0,0.0,0.0,-1.8623,-2.0053,-2.1576,-2.2702,-2.3463,-2.412,-2.4933,-2.4522,-2.3941,-2.3156,-2.2054,0.0,0.0,0.0,0.0,0.0,0.0,0.0,0.0,0.0,0.0,0.0,0.0,0.0,0.0,0.0,0.0,0.0,0.0,0.0,0.0,0.0,0.0,0.0,0.0,0.0,0.0,0.0,0.0,0.0,0.0,0.0,0.0,0.0,0.0,0.0,0.0,0.0,0.0,0.0,0.0,0.0,0.0,0.0,0.0,0.0,0.0,0.0,0.0,0.0,0.0,0.0,0.0,0.0,-1.8786,-1.8934,-1.8852,-1.926,-1.9425,-1.9465,-1.8704,-1.8508,-1.863,0.0,0.0,0.0,0.0,0.0,0.0,0.0,0.0,0.0,0.0,0.0,0.0,0.0,0.0,0.0,0.0,0.0,0.0,0.0,0.0,0.0,0.0,0.0,0.0,0.0,-1.9717,-1.9858,0.0,0.0,0.0,0.0,0.0,0.0,0.0,0.0,0.0,0.0,0.0,0.0,-1.8926,-2.0175,-2.1428,-2.2531,-2.3305,-2.4002,-2.4732,-2.4374,-2.3879,-2.3259,-2.2127,-2.1091,0.0,0.0,0.0,0.0,0.0,0.0,0.0,0.0,0.0,0.0,0.0,0.0,0.0,0.0,0.0,0.0,0.0,0.0,0.0,0.0,0.0,0.0,0.0,0.0,0.0,0.0,0.0,0.0,0.0,0.0,0.0,0.0,-1.2511,-1.284,0.0,0.0,0.0,0.0,0.0,0.0,0.0,0.0,0.0,0.0,0.0,0.0,0.0,-1.8372,-1.8958,-1.9928,-2.0238,-1.9967,-2.0462,-2.0697,-2.0532,-2.0615,-2.078,-2.0955,-2.1396,0.0,-1.9724,-1.9336,0.0,0.0,0.0,0.0,0.0,0.0,0.0,0.0,0.0,0.0,0.0,0.0,0.0,0.0,0.0,0.0,0.0,0.0,0.0,0.0,0.0,0.0,-2.1342,-2.0938,-2.0886,-2.0969,0.0,-2.0096,-1.8827,-1.8299,-1.8257,0.0,0.0,0.0,0.0,0.0,0.0,0.0,-1.9561,-2.0942,-2.2299,-2.3576,-2.4204,-2.4673,-2.503,-2.4859,-2.428,-2.3283,-2.2476,-2.1813,-2.1211,-2.0286,0.0,0.0,0.0,0.0,0.0,0.0,0.0,0.0,0.0,0.0,0.0,0.0,0.0,0.0,0.0,0.0,0.0,0.0,0.0,0.0,0.0,0.0,0.0,0.0,0.0,0.0,0.0,0.0,0.0,-1.2658,-1.3256,-1.379,-1.3999,-1.4205,0.0,0.0,0.0,0.0,0.0,0.0,0.0,0.0,0.0,-1.8168,-1.9226,-1.9916,-2.0171,-2.092,-2.1207,-2.1034,-2.1295,-2.1461,-2.1556,-2.172,-2.1892,-2.216,-2.2707,-2.2549,-2.186,-2.0876,-1.9918,-1.9068,0.0,0.0,0.0,0.0,0.0,-1.9103,-1.9443,-1.9765,0.0,0.0,0.0,0.0,0.0,0.0,0.0,0.0,0.0,0.0,0.0,0.0,0.0,-2.1786,-2.1796,-2.1945,-2.2316,-2.1822,-2.1021,0.0,-1.9881,-1.9473,-1.823,0.0,0.0,0.0,0.0,-1.9588,-2.0663,-2.1869,-2.3116,-2.4552,-2.4874,-2.5286,-2.5841,-2.5056,-2.4303,-2.3839,-2.2769,-2.1957,-2.1428,-2.0947,-2.0406,0.0,0.0,0.0,0.0,0.0,0.0,0.0,0.0,0.0,0.0,0.0,0.0,0.0,0.0,0.0,0.0,0.0,0.0,0.0,0.0,0.0,0.0,0.0,0.0,0.0,0.0,0.0,0.0,-1.3278,-1.4059,-1.4691,-1.5116,-1.5529,0.0,0.0,0.0,0.0,0.0,0.0,-1.7345,-1.8479,-1.9194,-1.9442,-2.0661,-2.1318,-2.1328,-2.1697,-2.1887,-2.1977,-2.1876,-2.2008,-2.2274,-2.2441,-2.2706,-2.2979,-2.3329,-2.3503,-2.3501,-2.2251,-2.1204,-2.0338,-1.979,-1.9303,-1.8954,-1.9425,-1.9899,-2.0323,-2.0676,-2.1009,-2.1171,-2.0558,0.0,-1.988,-1.9211,0.0,0.0,0.0,0.0,-2.0154,-2.1009,0.0,-2.1447,-2.2092,-2.2252,-2.2402,-2.2927,-2.3001,-2.2652,0.0,-2.1355,-2.0855,-1.9487,0.0,0.0,0.0,0.0,-2.0299,-2.1317,-2.2528,-2.3644,-2.4587,-2.5241,-2.5685,-2.5977,-2.5098,-2.4386,-2.4103,-2.3013,-2.2161,-2.1632,-2.1476,-2.1019,-2.0213,0.0,0.0,0.0,0.0,0.0,0.0,0.0,0.0,0.0,0.0,0.0,0.0,0.0,0.0,0.0,0.0,0.0,0.0,0.0,0.0,0.0,0.0,0.0,0.0,0.0,0.0,0.0,0.0,0.0,-1.5454,-1.6828,0.0,0.0,0.0,0.0,-1.7708,-1.804,-1.8495,-1.9126,-2.0348,-2.1069,-2.1239,-2.2041,-2.2568,-2.2765,-2.2483,-2.2391,-2.2665,-2.2274,-2.2362,-2.2803,-2.2803,-2.3067,-2.3503,-2.3503,-2.359,-2.3714,-2.3328,-2.2613,-2.1758,-2.1255,-2.0813,-2.0461,-2.0481,-2.0772,-2.1145,-2.1385,-2.1492,-2.1502,-2.168,-2.1007,-2.0165,-2.0114,-1.9798,0.0,0.0,-2.0586,-2.1155,-2.1652,-2.1766,-2.1776,-2.1797,-2.1807,-2.2035,-2.2852,-2.3001,-2.2837,0.0,-2.2215,-2.1849,-2.0576,0.0,-2.0154,-1.9802,-2.0079,-2.0555,-2.1094,-2.286,-2.3841,-2.3213,-2.5087,-2.5965,-2.474,-2.4871,-2.4632,-2.3587,-2.3159,-2.2702,-2.2173,-2.1668,-2.138,-2.132,-2.031,0.0,0.0,0.0,0.0,0.0,0.0,0.0,0.0,0.0,0.0,0.0,0.0,0.0,0.0,0.0,0.0,0.0,0.0,0.0,0.0,0.0,0.0,0.0,0.0,0.0,0.0,0.0,0.0,-1.657,-1.7578,0.0,-1.7936,-1.7829,-1.8144,-1.9234,-1.9399,-1.992,-2.1006,-2.167,-2.2131,-2.2326,-2.2608,-2.2857,-2.2857,-2.2711,-2.2686,-2.2693,-2.2553,-2.2617,-2.2803,-2.2969,-2.3144,-2.3503,-2.3851,-2.4024,-2.41,-2.4023,-2.352,-2.2684,-2.2392,-2.2025,-2.1639,-2.1783,-2.1701,-2.1589,-2.1655,-2.1655,-2.1731,-2.1807,-2.1515,-2.1257,-2.1257,-2.1133,-2.104,-2.1205,-2.136,-2.16,-2.1766,-2.1807,-2.1883,-2.2101,-2.2176,-2.2402,-2.3224,-2.3372,-2.339,-2.3514,-2.3324,-2.2806,-2.168,-2.1559,-2.1377,-2.0586,-2.0934,-2.147,-2.2232,-2.2955,-2.3486,-2.3694,-2.448,-2.4992,-2.5035,-2.4342,-2.3935,-2.403,-2.3038,-2.239,-2.2197,-2.2017,-2.1596,-2.0911,-2.0514,-1.9973,0.0,0.0,0.0,0.0,0.0,0.0,0.0,0.0,0.0,0.0,0.0,0.0,0.0,0.0,0.0,0.0,0.0,0.0,0.0,0.0,0.0,0.0,0.0,0.0,0.0,-1.5976,-1.6731,-1.7621,-1.8482,-1.9011,-1.9125,-1.8991,-1.944,-2.0709,-2.0843,-2.1254,-2.2242,-2.2735,-2.2953,-2.3058,-2.329,-2.3354,-2.3354,-2.3226,-2.3139,-2.3009,-2.295,-2.2929,-2.2882,-2.3144,-2.3406,-2.358,-2.4034,-2.4206,-2.4292,-2.4464,-2.4193,-2.3622,-2.335,-2.2981,-2.2549,-2.2474,-2.2304,-2.2014,-2.1859,-2.1807,-2.1807,-2.1807,-2.1807,-2.1807,-2.1807,-2.1807,-2.1807,-2.1807,-2.1807,-2.1807,-2.1807,-2.1807,-2.1883,-2.2101,-2.2327,-2.2553,-2.3224,-2.3519,-2.3677,-2.397,-2.3751,-2.3391,-2.273,-2.2446,-2.2121,-2.152,-2.1586,-2.1977,-2.251,-2.2852,-2.3065,-2.3327,-2.3756,-2.4337,-2.4862,-2.3862,-2.3514,-2.4235,-2.2995,-2.2178,-2.2197,-2.2017,-2.1596,-2.0887,-2.0706,-2.0261,-1.954,0.0,0.0,0.0,0.0,0.0,0.0,0.0,0.0,0.0,0.0,0.0,0.0,0.0,0.0,0.0,0.0,0.0,0.0,0.0,0.0,0.0,0.0,0.0,-1.588,-1.6451,-1.7365,-1.8407,-1.9571,-2.0292,-2.0309,-2.066,-2.131,-2.2159,-2.2194,-2.2488,-2.2893,-2.3354,-2.3556,-2.3556,-2.395,-2.4152,-2.4152,-2.4059,-2.3851,-2.371,-2.3558,-2.3297,-2.3144,-2.3406,-2.358,-2.3841,-2.411,-2.4292,-2.454,-2.454,-2.454,-2.4498,-2.4064,-2.3619,-2.3153,-2.2708,-2.2522,-2.2507,-2.1963,-2.1807,-2.1807,-2.1807,-2.1807,-2.1807,-2.1807,-2.1807,-2.1807,-2.1828,-2.1818,-2.1807,-2.1828,-2.1818,-2.1807,-2.1807,-2.2101,-2.2478,-2.2927,-2.3298,-2.3593,-2.3593,-2.3593,-2.3593,-2.3593,-2.2927,-2.2402,-2.2402,-2.2035,0.0,-2.1807,-2.2478,-2.2628,-2.1873,-2.3106,-2.4047,-2.4047,-2.3507,-2.3433,-2.4193,-2.2959,-2.218,-2.2209,-2.1704,-2.1416,-2.1404,-2.0887,-2.061,-2.061,0.0,0.0,0.0,0.0,0.0,0.0,0.0,0.0,0.0,0.0,0.0,0.0,0.0,0.0,0.0,0.0,0.0,0.0,0.0,0.0,0.0,-1.6775,-1.7145,-1.6909,-1.7495,-1.8297,-1.9293,-1.9911,-2.0403,-2.0686,-2.1,-2.1611,-2.2558,-2.2804,-2.322,-2.3804,-2.3932,-2.3987,-2.3987,-2.4088,-2.4152,-2.4152,-2.4328,-2.4122,-2.372,-2.3753,-2.3577,-2.3135,-2.3493,-2.3754,-2.3841,-2.4196,-2.4454,-2.454,-2.454,-2.4711,-2.4935,-2.449,-2.4242,-2.4132,-2.3995,-2.3758,-2.3349,-2.2486,-2.2252,-2.2176,-2.1883,-2.1807,-2.1807,-2.1807,-2.1807,-2.188,-2.2211,-2.2066,-2.188,-2.2221,-2.2056,-2.1807,-2.1807,-2.1873,-2.2111,-2.2478,-2.2628,-2.2927,-2.353,-2.315,-2.2703,-2.2703,-2.3001,-2.3001,-2.2101,-2.2101,0.0,-2.1807,-2.1949,-2.2035,-2.1807,-2.2166,-2.2681,-2.3276,-2.2358,-2.2237,-2.3416,-2.2292,-2.1804,-2.2197,-2.2053,-2.1801,-2.1416,-2.0887,-2.061,0.0,0.0,0.0,0.0,0.0,0.0,0.0,0.0,0.0,0.0,0.0,0.0,0.0,0.0,0.0,0.0,0.0,0.0,0.0,0.0,0.0,0.0,-1.7688,-1.8061,-1.7747,-1.804,-1.8718,-1.986,-2.0163,-2.0446,-2.084,-2.1199,-2.1735,-2.2735,-2.3126,-2.3511,-2.4143,-2.3987,-2.3978,-2.4143,-2.3987,-2.3978,-2.4152,-2.437,-2.4162,-2.371,-2.3881,-2.3609,-2.3135,-2.358,-2.3841,0.0,-2.4282,-2.454,-2.4529,-2.4343,-2.4534,0.0,0.0,0.0,0.0,0.0,-2.3837,-2.3372,-2.2649,-2.2402,-2.2327,-2.2101,-2.1959,-2.1807,-2.2035,-2.1949,-2.1859,-2.2128,-2.2014,-2.1869,-2.2139,-2.2004,-2.1807,-2.1807,-2.1949,-2.2101,-2.2327,-2.2628,-2.3001,-2.3298,0.0,0.0,-2.2478,-2.2628,-2.2703,-2.2101,-2.2111,-2.2025,0.0,-2.1807,-2.1807,-2.1807,-2.1807,-2.2101,-2.2927,-2.1973,0.0,0.0,0.0,-2.162,-2.1861,-2.1861,0.0,0.0,0.0,0.0,0.0,0.0,0.0,0.0,-2.1716,-2.1644,0.0,0.0,0.0,0.0,0.0,0.0,0.0,0.0,0.0,0.0,0.0,0.0,0.0,0.0,0.0,0.0,-1.8922,-1.9356,-1.8441,-1.8449,-1.8921,-2.0158,-2.0292,-2.0446,-2.084,-2.1165,-2.1822,-2.2744,-2.3188,-2.3601,-2.4152,0.0,0.0,0.0,0.0,-2.3648,-2.4015,-2.4141,-2.3956,-2.3634,-2.3702,-2.3564,-2.3135,-2.358,-2.3754,-2.3754,-2.4282,-2.4454,-2.4423,-2.4115,-2.4272,-2.4711,-2.5126,-2.5279,-2.519,-2.4237,-2.3688,0.0,0.0,0.0,0.0,-2.2402,-2.2101,-2.1883,-2.2252,-2.2101,-2.1818,-2.1869,-2.1849,-2.1818,-2.1869,-2.1849,-2.1807,-2.1807,-2.2101,-2.2327,-2.2402,-2.2927,-2.3372,-2.3075,-2.3224,-2.3224,-2.2553,-2.2101,-2.1949,-2.2252,-2.2035,0.0,-2.1807,-2.1807,-2.1807,-2.1807,0.0,0.0,-2.2702,-2.2012,-2.1666,-2.1991,-2.177,-2.1625,-2.1512,-2.1488,-2.1488,-2.1488,-2.1488,-2.1957,-2.2895,-2.2955,-2.3256,-2.3737,-2.233,-2.2173,0.0,0.0,0.0,0.0,0.0,0.0,0.0,0.0,0.0,0.0,0.0,0.0,0.0,0.0,0.0,-1.897,-1.9531,-1.9812,-1.8867,-1.9082,-1.9563,-2.0192,-2.0292,-2.0446,-2.084,-2.113,-2.1742,-2.2726,-2.3046,-2.3519,-2.4134,-2.3767,-2.3584,-2.3657,-2.3272,-2.3107,-2.318,-2.3372,-2.3401,-2.318,0.0,0.0,-2.3135,-2.3406,-2.359,-2.359,-2.4024,-2.4292,-2.4282,-2.4361,-2.4882,-2.5644,-2.5728,-2.5986,-2.6188,-2.5531,-2.5267,-2.4997,-2.3425,-2.2852,-2.2852,-2.2478,-2.2101,-2.1883,-2.2252,-2.2101,0.0,-2.2263,-2.2097,-2.189,-2.2263,-2.2087,-2.1807,-2.1807,-2.1883,-2.2025,-2.2327,-2.2553,-2.2703,-2.2927,-2.2777,-2.2553,-2.2402,-2.2327,-2.2176,-2.1959,-2.1883,-2.1807,-2.1807,-2.1807,-2.1807,-2.1807,-2.1807,-2.1728,-2.1502,-2.146,-2.1523,-2.1442,-2.1865,-2.2075,-2.2041,-2.2041,-2.2041,-2.2041,-2.2041,-2.2137,-2.2342,-2.2775,-2.3256,-2.3761,-2.346,-2.3424,0.0,0.0,0.0,0.0,0.0,0.0,0.0,0.0,0.0,0.0,0.0,-2.2022,-2.2572,0.0,-2.1627,-1.9852,-2.021,-2.0231,-1.898,-1.9279,-1.9737,-2.0201,-2.0292,-2.0369,-2.0566,-2.1032,-2.1301,-2.1466,-2.254,-2.3143,-2.3126,-2.3166,-2.324,-2.3538,-2.2951,-2.274,-2.2857,-2.301,-2.2981,-2.3038,-2.3028,-2.3084,-2.3144,-2.3406,-2.3503,-2.3503,-2.4034,-2.4206,-2.4206,-2.4464,-2.4745,-2.5214,-2.5462,-2.5898,-2.6381,-2.5615,-2.5161,-2.483,-2.3477,-2.3001,-2.3001,-2.2777,-2.2402,-2.2176,-2.2553,-2.2252,-2.1859,-2.2087,-2.1983,-2.1859,-2.2087,-2.1983,-2.1807,-2.1807,-2.1807,-2.1883,-2.2327,-2.2553,-2.2777,-2.2927,-2.2852,-2.2628,-2.2402,-2.2252,-2.2035,-2.1807,-2.1807,-2.1807,-2.1807,-2.1807,-2.1807,-2.1807,-2.1807,-2.1621,-2.1155,-2.1052,-2.1105,-2.1449,-2.1666,-2.1925,-2.2197,-2.2197,-2.2197,-2.2197,-2.2197,-2.245,-2.2979,-2.3244,-2.3785,-2.4542,-2.4542,-2.4542,0.0,0.0,0.0,0.0,0.0,0.0,0.0,-2.4498,-2.4926,-2.4943,-2.4291,-2.3824,-2.4165,-2.3886,-2.2857,-2.0541,-2.0709,-2.0637,-1.9004,-1.9371,-1.9828,-2.0011,-2.0201,-2.0201,-2.0011,-2.0474,-2.0568,-1.9862,-2.1456,-2.2231,-2.1735,-2.224,-2.2673,-2.3012,-2.2501,-2.2373,-2.2619,-2.2566,-2.2662,-2.2924,-2.277,-2.2882,-2.3144,-2.3319,-2.3416,-2.3406,-2.3937,-2.4196,-2.4292,-2.454,-2.4651,-2.4668,-2.5135,-2.581,-2.6257,-2.5324,-2.4698,-2.4247,-2.3307,-2.3003,-2.3001,-2.2927,-2.2628,-2.2478,-2.2777,-2.2402,-2.1807,-2.1807,-2.1807,-2.1807,-2.1807,-2.1807,-2.1807,-2.1807,-2.1807,-2.1949,-2.2402,-2.2777,-2.3001,-2.3001,-2.3001,-2.2852,-2.2402,-2.2025,-2.1807,-2.1807,-2.1807,-2.1807,-2.1807,-2.1807,-2.1807,-2.1807,-2.1807,-2.1655,-2.124,-2.0759,-2.0841,-2.1577,-2.1577,-2.1726,-2.2185,-2.2294,-2.2342,-2.2342,-2.245,-2.2919,-2.3773,-2.3869,-2.4338,-2.5155,-2.5264,-2.5312,-2.6255,-2.6514,-2.6626,-2.6903,-2.7057,-2.7195,0.0,-2.6936,-2.6454,-2.6432,-2.5315,-2.4458,-2.4843,-2.3937,-2.2532,-2.0494,-2.0988,-2.0916,-1.9104,-1.9654,-1.992,-1.9072,-1.9729,-1.992,-1.9072,-1.9212,-1.9265,-1.8783,-1.9469,-1.9989,-2.0192,-2.1029,-2.1354,-2.1164,-2.1572,-2.1823,-2.1869,-2.1823,-2.2063,-2.2508,-2.246,-2.2706,-2.3135,-2.3135,-2.3144,-2.3135,-2.3667,-2.41,-2.454,-2.4946,-2.5084,-2.521,-2.5622,-2.5863,-2.592,-2.5267,-2.4785,-2.4268,-2.3423,-2.3058,-2.2927,-2.2553,-2.2402,-2.2402,-2.2478,-2.2176,-2.1807,-2.1807,-2.1807,-2.1807,-2.1807,-2.1807,-2.1807,-2.1807,-2.1807,-2.2025,-2.2777,-2.3001,-2.3001,-2.3001,-2.3001,-2.2777,-2.2035,-2.1807,-2.1807,-2.1807,-2.1807,-2.1807,-2.1807,-2.1807,-2.1807,-2.1807,-2.1807,-2.168,-2.1501,-2.0952,-2.0873,-2.1565,-2.1913,-2.2123,-2.2197,-2.2642,-2.2895,-2.2895,-2.3352,-2.3652,-2.3773,-2.4218,-2.4494,-2.4626,-2.5083,-2.5312,-2.7801,-2.7672,-2.7408,-2.8059,-2.8618,-2.8843,-2.7935,-2.8033,-2.808,-2.7157,-2.6318,-2.5595,-2.5092,-2.3893,-2.2454,-2.0494,-2.0628,-2.0374,-1.9012,-1.918,-1.9255,-1.888,-1.8696,-1.8411,-1.7948,-1.8326,-1.8202,-1.7501,-1.8663,-1.9239,-1.8766,-1.9718,-2.0412,-2.0848,-2.0928,-2.1177,-2.1731,-2.1741,-2.1909,-2.2274,-2.2353,-2.2618,-2.2969,-2.3057,-2.3232,-2.3319,-2.3667,-2.4013,-2.4368,-2.4615,-2.4786,-2.4786,-2.5052,-2.4978,-2.4796,-2.4984,-2.4664,-2.3949,-2.3342,-2.3025,-2.2927,-2.2553,-2.2553,-2.2703,-2.2478,-2.2101,-2.1807,-2.1807,-2.1807,-2.1807,-2.1807,-2.1807,-2.1807,-2.1807,-2.1807,-2.2025,-2.2852,-2.3001,-2.3001,-2.3001,-2.3001,-2.2777,-2.1959,-2.1807,-2.1807,-2.1807,-2.1807,-2.1807,-2.1807,-2.1807,-2.1807,-2.1807,-2.1569,-2.1219,-2.0778,-2.1005,-2.1068,-2.088,-2.1776,-2.2309,-2.2197,-2.2702,-2.2979,-2.2979,-2.3508,-2.3917,-2.4206,-2.441,-2.4675,-2.4987,-2.5204,-2.5312,-2.8747,-2.8722,-2.8591,-2.8896,-2.9639,-2.9763,-2.8054,-2.832,-2.8587,-2.7271,-2.6577,-2.596,-2.5128,-2.376,-2.2233,-2.0616,-2.0412,-1.9979,-1.8683,-1.8769,-1.8753,-1.8186,-1.7435,-1.6897,-1.6703,-1.7218,-1.7217,-1.6305,-1.7604,-1.8221,-1.7383,-1.8411,-1.9272,-1.9934,-2.0129,-2.0619,-2.1275,-2.1553,-2.183,-2.2097,-2.2264,-2.2451,-2.2803,-2.2969,-2.3232,-2.3503,-2.3667,-2.3937,-2.4206,-2.4378,-2.4454,-2.454,-2.454,-2.4343,-2.4137,-2.469,-2.4303,-2.3393,-2.3065,-2.2873,-2.2777,-2.2402,-2.2478,-2.2777,-2.2327,-2.2035,-2.1807,-2.1807,-2.1807,-2.1807,-2.1807,-2.1807,-2.1807,-2.1807,-2.1807,-2.2025,-2.2852,-2.3001,-2.3001,-2.3001,-2.3001,-2.2777,-2.1959,-2.1807,-2.1807,-2.1807,-2.1807,-2.1807,-2.1807,-2.1807,-2.1807,-2.1807,-2.1319,-2.0792,-2.0278,-2.078,-2.0964,-2.0464,-2.1451,-2.2099,-2.2197,-2.2702,-2.3051,-2.3195,-2.3713,-2.423,-2.4735,-2.4735,-2.4939,-2.5312,-2.5312,-2.5312,-2.8682,-2.9447,-3.0402,-2.9419,-2.9595,-2.9593,-2.8082,-2.7706,-2.7533,-2.6646,-2.5676,-2.5043,-2.4996,-2.3504,-2.191,-2.0845,-2.0704,-2.0058,-1.8082,-1.875,-1.8647,-1.6531,-1.6246,-1.5967,0.0,-1.6062,-1.6211,-1.5178,-1.5919,-1.6242,-1.5858,-1.7163,-1.7669,-1.7448,-1.9255,-2.0339,-2.0339,-2.1266,-2.183,-2.2097,-2.2097,-2.2362,-2.2803,-2.2969,-2.3232,-2.3503,-2.3503,-2.3764,-2.4206,-2.4206,-2.4292,-2.454,-2.454,-2.4444,-2.4519,-2.4519,-2.367,-2.2522,-2.2501,-2.2499,-2.2327,-2.1959,-2.2111,-2.2327,-2.1959,-2.1807,-2.1807,-2.1807,-2.1807,-2.1807,-2.1807,-2.1807,-2.1807,-2.1807,-2.1807,-2.2025,-2.2852,-2.3001,-2.3001,-2.3001,-2.3001,-2.2777,-2.1959,-2.1807,-2.1807,-2.1807,-2.1807,-2.1807,-2.1807,-2.1807,-2.1807,-2.1807,-2.1169,-2.0645,-2.0206,-2.0076,-2.014,-2.0388,-2.088,-2.1463,-2.2185,-2.2702,-2.322,-2.3737,-2.4242,-2.4759,-2.5288,-2.5288,-2.5288,-2.5312,-2.5312,-2.5312,-2.9516,-2.9822,-2.9955,-3.0113,-3.0084,-2.9775,-2.8926,-2.8211,-2.7423,-2.6419,-2.6089,-2.5515,-2.4164,-2.2909,-2.1674,-2.0179,-1.9281,-1.8464,-1.7808,-1.7595,-1.7232,-1.6547,-1.5863,-1.5407,0.0,0.0,0.0,-1.5356,-1.575,-1.5939,-1.5832,-1.6205,-1.6686,-1.7239,-1.7971,-1.8611,-1.9338,-1.9621,-1.9803,-1.9894,-2.0701,-2.1704,-2.2803,-2.2882,-2.3057,-2.3232,-2.3416,-2.359,-2.3764,-2.4024,-2.4206,-2.4282,-2.4454,-2.4364,-2.4105,-2.4105,-2.3619,-2.2998,-2.3308,-2.3144,-2.2794,-2.2418,-2.2363,-2.2327,-2.1959,-2.1807,-2.1807,-2.1807,-2.1807,-2.1807,-2.1807,-2.1807,-2.1807,-2.1807,-2.1807,-2.2025,-2.2852,-2.3001,-2.3001,-2.3001,-2.3001,-2.2777,-2.1959,-2.1807,-2.1807,-2.1807,-2.1807,-2.1807,-2.1807,-2.1807,-2.1807,-2.1807,-2.1445,-2.1029,-2.0518,-2.038,-2.0461,-2.0587,-2.0921,-2.1463,-2.2185,-2.2702,-2.3232,-2.3761,-2.4266,-2.4783,-2.5312,-2.5312,-2.5312,-2.5312,-2.5312,-2.5312,-3.0046,-3.0203,-3.0135,-3.0202,-2.9956,-2.9515,-2.8815,-2.7992,-2.7074,-2.6049,-2.564,-2.5,-2.3548,-2.2033,-2.0764,-1.9875,-1.8753,-1.7845,-1.7379,-1.7158,-1.6847,-1.6246,-1.5648,-1.5282,-1.5378,-1.5462,0.0,-1.5503,-1.5809,-1.5939,-1.5838,-1.5832,-1.6109,-1.6763,-1.7138,-1.7606,-1.8241,-1.8603,-1.8788,-1.8788,-1.9687,-2.0782,-2.2059,-2.2148,-2.2422,-2.2969,-2.3154,-2.324,-2.3275,-2.3619,-2.3791,-2.3876,-2.4047,-2.405,-2.4031,-2.4115,-2.3929,-2.367,-2.3639,-2.3398,-2.3103,-2.2631,-2.2449,-2.2321,-2.1935,-2.1807,-2.1807,-2.1807,-2.1807,-2.1807,-2.1807,-2.1807,-2.1807,-2.1807,-2.1807,-2.2025,-2.2852,-2.2852,-2.2852,-2.3001,-2.2852,-2.2553,-2.1873,-2.1807,-2.1807,-2.1807,-2.1807,-2.1807,-2.1807,-2.1807,-2.1807,-2.1807,-2.1578,-2.1187,-2.0676,-2.047,-2.044,-2.0704,-2.1008,-2.1594,-2.2474,-2.2979,-2.3508,-2.4025,-2.4362,-2.4783,-2.5312,-2.5312,-2.5312,-2.5312,-2.5312,-2.5312,-3.0241,-3.0609,-3.0935,-2.9897,-2.9393,-2.8826,-2.7819,-2.7144,-2.6454,-2.5509,-2.4516,-2.3655,-2.3255,-2.0938,-1.9263,-1.986,-1.9183,-1.8052,-1.6787,-1.7374,-1.7353,-1.5725,-1.5517,-1.5509,-1.5761,-1.5518,-1.54,-1.5436,0.0,-1.6126,-1.5845,-1.5825,-1.5832,-1.5737,-1.6669,-1.7239,-1.7239,-1.8149,-1.8696,-1.8696,-1.8964,-1.9497,-2.0503,-2.0773,-2.1596,-2.2706,-2.2706,-2.2737,-2.2774,-2.2774,-2.2934,-2.3072,-2.3345,-2.3788,-2.4166,-2.4358,-2.4454,-2.433,-2.3557,-2.3236,-2.3153,-2.2708,-2.2532,-2.2418,-2.1973,-2.1828,-2.1807,-2.1807,-2.1807,-2.1807,-2.1807,-2.1807,-2.1807,-2.1807,-2.1807,-2.2025,-2.2777,-2.2703,-2.2478,-2.2927,-2.2628,-2.2252,-2.1883,-2.1807,-2.1807,-2.1807,-2.1807,-2.1807,-2.1807,-2.1807,-2.1807,-2.1807,-2.1425,-2.1044,-2.0632,-2.0242,-2.0202,-2.0654,-2.1275,-2.2004,-2.2975,-2.3508,-2.4013,-2.4506,-2.4518,-2.4783,-2.5312,-2.5312,-2.5312,-2.5312,-2.5312,-2.5312,-3.0492,-3.0716,-3.0773,-3.0468,-2.975,-2.9028,-2.8764,-2.765,-2.6433,-2.5368,-2.4432,-2.3313,-2.1868,-2.0361,-1.9141,-1.8295,-1.7537,-1.6887,-1.6177,-1.6241,-1.6312,-1.5895,-1.5039,-1.4534,-1.4595,-1.3884,-1.3599,0.0,-1.5102,-1.5714,-1.5547,-1.5737,-1.573,-1.554,-1.5825,-1.592,-1.592,-1.6386,-1.6943,-1.7692,-1.7692,-1.8319,-1.9497,-1.9588,-2.0223,-2.1418,-2.0881,-2.0935,-2.1453,-2.1712,-2.1693,-2.1614,-2.2794,-2.3342,-2.3483,-2.3816,-2.41,-2.4251,-2.4026,-2.3813,-2.3681,-2.3567,-2.306,-2.247,-2.2356,-2.2087,-2.1807,-2.1807,-2.1807,-2.1807,-2.1807,-2.1807,-2.1807,-2.1807,-2.1807,-2.1959,-2.2478,-2.2478,-2.2402,-2.2553,-2.2252,-2.1959,-2.1807,-2.1807,-2.1807,-2.1807,-2.1807,-2.1807,-2.1807,-2.1807,-2.1731,-2.1578,-2.1359,-2.1088,-2.0834,-2.0777,-2.0833,-2.0896,-2.1856,-2.2502,-2.2669,-2.3411,-2.4013,-2.4506,-2.4518,-2.4783,-2.5312,-2.5312,-2.5312,-2.5312,-2.5312,-2.5312,-3.0377,-3.0551,-3.0609,-3.0258,-2.9617,-2.8982,-2.8528,-2.75,-2.6336,-2.5078,-2.3824,-2.2486,-2.0875,-1.9144,-1.7688,-1.6947,-1.6542,-1.6101,-1.5692,-1.5959,-1.6205,-1.5891,-1.4922,-1.4169,-1.4169,-1.2997,-1.2437,-1.2833,-1.4185,-1.5082,-1.5267,-1.5547,-1.5547,-1.5356,-1.5356,-1.5356,-1.5356,-1.5547,-1.592,-1.648,-1.6581,-1.7225,-1.8319,-1.8319,-1.8956,-2.0133,0.0,-1.9762,-1.9964,-2.03,-2.0251,-2.0232,-2.1043,-2.1655,-2.2149,-2.2726,-2.3132,-2.3484,-2.4024,-2.4129,-2.4062,-2.3939,-2.3525,-2.307,-2.2863,-2.248,-2.2108,-2.2108,-2.1963,-2.1807,-2.1807,-2.1807,-2.1807,-2.1807,-2.1807,-2.1883,-2.2327,-2.2252,-2.2111,-2.2111,-2.1959,-2.1807,-2.1807,-2.1807,-2.1807,-2.1807,-2.1807,-2.1807,-2.1807,-2.1731,-2.1655,-2.1502,-2.1205,-2.0984,-2.0906,-2.0877,-2.0927,-2.102,-2.2182,-2.284,-2.2983,-2.3893,-2.4578,-2.4867,-2.4867,-2.5011,-2.5312,-2.5312,-2.5312,-2.5312,-2.5312,-2.5312,-3.0103,-3.0274,-3.0384,-2.9738,-2.9257,-2.8717,-2.772,-2.7041,-2.6162,-2.4526,-2.2902,-2.1381,-2.0023,-1.775,-1.6043,-1.5885,-1.5793,-1.5633,-1.5398,-1.6062,-1.6268,-1.5779,-1.4702,-1.3938,-1.3691,-1.2341,-1.1371,-1.155,-1.2857,-1.4021,-1.4796,-1.5261,-1.5356,-1.5083,-1.5083,-1.5083,-1.5083,-1.5261,-1.5452,-1.5452,-1.5642,-1.6204,-1.7044,-1.7044,-1.7777,-1.8864,0.0,0.0,-1.8432,-1.8726,-1.876,-1.8769,-1.8906,-1.9521,-2.0499,-2.1355,-2.1823,-2.2221,-2.3394,-2.3806,-2.3886,-2.3969,-2.3888,-2.3712,-2.3308,-2.2822,-2.2408,-2.2408,-2.2118,-2.1807,-2.1807,-2.1807,-2.1807,-2.1807,-2.1807,-2.1883,-2.2252,-2.2035,-2.1807,-2.1807,-2.1807,-2.1807,-2.1807,-2.1807,-2.1807,-2.1807,-2.1807,-2.1807,-2.1731,-2.1578,-2.1512,-2.1425,-2.1128,-2.0906,-2.0829,-2.0809,-2.0775,-2.091,-2.2211,-2.3139,-2.337,-2.4484,-2.5158,-2.5312,-2.5312,-2.5312,-2.5312,-2.5312,-2.5312,-2.5312,-2.5312,-2.5312,-3.0326,-3.0097,-2.9689,-2.9908,-2.9225,-2.8288,-2.762,-2.6776,-2.5493,-2.3221,-2.2006,-2.0606,-1.8269,-1.7356,-1.6549,-1.5113,-1.5166,-1.5291,-1.4924,-1.5192,-1.5112,-1.4572,-1.3398,-1.2351,-1.1224,-0.9848,-0.9357,-1.0141,-1.0549,-1.1497,-1.3318,-1.4586,-1.5077,-1.479,-1.479,-1.479,-1.479,-1.5077,-1.5178,-1.5172,-1.5452,-1.5635,-1.5825,-1.6015,-1.6669,-1.7584,0.0,0.0,-1.7121,-1.7274,-1.7159,-1.6996,-1.8203,-1.8946,-1.9428,-1.9939,-2.0333,-2.064,-2.1537,-2.192,-2.2325,-2.3849,-2.3919,-2.3298,-2.3215,-2.2594,-2.1921,-2.1921,-2.1869,-2.1807,-2.1807,-2.1807,-2.1807,-2.1807,-2.1807,-2.1807,-2.1883,-2.1883,-2.1807,-2.1807,-2.1807,-2.1807,-2.1807,-2.1807,-2.1807,-2.1807,-2.1807,-2.1731,-2.1578,-2.1512,-2.1436,-2.1282,-2.1061,-2.0819,-2.0654,-2.1242,-2.1354,-2.0681,-2.2167,-2.2988,-2.3058,-2.3857,-2.4636,-2.5312,-2.5312,-2.5312,-2.5312,-2.5182,-2.5182,-2.5312,-2.5182,-2.5182,-2.9512,-2.9422,-2.9166,-2.912,-2.867,-2.7917,-2.6576,-2.5901,-2.4815,-2.2226,-2.0911,-1.9489,-1.7338,-1.6243,-1.5257,-1.3851,-1.4059,-1.4254,-1.4066,-1.4065,-1.3964,-1.3906,-1.2435,-1.1151,-1.0531,-0.9238,-0.8546,-0.898,-0.9514,-1.0681,-1.2829,-1.4004,-1.4592,-1.4496,-1.449,-1.449,-1.449,-1.479,-1.4885,-1.4885,-1.5172,-1.5356,-1.554,-1.5635,-1.5934,-1.6337,-1.5927,0.0,-1.585,-1.595,-1.5967,-1.6017,-1.6745,-1.7266,-1.7763,-1.8534,-1.8854,-1.902,-2.0066,-2.0537,-2.0773,-2.1778,-2.2828,-2.3546,-2.3546,-2.307,-2.247,-2.2232,-2.1994,-2.1807,-2.1807,-2.1807,-2.1807,-2.1807,-2.1807,-2.1807,-2.1807,-2.1807,-2.1807,-2.1807,-2.1807,-2.1807,-2.1807,-2.1807,-2.1731,-2.1655,-2.1655,-2.1578,-2.1359,-2.1282,-2.1128,-2.1061,-2.0896,-2.0731,-2.0644,-2.0934,-2.1021,-2.0644,-2.2134,-2.3032,-2.3032,-2.4131,-2.4933,-2.5312,-2.5312,-2.5241,-2.5182,-2.5111,-2.5052,-2.5052,-2.4992,-2.4992,-2.8701,-2.8701,-2.8574,-2.8301,-2.8076,-2.747,-2.5521,-2.4772,-2.3819,-2.1358,-1.9749,-1.8265,-1.6513,-1.5209,-1.4024,-1.2984,-1.3015,-1.3326,-1.3428,-1.3063,-1.2853,-1.3103,-1.1545,-1.0277,-0.9993,-0.892,-0.8255,-0.8225,-0.9099,0.0,-1.263,-1.3511,-1.41,-1.4298,-1.4298,-1.4298,-1.4298,-1.4496,-1.4592,-1.4592,-1.4885,-1.5077,-1.535,-1.538,-1.5324,-1.5292,-1.5454,0.0,0.0,-1.496,-1.519,-1.5369,-1.5376,-1.5734,-1.6352,-1.7029,-1.7376,-1.7541,-1.8727,-1.9091,-1.9115,-1.9623,-2.1313,-2.3154,-2.3154,-2.3012,-2.2742,-2.2371,-2.2087,-2.1807,-2.1807,-2.1807,-2.1807,-2.1807,-2.1807,-2.1807,-2.1807,-2.1807,-2.1807,-2.1807,-2.1807,-2.1731,-2.1807,-2.1731,-2.1655,-2.1512,-2.1425,-2.1359,-2.1138,-2.0984,-2.0906,-2.0829,-2.0654,-2.0566,-2.0566,-2.0566,-2.0566,-2.0566,-2.1766,-2.2585,-2.2734,-2.4059,-2.4862,-2.5004,-2.517,-2.5182,-2.5123,-2.4981,-2.4921,-2.479,-2.479,-2.479,-2.8795,-2.8431,-2.781,-2.8207,-2.7565,-2.6534,-2.537,-2.3806,-2.2128,-2.0278,-1.866,-1.712,-1.5604,-1.4684,-1.3928,-1.2952,-1.2765,-1.2869,-1.3177,-1.2661,-1.1906,-1.1327,-1.0522,-0.9538,-0.822,-0.8282,-0.8211,-0.8072,-0.9031,0.0,-1.263,-1.2829,-1.3318,-1.4298,-1.4298,-1.4298,-1.4298,-1.4298,-1.4298,-1.4298,-1.4592,-1.4783,-1.4777,-1.4991,-1.5041,-1.4989,0.0,0.0,0.0,-1.447,-1.4523,-1.4523,-1.4692,-1.5149,-1.5691,-1.5778,-1.595,-1.6208,-1.7109,-1.7298,-1.7474,-1.8733,-1.9943,-2.0895,-2.0895,-2.1253,-2.1624,-2.1584,-2.1686,-2.1807,-2.1807,-2.1807,-2.1807,-2.1807,-2.1807,-2.1807,-2.1807,-2.1807,-2.1807,-2.1807,-2.1655,-2.1578,-2.1807,-2.1502,-2.1282,-2.1512,-2.1359,-2.1128,-2.0984,-2.0906,-2.0819,-2.0644,-2.0644,-2.0566,-2.0566,-2.0566,-2.0566,-2.0566,-2.0722,-2.1165,-2.1918,-2.2723,-2.3537,-2.4192,-2.4802,-2.5111,-2.5123,-2.4706,-2.4646,-2.479,-2.4646,-2.4646,-2.7399,-2.7108,-2.6741,-2.7646,-2.7014,-2.5907,-2.4637,-2.3393,-2.1794,-1.9542,-1.7841,-1.6419,-1.5409,-1.4141,-1.3113,-1.2622,-1.224,-1.2118,-1.2494,-1.1347,-1.0531,-1.0565,-0.9323,-0.8284,-0.776,-0.7674,-0.7701,-0.7749,-0.8137,0.0,-1.0485,-1.195,-1.2926,-1.3318,-1.3998,-1.4298,-1.4298,-1.4298,-1.4298,-1.4292,-1.4236,-1.4257,-1.444,-1.4345,-1.4307,-1.4308,0.0,0.0,0.0,-1.4122,-1.4321,-1.4419,-1.4682,-1.4893,-1.512,-1.549,-1.5533,-1.5452,-1.5943,-1.6095,-1.6162,-1.6625,-1.7483,-1.8571,-2.0121,-2.0816,-2.1194,-2.142,-2.1655,-2.1807,-2.1807,-2.1807,-2.1807,-2.1807,-2.1807,-2.1807,-2.1807,-2.1807,-2.1731,-2.1655,-2.1578,-2.1512,-2.1436,-2.1282,-2.1205,-2.1138,-2.1061,-2.0974,-2.0741,-2.0731,-2.0654,-2.0644,-2.0566,-2.0566,-2.0566,-2.0566,-2.0566,-2.0566,-2.1011,-2.1385,-2.1614,-2.2349,-2.2861,-2.2999,-2.3305,-2.361,-2.3998,-2.3863,-2.4032,-2.4418,-2.4345,-2.4345,-2.6215,-2.6122,-2.6046,-2.7069,-2.651,-2.5269,-2.399,-2.2757,-2.1162,-1.8616,-1.6897,-1.5649,-1.4982,-1.3462,-1.2241,-1.227,-1.1766,-1.1517,-1.1918,-1.0561,-0.9608,-0.9967,-0.8431,-0.7328,-0.7289,-0.7196,-0.7238,-0.7444,0.0,0.0,-0.8524,-1.0427,-1.1783,-1.2533,-1.3619,-1.4202,-1.4298,-1.4124,-1.4082,-1.4177,-1.3918,-1.3884,-1.4069,-1.3882,-1.3735,-1.3711,0.0,0.0,0.0,-1.3913,-1.4075,-1.4341,-1.4552,-1.4675,-1.4678,-1.5078,-1.5191,-1.509,-1.5264,-1.5347,-1.5431,-1.5431,-1.5831,-1.6754,-1.8786,-1.9928,-2.0601,-2.0868,-2.1339,-2.1731,-2.1655,-2.1731,-2.1807,-2.1655,-2.1655,-2.1655,-2.1655,-2.1655,-2.1578,-2.1436,-2.1359,-2.1282,-2.1205,-2.1128,-2.0974,-2.0906,-2.0829,-2.0741,-2.0644,-2.0566,-2.0566,-2.0566,-2.0566,-2.0566,-2.0566,-2.0566,-2.0566,-2.0566,-2.1088,-2.1318,-2.1165,-2.1821,-2.2103,-2.1952,-2.2103,-2.2403,-2.2947,-2.2883,-2.3032,-2.3508,-2.374,-2.397,-2.5591,-2.5783,-2.5937,-2.6554,-2.5877,-2.4723,-2.3592,-2.1874,-1.9849,-1.7295,-1.579,-1.476,-1.4194,-1.2659,-1.1571,-1.1999,-1.1474,-1.1149,-1.1634,-1.0405,-0.9501,-0.9608,-0.8066,-0.6986,-0.6859,-0.7042,-0.7238,-0.7238,0.0,0.0,-0.7238,-0.808,-0.9803,-1.2231,-1.3335,-1.4022,-1.4298,-1.375,-1.3625,-1.3906,-1.3646,-1.3519,-1.3507,-1.3502,-1.3461,0.0,0.0,0.0,0.0,-1.3737,-1.3828,-1.4088,-1.4095,-1.4243,-1.4398,-1.4398,-1.4741,-1.509,-1.509,-1.5257,-1.5431,-1.5431,-1.5431,-1.559,-1.6468,-1.8078,-1.9599,-1.9599,-2.0557,-2.1436,-2.1282,-2.1502,-2.1731,-2.1282,-2.1359,-2.1425,-2.1282,-2.1215,-2.1215,-2.1205,-2.1061,-2.0984,-2.1205,-2.0886,-2.0644,-2.0906,-2.0731,-2.0566,-2.0566,-2.0566,-2.0566,-2.0566,-2.0566,-2.0566,-2.0566,-2.0566,-2.0566,-2.0566,-2.042,-2.0342,-2.0342,-2.0847,-2.1135,-2.1135,-2.1735,-2.2038,-2.2027,-2.1897,-2.1842,-2.1832,-2.2617,-2.3446,-2.3651,-2.3416,-2.3185,-2.4128,-2.3347,-2.2115,-2.1371,-2.038,-1.91,-1.6974,-1.5631,-1.4689,-1.4049,-1.2512,-1.162,-1.2265,-1.1623,-1.1209,-1.1849,-1.0368,-0.9316,-0.9316,-0.7707,-0.6581,-0.6542,0.0,-0.6739,0.0,0.0,0.0,-0.6813,-0.7928,-0.9268,-1.0669,-1.1675,-1.2543,-1.3298,-1.3118,-1.3176,-1.3451,-1.2919,-1.2892,-1.3236,-1.2871,0.0,0.0,0.0,0.0,0.0,-1.3568,-1.3737,-1.3822,-1.4004,-1.4166,-1.4243,-1.4314,-1.4482,-1.4657,-1.4741,-1.4999,-1.5173,-1.5173,-1.5264,-1.5423,-1.5748,-1.678,-1.8132,-1.9423,-2.0547,-2.1282,-2.1205,-2.1282,-2.1359,-2.1205,-2.1282,-2.1282,-2.1205,-2.1205,-2.1138,-2.0984,-2.0906,-2.0906,-2.0809,-2.0644,-2.0644,-2.0654,-2.0644,-2.0566,-2.0566,-2.0566,-2.0566,-2.0566,-2.0566,-2.0566,-2.0566,-2.0489,-2.042,-2.042,-2.0177,-1.9951,-1.9794,-2.002,-2.001,-1.9835,-2.006,-2.045,-2.0981,-2.0914,-2.1231,-2.1842,-2.2069,-2.2295,-2.1578,-2.1498,-2.1325,-2.2313,-2.1708,-2.0695,-2.0139,-1.9322,-1.8068,-1.6165,-1.4977,-1.4186,-1.347,-1.207,-1.1274,-1.1769,-1.1131,-1.081,-1.1515,-1.0473,-0.9473,-0.8832,-0.7372,-0.6437,0.0,-0.6437,-0.642,0.0,0.0,0.0,0.0,-0.7193,-0.8012,-0.8945,-1.0482,-1.1569,-1.2312,-1.2411,-1.2643,-1.2913,-1.248,-1.2447,-1.2871,-1.2525,0.0,0.0,0.0,0.0,0.0,-1.3398,-1.3568,-1.3737,-1.3906,-1.3997,-1.4088,-1.4243,-1.4314,-1.4391,-1.4566,-1.4741,-1.4915,-1.4915,-1.5082,-1.5257,-1.5347,-1.6139,-1.7253,-1.9186,-2.0157,-2.0644,-2.0886,-2.1128,-2.1128,-2.1051,-2.1051,-2.1051,-2.0974,-2.0964,-2.0974,-2.0819,-2.0819,-2.0741,-2.0644,-2.0566,-2.0566,-2.0566,-2.0566,-2.0566,-2.0566,-2.0566,-2.0498,-2.0498,-2.0411,-2.0333,-2.0333,-2.0333,-2.0264,-2.0186,-1.9951,-1.9715,-1.9645,-1.9557,-1.939,-1.9301,-1.9301,-1.9539,-2.0079,-2.0079,-2.0459,-2.1298,-2.1298,-2.1451,0.0,-1.9867,-2.0149,-2.0984,-2.0686,-2.0043,-1.9476,-1.8315,0.0,-1.4952,-1.3962,-1.3324,-1.27,-1.1422,-1.0617,-1.0837,-1.0379,-1.0181,-1.0733,-1.0538,-0.9806,-0.8283,-0.703,-0.6437,-0.6437,-0.6429,0.0,0.0,0.0,0.0,0.0,-0.5964,-0.6262,-0.7154,-0.9487,-1.0876,-1.1334,-1.1679,-1.2026,-1.238,-1.2065,-1.2118,-1.2363,-1.2363,0.0,0.0,0.0,0.0,0.0,-1.3052,-1.3307,-1.3652,-1.3652,-1.3828,-1.4088,-1.4088,-1.4243,-1.4398,-1.4398,-1.4482,-1.465,-1.4734,-1.4908,-1.509,-1.5257,-1.5982,-1.7025,-1.8647,-1.9292,-1.9678,-2.0323,-2.0809,-2.1051,-2.0722,-2.0731,-2.0819,-2.0644,-2.0566,-2.0566,-2.0566,-2.0566,-2.0566,-2.0566,-2.0566,-2.0566,-2.0566,-2.0566,-2.0566,-2.0566,-2.042,-2.0264,-2.0264,-2.0029,-1.9863,-1.9863,-2.0108,-2.0108,-1.9863,-1.9715,-1.9566,-1.9566,-1.939,-1.9301,-1.9301,-1.9301,-1.9301,-1.9301,-1.9301,-1.9687,-2.0382,-2.0382,-2.0847,-1.591,0.0,-1.7991,-1.8643,-1.8112,-1.7277,0.0,-1.6232,-1.5397,-1.403,-1.3608,-1.3323,-1.2825,-1.1552,-1.0764,-1.1529,-1.0752,-1.0353,-1.1313,-1.0491,-0.9514,-0.8711,-0.7332,-0.6537,-0.6936,-0.6555,0.0,0.0,0.0,0.0,0.0,-0.5918,-0.5954,-0.6042,-0.7313,-0.875,-1.0264,-1.0392,-1.0901,-1.1869,-1.1554,-1.1693,-1.2123,-1.2123,0.0,0.0,0.0,0.0,-1.279,-1.3052,-1.3222,-1.3483,-1.3652,-1.3828,-1.4088,-1.4088,-1.4166,-1.4166,-1.4166,-1.4328,-1.4482,-1.465,-1.4734,-1.4824,-1.4824,-1.565,-1.6632,-1.7188,-1.8149,-1.9204,-1.9529,-2.0167,-2.0722,-2.0644,-2.0644,-2.0654,-2.0644,-2.0566,-2.0566,-2.0566,-2.0566,-2.0566,-2.0566,-2.0566,-2.0566,-2.0566,-2.0498,-2.0342,-2.0342,-2.0177,-2.002,-2.002,-1.9942,-1.9863,-1.9715,-1.9715,-1.9724,-1.9636,-1.9469,-1.939,-1.939,-1.9301,-1.9301,-1.9301,-1.9301,-1.9301,-1.9301,-1.9301,-1.9381,-1.9608,-1.9608,-1.9687,-1.4366,-1.5646,-1.6779,-1.6967,-1.666,-1.6302,-1.5765,-1.499,-1.4263,-1.3645,-1.3244,-1.2788,-1.213,-1.1076,-1.0433,-1.0642,-1.0076,-1.0084,-1.1169,-1.0277,-0.9312,-0.8718,-0.7431,-0.6639,0.0,0.0,0.0,0.0,0.0,0.0,0.0,-0.5825,-0.5798,-0.5735,-0.6171,-0.7139,-0.8632,-0.9069,-0.9772,-1.0906,-1.0738,-1.1084,-1.1871,-1.1871,0.0,0.0,0.0,0.0,-1.2705,-1.2875,-1.3052,-1.3307,-1.3398,-1.3652,-1.3913,-1.3913,-1.3997,-1.4088,-1.4088,-1.4166,-1.4328,-1.4482,-1.4566,-1.4566,-1.465,-1.5061,-1.5643,-1.6206,-1.7334,-1.847,-1.8886,-1.9696,-2.0489,-2.0489,-2.0333,-2.0333,-2.0566,-2.0411,-2.0333,-2.0411,-2.0333,-2.0255,-2.0255,-2.0255,-2.0255,-2.0255,-2.0186,-2.0108,-2.0108,-1.9951,-1.9794,-1.9794,-1.9706,-1.9548,-1.9469,-1.9478,-1.9478,-1.9478,-1.9381,-1.9301,-1.9301,-1.9301,-1.9301,-1.9301,-1.9301,-1.9301,-1.9301,-1.9301,-1.9301,-1.9301,-1.9301,-1.9301,-1.3656,-1.4925,-1.5998,-1.5721,-1.583,-1.5856,-1.5352,-1.4216,-1.3317,-1.3317,-1.2732,-1.2103,-1.1371,-1.0644,-1.0015,-0.9412,-0.9388,-0.9754,-1.0573,-1.0104,-0.941,-0.8814,-0.7733,0.0,0.0,0.0,0.0,0.0,0.0,0.0,0.0,-0.5733,-0.5733,-0.5733,-0.5733,-0.6086,-0.6877,-0.7841,-0.8719,-0.9685,-0.9685,-1.0207,-1.1262,-1.1435,-1.1688,0.0,0.0,0.0,-1.2705,-1.2705,-1.2875,-1.3137,-1.3137,-1.3307,-1.3652,-1.3652,-1.3822,-1.4004,-1.4004,-1.4088,-1.4166,-1.4321,-1.4314,-1.4398,-1.4573,-1.4489,-1.4566,-1.547,-1.6519,-1.7577,-1.823,-1.9204,-2.0098,-2.0186,-2.0108,-2.002,-2.0411,-2.0177,-1.9942,-2.0186,-2.002,-1.9863,-1.9863,-1.9863,-1.9863,-1.9863,-1.9863,-1.9863,-1.9863,-1.9715,-1.9557,-1.9557,-1.939,-1.9301,-1.9301,-1.9301,-1.9301,-1.9301,-1.9301,-1.9301,-1.9301,-1.9301,-1.9301,-1.9301,-1.9301,-1.9301,-1.9301,-1.9301,-1.9301,-1.9301,-1.9301,-1.9301,-1.266,-1.367,-1.4545,-1.4745,-1.4537,-1.4171,-1.3873,-1.3096,-1.2445,-1.2445,-1.2372,-1.2159,-1.1787,-1.101,-1.0264,-1.0095,-0.9998,-1.007,-1.0427,-0.9989,-0.971,-1.001,0.0,0.0,0.0,0.0,0.0,0.0,0.0,0.0,0.0,-0.5733,-0.5733,-0.5733,-0.5733,-0.5733,-0.5908,-0.6877,-0.7753,-0.8719,-0.8719,-0.8807,-0.9065,-1.0033,-1.0636,0.0,0.0,0.0,-1.2705,-1.2705,-1.2875,-1.3137,-1.3137,-1.3222,-1.3483,-1.3652,-1.3652,-1.3568,-1.3737,-1.3913,-1.4088,-1.4173,-1.4166,-1.4166,-1.4166,-1.4166,-1.4166,-1.4334,-1.5137,-1.6273,-1.7253,-1.8149,-1.9045,-1.9784,-1.9942,-1.9942,-2.002,-1.9942,-1.9942,-1.9942,-1.9942,-1.9863,-1.9863,-1.9863,-1.9863,-1.9863,-1.9794,-1.9645,-1.9645,-1.9469,-1.9381,-1.9381,-1.9301,-1.9301,-1.9301,-1.9301,-1.9301,-1.9301,-1.9301,-1.9301,-1.9301,-1.9301,-1.9301,-1.9301,-1.9301,-1.9301,-1.9301,-1.9301,-1.9301,-1.9301,-1.9301,-1.9301,-1.1723,-1.251,-1.3164,-1.3194,-1.3816,-1.4316,-1.388,-1.3324,-1.2792,-1.2792,-1.2792,-1.2479,-1.1375,-1.098,-1.0535,-0.9841,-0.9801,-0.982,-0.9908,-0.9719,-0.9521,0.0,0.0,0.0,0.0,0.0,0.0,0.0,0.0,0.0,0.0,0.0,-0.5282,-0.5282,-0.5282,-0.5282,-0.5282,-0.5902,-0.6697,-0.7753,-0.7753,-0.8017,-0.8544,-0.9069,-0.9763,-1.0453,0.0,-1.1757,-1.2534,-1.2534,-1.2705,-1.2875,-1.2875,-1.3052,-1.3228,-1.3483,-1.3476,-1.3398,-1.3476,-1.3652,-1.3913,-1.3743,-1.3913,-1.4088,-1.3913,-1.3997,-1.4088,-1.4088,-1.4894,-1.5786,-1.6198,-1.7334,-1.855,-1.8957,-1.9292,-1.9627,-1.9863,-1.9706,-1.9627,-1.9715,-1.9627,-1.9539,-1.9539,-1.9539,-1.9539,-1.9539,-1.9469,-1.9469,-1.9469,-1.9381,-1.9301,-1.9301,-1.9301,-1.9301,-1.9301,-1.9301,-1.9301,-1.9301,-1.9301,-1.9301,-1.9301,-1.9301,-1.9301,-1.9301,-1.9301,-1.9301,-1.9301,-1.9301,-1.9301,-1.9301,-1.9301,-1.9301,-1.1089,-1.1585,-1.2016,-1.2096,-1.3222,-1.424,-1.4061,-1.3499,-1.3174,-1.3387,-1.336,-1.284,-1.1339,-1.099,-1.0607,-0.956,-0.9506,-0.9628,-0.9628,-0.9592,-0.9363,-0.8674,0.0,0.0,0.0,0.0,0.0,0.0,0.0,0.0,0.0,0.0,-0.501,-0.501,-0.501,-0.501,-0.501,-0.528,-0.5813,-0.6697,-0.6789,-0.7139,-0.7841,-0.8105,-0.8719,-0.968,-0.9854,-1.0717,-1.2009,-1.2015,-1.2272,-1.2619,-1.2705,-1.2875,-1.3143,-1.3222,-1.3307,-1.3392,-1.3313,-1.3483,-1.3568,-1.3476,-1.3652,-1.3913,-1.3737,-1.3828,-1.3997,-1.4088,-1.465,-1.5296,-1.5636,-1.6772,-1.806,-1.847,-1.8966,-1.9381,-1.9696,-1.9539,-1.9381,-1.9478,-1.939,-1.9301,-1.9301,-1.9301,-1.9301,-1.9301,-1.9301,-1.9301,-1.9301,-1.9301,-1.9301,-1.9301,-1.9301,-1.9301,-1.9301,-1.9301,-1.9301,-1.9301,-1.9301,-1.9301,-1.9301,-1.9301,-1.9301,-1.9301,-1.9301,-1.9301,-1.9301,-1.9301,-1.9301,-1.9301,-1.9301,-1.9301,-1.0885,-1.1131,-1.1354,-1.2043,-1.2312,-1.259,-1.3466,-1.3272,-1.312,-1.3908,-1.3801,-1.3359,-1.2687,-1.1483,-1.032,-0.9511,-0.9506,-0.9628,-0.9628,0.0,-0.9376,0.0,0.0,0.0,0.0,0.0,0.0,0.0,0.0,0.0,0.0,0.0,0.0,-0.501,-0.501,-0.501,-0.501,-0.528,-0.546,-0.5549,-0.573,-0.5822,-0.5908,-0.6789,-0.7401,-0.7753,-0.8627,-0.9666,-1.0783,-1.0956,-1.166,-1.2448,-1.2619,-1.2875,-1.3052,-1.2875,-1.3052,-1.3398,-1.3222,-1.3222,-1.3392,-1.3398,-1.3392,-1.3476,-1.3652,-1.3568,-1.3568,-1.4004,-1.3997,-1.4314,-1.6124,-1.6698,-1.718,-1.8816,-1.9292,-1.9301,-1.9301,-1.9301,-1.9301,-1.9301,-1.9301,-1.9301,-1.9301,-1.9301,-1.9301,-1.9301,-1.9301,-1.9301,-1.9301,-1.9301,-1.9301,-1.9301,-1.9301,-1.9301,-1.9301,-1.9301,-1.9301,-1.9301,-1.9301,-1.9301,-1.9301,-1.9301,-1.9301,-1.9301,-1.9301,-1.9301,-1.9301,-1.9301,-1.9301,-1.9301,-1.9301,-1.9301,-1.0318,-1.0688,-1.1178,-1.1627,-1.1991,-1.2559,-1.3533,-1.3723,-1.3881,-1.4549,-1.4543,-1.4047,-1.2543,-1.0817,-0.9579,-0.928,-0.9344,-0.9421,-0.9315,-0.9238,0.0,0.0,0.0,0.0,0.0,0.0,0.0,0.0,0.0,0.0,0.0,0.0,0.0,-0.4565,-0.4565,-0.4656,-0.4835,-0.5013,-0.5191,-0.5371,-0.5644,-0.5733,-0.5733,-0.6086,-0.6612,-0.7316,-0.7665,-0.8536,-0.9749,-1.0438,-1.1139,-1.1757,-1.2448,-1.279,-1.2881,-1.2705,-1.279,-1.296,-1.2875,-1.3052,-1.3222,-1.3052,-1.3137,-1.3392,-1.3313,-1.3392,-1.3483,-1.3568,-1.3568,-1.373,-1.4817,-1.5884,-1.6862,-1.7513,-1.8487,-1.9301,-1.9301,-1.9301,-1.9301,-1.9301,-1.9301,-1.9301,-1.9301,-1.9301,-1.9301,-1.9301,-1.9301,-1.9301,-1.9301,-1.9301,-1.9301,-1.9301,-1.9222,-1.9073,-1.9073,-1.9002,-1.8922,-1.8922,-1.9152,-1.9222,-1.9152,-1.9073,-1.9073,-1.8922,-1.8922,-1.8922,-1.8922,-1.8922,-1.8922,-1.8922,-1.8922,-1.8922,-1.0387,-1.0796,-1.1357,-1.1627,-1.2123,-1.277,-1.375,-1.403,-1.4278,-1.5023,-1.503,-1.4385,-1.2287,-1.0827,-0.9736,-0.9099,-0.9157,-0.9234,-0.9116,0.0,0.0,0.0,0.0,0.0,0.0,0.0,0.0,0.0,0.0,0.0,0.0,0.0,0.0,0.0,-0.4389,-0.448,-0.4661,-0.5013,-0.5191,-0.5371,-0.5644,-0.5733,-0.5733,-0.5733,-0.6086,-0.67,-0.67,-0.7401,-0.8623,-0.9314,-1.0269,-1.1322,-1.2272,-1.2619,-1.2705,-1.2705,-1.2705,-1.2705,-1.2705,-1.279,-1.2966,-1.279,-1.2875,-1.3137,-1.3137,-1.3137,-1.3222,-1.3392,-1.3313,-1.3398,-1.3743,-1.5137,-1.6617,-1.7025,-1.8167,-1.9222,-1.9301,-1.9301,-1.9301,-1.9301,-1.9301,-1.9301,-1.9301,-1.9301,-1.9301,-1.9301,-1.9301,-1.9301,-1.9301,-1.9222,-1.9152,-1.9152,-1.9073,-1.9002,-1.8922,-1.8772,-1.87,-1.87,-1.8922,-1.9082,-1.8922,-1.8922,-1.8851,-1.87,-1.87,-1.87,-1.87,-1.87,-1.87,-1.87,-1.87,-1.87,-1.1293,-1.1569,-1.1857,-1.2139,-1.2644,-1.322,-1.4037,-1.4086,-1.416,-1.5186,-1.5164,-1.4327,-1.2171,-1.1671,-1.0954,-0.9083,-0.8974,-0.9092,0.0,0.0,0.0,0.0,0.0,0.0,0.0,0.0,0.0,0.0,0.0,0.0,0.0,0.0,0.0,0.0,-0.4569,-0.4661,-0.475,-0.5193,-0.5371,-0.5371,-0.5644,-0.5733,-0.5733,-0.5733,-0.5733,-0.5733,-0.5733,-0.6263,-0.7139,-0.7401,-0.8877,-1.1042,-1.2009,-1.2534,-1.2705,-1.2705,-1.2705,-1.2705,-1.2705,-1.2705,-1.2705,-1.2705,-1.2705,-1.279,-1.3052,-1.2881,-1.279,-1.3222,-1.3222,-1.3143,-1.3313,-1.472,-1.6363,-1.7666,-1.8496,-1.9082,-1.9222,-1.9301,-1.9301,-1.9301,-1.9301,-1.9301,-1.9301,-1.9301,-1.9301,-1.9301,-1.9301,-1.9301,-1.9301,-1.9152,-1.8922,-1.87,-1.8851,-1.8922,-1.87,-1.87,-1.87,-1.87,-1.87,-1.87,-1.87,-1.87,-1.87,-1.87,-1.87,-1.87,-1.87,-1.87,-1.87,-1.87,-1.87,-1.87,-1.1077,-1.1494,-1.2013,-1.2158,-1.3027,-1.3873,-1.4135,-1.448,-1.4694,-1.4678,-1.3809,-1.2649,-1.1202,-1.0253,-0.94,-0.875,-0.8787,-0.8861,0.0,0.0,0.0,0.0,0.0,0.0,0.0,0.0,0.0,0.0,0.0,0.0,0.0,0.0,0.0,0.0,-0.4832,-0.5013,-0.5193,-0.5371,-0.5463,-0.5644,-0.5644,-0.5733,-0.5733,-0.5733,-0.5733,-0.5733,-0.5733,-0.5997,-0.6435,-0.7309,-0.8524,-0.9822,-1.0956,-1.1483,-1.1569,-1.2443,-1.2705,-1.2705,-1.2705,-1.2705,-1.2705,-1.2705,-1.2705,-1.2705,-1.279,-1.279,-1.2705,-1.2875,-1.2875,-1.2875,-1.3137,-1.4391,-1.5718,-1.6445,-1.7691,-1.8772,-1.8851,-1.9002,-1.9082,-1.8922,-1.9002,-1.9073,-1.9073,-1.9073,-1.9152,-1.9301,-1.9301,-1.9222,-1.9073,-1.8922,-1.878,-1.87,-1.8612,-1.8523,-1.8523,-1.8282,-1.8201,-1.8201,-1.8201,-1.8282,-1.8442,-1.8523,-1.8362,-1.8201,-1.8201,-1.8201,-1.8201,-1.8201,-1.8201,-1.8201,-1.8201,-1.8201,-1.1638,-1.2168,-1.2784,-1.3039,-1.3749,-1.4408,-1.4639,-1.487,-1.4937,-1.427,-1.3338,-1.2158,-1.0798,-0.9818,-0.9123,-0.8673,-0.8653,-0.8682,0.0,0.0,0.0,0.0,0.0,0.0,0.0,0.0,0.0,0.0,0.0,0.0,0.0,0.0,0.0,0.0,-0.4995,-0.4976,-0.5241,-0.537,-0.546,-0.5591,-0.5687,-0.5708,-0.5662,-0.5711,-0.5733,-0.5733,-0.5733,-0.5822,-0.5997,-0.7048,-0.7918,-0.8698,-1.0183,-1.0794,-1.0956,-1.2015,-1.2454,-1.2454,-1.2534,-1.2619,-1.2619,-1.2705,-1.2705,-1.2705,-1.2705,-1.2705,-1.2705,-1.2705,-1.2705,-1.2705,-1.2881,-1.4139,-1.5477,-1.5876,-1.7286,-1.8612,-1.87,-1.878,-1.8851,-1.8692,-1.8772,-1.8851,-1.8851,-1.8851,-1.8922,-1.9073,-1.9073,-1.9002,-1.8763,-1.8692,-1.862,-1.8451,-1.8442,-1.8362,-1.8273,-1.8112,-1.804,-1.804,-1.804,-1.8031,-1.8193,-1.8282,-1.8201,-1.804,-1.804,-1.804,-1.804,-1.804,-1.804,-1.804,-1.804,-1.804,-1.2661,-1.3126,-1.3748,-1.4335,-1.4522,-1.4696,-1.5237,-1.513,-1.4733,-1.4075,-1.3447,-1.2474,-1.0701,-1.0088,-0.9515,-0.874,-0.8568,0.0,0.0,0.0,0.0,0.0,0.0,0.0,0.0,0.0,0.0,0.0,0.0,0.0,0.0,0.0,0.0,0.0,-0.5086,0.0,-0.504,-0.531,-0.5477,0.0,-0.5594,-0.5643,-0.5537,-0.5673,-0.5733,-0.5733,-0.5733,-0.5733,-0.5733,-0.6612,-0.7139,-0.7489,-0.9331,-1.0193,-1.0529,-1.1505,-1.1952,-1.2037,-1.2283,-1.2363,-1.2369,-1.2619,-1.2705,-1.2705,-1.2705,-1.2705,-1.2705,-1.2705,-1.2705,-1.2705,-1.2705,-1.3964,-1.5387,-1.5876,-1.7196,-1.8442,-1.8612,-1.87,-1.87,-1.8612,-1.87,-1.87,-1.87,-1.87,-1.87,-1.87,-1.87,-1.8612,-1.8442,-1.8531,-1.8451,-1.804,-1.8201,-1.8282,-1.804,-1.804,-1.804,-1.804,-1.804,-1.804,-1.804,-1.804,-1.804,-1.804,-1.804,-1.804,-1.804,-1.804,-1.804,-1.804,-1.804,-1.804,-1.1977,-1.2665,-1.344,-1.4035,-1.4529,-1.4903,-1.503,-1.483,-1.4425,-1.3695,-1.2777,-1.1677,-1.0428,-0.9469,-0.8828,-0.8656,0.0,0.0,0.0,0.0,0.0,0.0,0.0,0.0,0.0,0.0,0.0,0.0,0.0,0.0,0.0,0.0,0.0,-0.6396,0.0,-0.5285,-0.5288,-0.5396,-0.5396,0.0,-0.5423,-0.5434,-0.5415,-0.5635,-0.5733,-0.5733,-0.5733,-0.5733,-0.5733,-0.5908,-0.5997,-0.626,-0.7577,-0.854,-0.941,-1.0534,-1.1327,-1.2037,-1.2283,-1.2283,-1.2123,-1.2369,-1.2448,-1.2448,-1.2448,-1.2534,-1.2705,-1.2705,-1.2705,-1.2705,-1.2705,-1.3457,-1.4552,-1.5304,-1.6878,-1.8121,-1.8121,-1.8282,-1.8362,-1.8201,-1.8282,-1.8442,-1.8442,-1.8442,-1.8523,-1.87,-1.8612,-1.8442,-1.8442,-1.8282,-1.8121,-1.804,-1.8031,-1.804,-1.804,-1.804,-1.804,-1.804,-1.804,-1.804,-1.804,-1.804,-1.804,-1.804,-1.804,-1.804,-1.804,-1.804,-1.804,-1.804,-1.804,-1.804,-1.1957,-1.2632,-1.3387,-1.4115,-1.4736,-1.5097,-1.4816,-1.4629,-1.4342,-1.3818,-1.2563,-1.1159,-0.9664,-0.8975,-0.8568,0.0,0.0,0.0,0.0,0.0,0.0,0.0,0.0,0.0,0.0,0.0,0.0,0.0,0.0,0.0,0.0,-0.7764,-0.7149,0.0,-0.6025,-0.5517,-0.52,-0.5254,-0.5254,-0.5203,-0.5317,-0.5401,-0.5461,-0.5586,-0.5678,-0.5733,-0.5733,-0.5733,-0.5733,-0.5733,-0.5733,-0.5822,-0.6874,-0.7837,-0.8803,-0.9845,-1.0895,-1.1693,-1.1946,-1.1952,-1.1871,-1.2118,-1.2283,-1.2363,-1.2289,-1.2369,-1.2534,-1.2534,-1.2534,-1.2619,-1.2705,-1.3372,-1.4216,-1.5144,-1.6378,-1.7456,-1.787,-1.8121,-1.8201,-1.804,-1.8112,-1.8201,-1.8201,-1.8201,-1.8282,-1.8371,-1.8282,-1.8201,-1.8201,-1.8121,-1.804,-1.804,-1.804,-1.804,-1.804,-1.804,-1.804,-1.804,-1.804,-1.804,-1.804,-1.804,-1.804,-1.804,-1.804,-1.804,-1.804,-1.804,-1.804,-1.804,-1.804,-1.804,-1.2004,-1.2705,-1.348,-1.4309,-1.4883,-1.5104,-1.4569,-1.4442,-1.4289,-1.3704,-1.2357,-1.0809,-0.9345,-0.8798,-0.8607,0.0,0.0,0.0,0.0,0.0,0.0,0.0,0.0,0.0,0.0,0.0,0.0,0.0,0.0,0.0,-0.9214,-0.8484,-0.7762,-0.7209,-0.6376,-0.5622,-0.5018,-0.511,-0.511,-0.5021,-0.5216,-0.5382,-0.5521,-0.5521,-0.5597,-0.5733,-0.5733,-0.5733,-0.5733,-0.5733,-0.5733,-0.5822,-0.6526,-0.7492,-0.8632,-0.9331,-1.0386,-1.1354,-1.1613,-1.1699,-1.1699,-1.1871,-1.2118,-1.2198,-1.2037,-1.2118,-1.2363,-1.2363,-1.2363,-1.2448,-1.2619,-1.3203,-1.4048,-1.5137,-1.5966,-1.6788,-1.7789,-1.804,-1.804,-1.804,-1.804,-1.804,-1.804,-1.804,-1.804,-1.804,-1.804,-1.804,-1.804,-1.804,-1.804,-1.804,-1.804,-1.804,-1.804,-1.804,-1.804,-1.804,-1.804,-1.804,-1.804,-1.804,-1.804,-1.804,-1.804,-1.804,-1.804,-1.804,-1.804,-1.804,-1.804,-1.804,-1.145,-1.2538,-1.3734,-1.4362,-1.4576,-1.4549,-1.4222,-1.4142,-1.3698,-1.202,-1.1494,-1.1241,-1.0982,-0.9542,0.0,0.0,0.0,0.0,0.0,0.0,0.0,0.0,0.0,0.0,0.0,0.0,0.0,0.0,0.0,0.0,-0.9254,-0.8521,-0.7885,-0.7496,-0.6633,-0.5783,-0.5018,-0.5031,-0.5031,-0.5018,-0.505,-0.5181,-0.5393,-0.5393,-0.5518,-0.5733,-0.5733,-0.5733,-0.5733,-0.5733,-0.5733,-0.5733,-0.5822,-0.6962,-0.8544,-0.8632,-0.9772,-1.1354,-1.1613,-1.1527,-1.144,-1.1699,-1.1785,-1.1785,-1.1785,-1.1871,-1.2037,-1.2037,-1.2203,-1.2448,-1.2448,-1.2619,-1.3294,-1.4977,-1.5477,-1.6049,-1.7627,-1.804,-1.804,-1.804,-1.804,-1.804,-1.804,-1.804,-1.804,-1.804,-1.804,-1.804,-1.804,-1.804,-1.804,-1.804,-1.804,-1.804,-1.804,-1.804,-1.804,-1.804,-1.804,-1.804,-1.804,-1.804,-1.804,-1.804,-1.804,-1.804,-1.804,-1.804,-1.804,-1.804,-1.804,-1.804,-1.1703,-1.2639,-1.354,-1.4135,-1.4402,-1.4442,-1.4155,-1.4088,-1.3743,-1.2357,-1.1671,-1.094,-0.979,0.0,0.0,0.0,0.0,0.0,0.0,0.0,0.0,0.0,0.0,0.0,0.0,0.0,0.0,0.0,0.0,-0.9241,-0.962,-0.9306,-0.8618,-0.754,-0.7157,-0.6318,-0.5018,-0.5018,-0.5018,-0.5018,-0.5018,-0.5105,-0.5265,-0.5265,-0.5436,-0.5733,-0.5733,-0.5733,-0.5733,-0.5733,-0.5733,-0.5733,-0.5733,-0.6523,-0.7753,-0.8281,-0.9331,-1.0646,-1.1262,-1.144,-1.1354,-1.144,-1.1613,-1.1699,-1.1527,-1.1613,-1.1871,-1.1871,-1.1952,-1.2032,-1.2363,-1.2448,-1.3039,-1.497,-1.5394,-1.5891,-1.7627,-1.804,-1.804,-1.804,-1.804,-1.804,-1.804,-1.804,-1.804,-1.804,-1.804,-1.804,-1.804,-1.804,-1.804,-1.804,-1.804,-1.804,-1.804,-1.804,-1.804,-1.804,-1.804,-1.804,-1.804,-1.804,-1.804,-1.804,-1.804,-1.804,-1.804,-1.804,-1.804,-1.804,-1.804,-1.804,-1.1804,-1.2412,-1.2919,-1.3581,-1.3968,-1.4148,-1.4008,-1.386,-1.3483,-1.2534,-1.1536,-1.0308,-0.8586,0.0,0.0,0.0,0.0,0.0,0.0,0.0,0.0,0.0,0.0,0.0,0.0,0.0,0.0,0.0,0.0,-0.9846,-1.0143,-0.9992,-0.9231,-0.7851,-0.7617,-0.6777,-0.5323,-0.5093,-0.5018,-0.5018,-0.4937,-0.4996,-0.5186,-0.5109,-0.5272,-0.5643,-0.5673,-0.5687,-0.5689,-0.5722,-0.5733,-0.5733,-0.5733,-0.626,-0.7228,-0.8193,-0.9069,-1.0033,-1.0997,-1.1262,-1.1262,-1.1262,-1.144,-1.1527,-1.1348,-1.144,-1.1613,-1.1613,-1.1613,-1.1785,-1.2198,-1.2369,-1.2869,-1.4636,-1.5228,-1.5891,-1.7627,-1.804,-1.804,-1.804,-1.804,-1.804,-1.804,-1.804,-1.804,-1.804,-1.804,-1.804,-1.804,-1.804,-1.804,-1.804,-1.804,-1.804,-1.804,-1.804,-1.804,-1.804,-1.804,-1.804,-1.804,-1.804,-1.804,-1.804,-1.804,-1.804,-1.804,-1.804,-1.804,-1.804,-1.804,-1.804,-1.1303,-1.1496,-1.1724,-1.2674,-1.3053,-1.3347,-1.3607,-1.3201,-1.2534,-1.158,-1.0549,-0.9415,0.0,0.0,0.0,0.0,0.0,0.0,0.0,0.0,0.0,0.0,0.0,0.0,0.0,0.0,0.0,0.0,0.0,-1.0738,-1.0738,-1.0218,-0.9539,-0.8699,-0.7927,-0.708,-0.6163,-0.5398,-0.5018,-0.5018,-0.4779,-0.4915,-0.5186,-0.5031,-0.5102,-0.5396,-0.551,-0.5475,-0.5483,-0.5687,-0.5733,-0.5733,-0.5733,-0.626,-0.7228,-0.8193,-0.9069,-1.0033,-1.0997,-1.1262,-1.1262,-1.1262,-1.1354,-1.1354,-1.1262,-1.1354,-1.1348,-1.1348,-1.1527,-1.1785,-1.1957,-1.2203,-1.2699,-1.3789,-1.472,-1.5891,-1.7627,-1.804,-1.804,-1.804,-1.804,-1.804,-1.804,-1.804,-1.804,-1.804,-1.804,-1.804,-1.804,-1.804,-1.804,-1.804,-1.804,-1.804,-1.804,-1.804,-1.804,-1.804,-1.804,-1.804,-1.804,-1.804,-1.804,-1.804,-1.804,-1.804,-1.804,-1.804,-1.804,-1.804,-1.804,-1.804,-1.1269,-1.1423,-1.159,-1.2291,-1.2298,-1.2148,-1.2249,-1.1881,-1.1299,-1.031,-0.9917,-0.9359,0.0,0.0,0.0,0.0,0.0,0.0,0.0,0.0,0.0,0.0,0.0,0.0,0.0,0.0,0.0,0.0,0.0,0.0,-1.0812,-1.0218,-0.9539,-0.8699,-0.7927,-0.6853,-0.5476,-0.5171,-0.5018,-0.5018,-0.4937,-0.4959,-0.5078,-0.4841,-0.4862,-0.4986,-0.4941,-0.5155,-0.5467,-0.5423,-0.5486,-0.5733,-0.5733,-0.5911,-0.6349,-0.7929,-0.8719,-0.9244,-1.0738,-1.1262,-1.1262,-1.1262,-1.1262,-1.1262,-1.1262,-1.1262,-1.1262,-1.1262,-1.1348,-1.1527,-1.1699,-1.1952,-1.2625,-1.4468,-1.5545,-1.6542,-1.7708,-1.804,-1.804,-1.804,-1.804,-1.804,-1.804,-1.804,-1.804,-1.804,-1.804,-1.804,-1.804,-1.804,-1.804,-1.804,-1.804,-1.804,-1.804,-1.804,-1.804,-1.804,-1.804,-1.804,-1.804,-1.804,-1.804,-1.804,-1.804,-1.804,-1.804,-1.804,-1.804,-1.804,-1.804,-1.804,-1.1029,-1.1136,-1.1276,-1.1857,-1.1713,-1.1471,-1.1514,-1.1135,-1.0458,-0.9562,-0.9206,0.0,0.0,0.0,0.0,0.0,0.0,0.0,0.0,0.0,0.0,0.0,0.0,0.0,0.0,0.0,0.0,0.0,0.0,0.0,-1.1111,-1.0513,-0.9609,-0.8313,-0.777,-0.67,-0.5018,-0.5018,-0.5018,-0.5018,-0.4937,-0.4937,-0.4859,-0.4701,-0.4621,-0.4623,-0.4463,-0.4755,-0.5181,-0.517,-0.5333,-0.5585,-0.5628,-0.5733,-0.5908,-0.7841,-0.8544,-0.8807,-1.0646,-1.1262,-1.1262,-1.1262,-1.1262,-1.1262,-1.1262,-1.1262,-1.1262,-1.1262,-1.1262,-1.1348,-1.1613,-1.2118,-1.313,-1.5144,-1.6206,-1.6952,-1.7789,-1.804,-1.804,-1.804,-1.804,-1.804,-1.804,-1.804,-1.804,-1.804,-1.804,-1.804,-1.804,-1.804,-1.804,-1.804,-1.804,-1.804,-1.804,-1.804,-1.804,-1.804,-1.804,-1.804,-1.804,-1.804,-1.804,-1.804,-1.804,-1.804,-1.804,-1.804,-1.804,-1.804,-1.804,-1.804,0.0,0.0,0.0,-1.1263,-1.1334,-1.1357,-1.1432,-1.0772,-0.999,-0.948,-0.8577,0.0,0.0,0.0,0.0,0.0,0.0,0.0,0.0,0.0,0.0,0.0,0.0,0.0,0.0,0.0,0.0,0.0,0.0,-1.2298,-1.1706,-1.1111,-0.9744,-0.7536,-0.7464,-0.67,-0.5018,-0.5018,-0.5018,-0.5018,-0.4779,-0.4701,-0.4701,-0.4462,-0.4384,-0.4384,-0.4155,-0.4288,-0.4637,-0.5017,-0.5193,-0.5208,-0.559,-0.5638,-0.5905,-0.7841,-0.8456,-0.8807,-1.0646,-1.1262,-1.1262,-1.1262,-1.1262,-1.1262,-1.1262,-1.1262,-1.1262,-1.1262,-1.1262,-1.1348,-1.1613,-1.2705,-1.4041,-1.5718,-1.6378,-1.6952,-1.7789,-1.804,-1.804,-1.804,-1.804,-1.804,-1.804,-1.804,-1.804,-1.804,-1.804,-1.804,-1.804,-1.804,-1.804,-1.804,-1.804,-1.804,-1.804,-1.804,-1.804,-1.804,-1.804,-1.804,-1.804,-1.804,-1.804,-1.804,-1.804,-1.804,-1.804,-1.804,-1.804,-1.804,-1.804,-1.804,-0.9779,0.0,0.0,0.0,0.0,0.0,0.0,0.0,-0.9399,-0.8713,-0.8412,0.0,0.0,0.0,0.0,0.0,0.0,0.0,0.0,0.0,0.0,0.0,0.0,0.0,0.0,0.0,0.0,0.0,-1.1781,-1.126,-1.1037,-1.0519,-0.9301,-0.754,-0.7464,-0.67,-0.5018,-0.5018,-0.5018,-0.5018,-0.4779,-0.4701,-0.4701,-0.4311,-0.4155,-0.4155,-0.3999,-0.3936,-0.4047,-0.441,-0.4672,-0.484,-0.5036,-0.5252,-0.5605,-0.7526,-0.836,-0.8807,-1.0646,-1.1262,-1.1262,-1.1262,-1.1262,-1.1262,-1.1262,-1.1262,-1.1262,-1.1262,-1.1262,-1.1435,-1.2198,-1.2705,-1.3542,-1.5636,-1.6221,-1.655,-1.7789,-1.804,-1.804,-1.804,-1.804,-1.804,-1.804,-1.804,-1.804,-1.804,-1.804,-1.804,-1.804,-1.804,-1.804,-1.804,-1.804,-1.804,-1.804,-1.804,-1.804,-1.804,-1.804,-1.804,-1.804,-1.804,-1.804,-1.804,-1.804,-1.804,-1.804,-1.804,-1.804,-1.804,-1.804,-1.804,-0.9098,-0.939,-0.9746,-0.9857,0.0,0.0,-0.9225,-0.9136,-0.8867,0.0,0.0,0.0,0.0,0.0,0.0,0.0,0.0,0.0,0.0,0.0,0.0,0.0,0.0,0.0,0.0,0.0,0.0,0.0,-1.1706,-1.1037,-1.0812,-1.0218,-0.915,-0.754,-0.7464,-0.67,-0.5018,-0.5018,-0.5018,-0.5018,-0.4779,-0.4621,-0.4543,-0.4233,-0.4079,-0.3999,-0.3843,-0.3763,-0.3845,-0.3976,-0.4297,-0.4561,-0.4753,-0.4908,-0.5295,-0.7346,-0.8206,-0.8623,-1.0646,-1.1262,-1.1262,-1.1262,-1.1262,-1.1262,-1.1262,-1.1262,-1.1262,-1.1262,-1.1262,-1.1521,-1.2711,-1.3124,-1.3711,-1.5643,-1.6394,-1.6886,-1.7627,-1.7878,-1.804,-1.804,-1.804,-1.804,-1.804,-1.804,-1.804,-1.804,-1.804,-1.804,-1.804,-1.804,-1.804,-1.804,-1.804,-1.804,-1.804,-1.804,-1.804,-1.804,-1.804,-1.804,-1.804,-1.804,-1.804,-1.804,-1.804,-1.804,-1.804,-1.804,-1.804,-1.804,-1.804,-1.804,-0.8504,-0.85,-0.8608,-0.8858,-0.9162,0.0,-0.8423,-0.8506,-0.8439,0.0,0.0,0.0,0.0,0.0,0.0,0.0,0.0,0.0,0.0,0.0,0.0,0.0,0.0,0.0,0.0,-1.29,-1.2526,-1.2378,-1.1855,-1.126,-1.0738,-1.0218,-0.915,-0.754,-0.7464,-0.67,-0.5018,-0.5018,-0.5018,-0.4937,-0.4779,-0.4543,-0.4384,-0.4155,-0.3999,-0.3763,-0.3763,-0.3763,-0.3763,-0.3763,-0.3968,-0.429,-0.4479,-0.4744,-0.5082,-0.7126,-0.8002,-0.8499,-1.0519,-1.1241,-1.1262,-1.1262,-1.1262,-1.1262,-1.1262,-1.1262,-1.1262,-1.1262,-1.1262,-1.1607,-1.2966,-1.3633,-1.43,-1.5658,-1.6656,-1.731,-1.7392,-1.7716,-1.7959,-1.7951,-1.804,-1.804,-1.804,-1.804,-1.804,-1.804,-1.804,-1.804,-1.804,-1.804,-1.804,-1.804,-1.804,-1.804,-1.804,-1.804,-1.804,-1.804,-1.804,-1.804,-1.804,-1.804,-1.804,-1.804,-1.804,-1.804,-1.804,-1.804,-1.804,-1.804,-1.804,-1.804,-0.8149,-0.8503,-0.888,-0.8815,-0.8953,0.0,-0.8562,-0.8615,-0.8596,0.0,-0.756,0.0,0.0,0.0,0.0,0.0,0.0,0.0,0.0,0.0,0.0,0.0,0.0,0.0,0.0,-1.2673,-1.2224,-1.1186,-1.0588,-1.0218,-1.0067,-0.9997,-0.915,-0.754,-0.7464,-0.67,-0.5018,-0.5018,-0.4937,-0.4779,-0.4543,-0.4387,-0.4155,-0.3921,-0.3841,-0.3763,-0.3763,-0.3763,-0.3763,-0.3763,-0.3851,-0.3876,-0.4051,-0.4179,-0.4613,-0.635,-0.7403,-0.8312,-0.995,-1.0931,-1.1262,-1.1262,-1.1262,-1.1262,-1.1262,-1.1262,-1.1262,-1.1262,-1.1262,-1.1521,-1.2369,-1.3045,-1.3808,-1.4977,-1.5824,-1.6582,-1.7229,-1.7473,-1.7635,-1.7959,-1.804,-1.804,-1.804,-1.804,-1.804,-1.804,-1.804,-1.804,-1.804,-1.804,-1.804,-1.804,-1.804,-1.804,-1.804,-1.804,-1.804,-1.804,-1.804,-1.804,-1.804,-1.804,-1.804,-1.804,-1.804,-1.804,-1.804,-1.804,-1.804,-1.804,-1.804,-1.804,-0.7482,-0.7649,-0.7981,-0.7952,-0.8132,0.0,0.0,-0.7873,-0.7979,-0.7351,-0.7089,-0.7013,0.0,0.0,0.0,0.0,0.0,0.0,0.0,0.0,0.0,0.0,0.0,0.0,0.0,0.0,-1.1037,-1.0143,-0.9992,-0.9846,-0.9625,-0.962,-0.877,-0.708,-0.7003,-0.6237,-0.4701,-0.4701,-0.4621,-0.4543,-0.4309,-0.4233,-0.4079,-0.3921,-0.3763,-0.3763,-0.3763,-0.3763,-0.3763,-0.3763,-0.3763,-0.3845,-0.3972,-0.4101,-0.4468,-0.638,-0.745,-0.826,-1.0055,-1.098,-1.1262,-1.1262,-1.1262,-1.1262,-1.1262,-1.1262,-1.1262,-1.1262,-1.1262,-1.1435,-1.2198,-1.2881,-1.3646,-1.4559,-1.5409,-1.6252,-1.6902,-1.7229,-1.7554,-1.7959,-1.804,-1.804,-1.804,-1.804,-1.804,-1.804,-1.804,-1.804,-1.804,-1.804,-1.804,-1.804,-1.804,-1.804,-1.804,-1.804,-1.804,-1.804,-1.804,-1.804,-1.804,-1.804,-1.804,-1.804,-1.804,-1.804,-1.804,-1.804,-1.804,-1.804,-1.804,-1.804,-0.698,-0.6948,-0.711,-0.704,-0.7293,-0.7449,0.0,0.0,0.0,0.0,0.0,0.0,0.0,0.0,0.0,0.0,0.0,0.0,0.0,0.0,0.0,0.0,0.0,0.0,0.0,0.0,-0.9718,-0.9241,-0.9427,-0.9497,-0.9165,-0.917,-0.8394,-0.6542,-0.6465,-0.5848,-0.4384,-0.4384,-0.4384,-0.4307,-0.4155,-0.4079,-0.4001,-0.3843,-0.3763,-0.3763,-0.3763,-0.3763,-0.3763,-0.3763,-0.3763,-0.3841,-0.3999,-0.4128,-0.4437,-0.6496,-0.7558,-0.8154,-1.0093,-1.0926,-1.1134,-1.1268,-1.1311,-1.1262,-1.1262,-1.1262,-1.1262,-1.1262,-1.1262,-1.1435,-1.2026,-1.2711,-1.3392,-1.4062,-1.4992,-1.5914,-1.6492,-1.6902,-1.7392,-1.7797,-1.7959,-1.804,-1.804,-1.804,-1.804,-1.804,-1.804,-1.804,-1.804,-1.804,-1.804,-1.804,-1.804,-1.8006,-1.7937,-1.7997,-1.8006,-1.7937,-1.7929,-1.7929,-1.7929,-1.786,-1.7852,-1.7929,-1.7929,-1.7929,-1.7929,-1.7929,-1.7963,-1.804,-1.804,-1.7997,-0.7496,-0.7407,-0.7346,0.0,-0.713,-0.711,0.0,0.0,-0.6691,-0.6477,0.0,0.0,0.0,0.0,0.0,0.0,0.0,0.0,0.0,0.0,0.0,0.0,0.0,0.0,0.0,0.0,0.0,-0.8765,-0.8613,-0.8663,-0.877,-0.878,-0.8084,-0.6542,-0.6465,-0.5848,-0.4384,-0.4384,-0.4309,-0.4157,-0.4079,-0.3999,-0.3841,-0.3841,-0.3763,-0.3763,-0.3763,-0.3763,-0.3763,-0.3763,-0.3763,-0.3763,-0.3841,-0.3927,-0.433,-0.5802,-0.6838,-0.7789,-0.932,-1.0194,-1.0751,-1.0961,-1.1171,-1.1262,-1.1262,-1.1262,-1.1262,-1.1262,-1.1262,-1.1348,-1.1435,-1.194,-1.2705,-1.3392,-1.4062,-1.4901,-1.5914,-1.6492,-1.6902,-1.7392,-1.7797,-1.804,-1.804,-1.804,-1.804,-1.804,-1.804,-1.804,-1.804,-1.804,-1.804,-1.804,-1.804,-1.7903,-1.756,-1.7843,-1.7894,-1.7552,-1.7535,-1.7535,-1.7535,-1.7218,-1.7201,-1.7526,-1.7535,-1.7535,-1.7535,-1.7535,-1.7706,-1.804,-1.804,-1.786,-0.7431,0.0,0.0,0.0,0.0,0.0,-0.6652,0.0,-0.6546,0.0,0.0,0.0,0.0,0.0,0.0,0.0,0.0,0.0,0.0,0.0,0.0,0.0,0.0,0.0,0.0,0.0,0.0,0.0,0.0,-0.8417,-0.8318,-0.8327,-0.7629,-0.6005,-0.6005,-0.5389,-0.4075,-0.4075,-0.3997,-0.3921,-0.3921,-0.3921,-0.3763,-0.3763,-0.3763,-0.3763,-0.3763,-0.3763,-0.3763,-0.3763,-0.3763,-0.3763,-0.3763,-0.3997,-0.4462,-0.6311,-0.7266,-0.7894,-0.9493,-1.028,-1.067,-1.0907,-1.1052,-1.1165,-1.1225,-1.1262,-1.1262,-1.1262,-1.1262,-1.1262,-1.1262,-1.186,-1.2498,-1.3021,-1.3642,-1.4378,-1.5546,-1.5952,-1.6257,-1.6862,-1.7392,-1.7635,-1.7635,-1.7878,-1.804,-1.804,-1.804,-1.804,-1.804,-1.804,-1.804,-1.804,-1.804,-1.7877,-1.7501,-1.7612,-1.7552,-1.7175,-1.715,-1.715,-1.715,-1.7004,-1.6995,-1.715,-1.715,-1.715,-1.715,-1.7364,-1.7441,-1.7389,-1.7389,-1.7304,-0.7378,0.0,0.0,0.0,0.0,0.0,0.0,0.0,0.0,0.0,0.0,0.0,0.0,0.0,-0.655,-0.6497,0.0,-0.6672,0.0,0.0,0.0,0.0,0.0,0.0,0.0,0.0,0.0,0.0,0.0,0.0,-0.7936,-0.7795,-0.7019,-0.5622,-0.547,-0.4849,-0.3841,-0.3763,-0.3763,-0.3763,-0.3763,-0.3763,-0.3763,-0.3763,-0.3763,-0.3763,-0.3763,-0.3763,-0.3763,-0.3763,-0.3763,-0.3841,-0.3843,-0.4075,-0.454,-0.6465,-0.7316,-0.7903,-0.9486,-1.0268,-1.0573,-1.074,-1.088,-1.1004,-1.1122,-1.1198,-1.1235,-1.1091,-1.107,-1.1171,-1.1235,-1.1582,-1.2126,-1.2527,-1.3048,-1.3702,-1.4926,-1.5255,-1.5587,-1.6503,-1.6984,-1.731,-1.7554,-1.7797,-1.804,-1.804,-1.804,-1.804,-1.804,-1.804,-1.804,-1.804,-1.804,-1.7843,-1.7355,-1.7406,-1.7269,-1.679,-1.6764,-1.6721,-1.6619,-1.661,-1.6661,-1.6764,-1.6756,-1.6756,-1.6764,-1.703,-1.697,-1.6619,-1.6927,-1.6961,0.0,0.0,0.0,-0.7122,0.0,0.0,0.0,0.0,-0.6639,0.0,0.0,0.0,0.0,-0.6826,-0.6945,-0.6696,-0.668,0.0,0.0,0.0,0.0,0.0,0.0,0.0,0.0,0.0,0.0,0.0,0.0,0.0,-0.7464,-0.6945,-0.6325,-0.5622,-0.5007,-0.4465,-0.3841,-0.3763,-0.3763,-0.3763,-0.3763,-0.3763,-0.3763,-0.3763,-0.3763,-0.3763,-0.3763,-0.3763,-0.3763,-0.3763,-0.3763,-0.3841,-0.3999,-0.4079,-0.4311,-0.5699,-0.663,-0.7403,-0.887,-0.9792,-1.0304,-1.0315,-1.0622,-1.0945,-1.0724,-1.0816,-1.095,-1.0724,-1.0659,-1.0708,-1.0939,-1.0999,-1.1244,-1.1898,-1.2064,-1.2395,-1.3784,-1.4434,-1.5095,-1.6413,-1.673,-1.6976,-1.7878,-1.7951,-1.804,-1.804,-1.804,-1.804,-1.804,-1.804,-1.804,-1.804,-1.804,-1.774,-1.6995,-1.7261,-1.715,-1.6487,-1.6444,-1.6208,-1.5848,-1.584,-1.6002,-1.6435,-1.6353,-1.6353,-1.6444,-1.637,-1.6182,-1.5865,-1.6953,-1.7064,0.0,0.0,-0.7427,-0.7192,0.0,0.0,0.0,0.0,0.0,0.0,0.0,0.0,0.0,-0.6656,-0.6712,-0.6534,-0.6611,-0.6631,0.0,0.0,0.0,0.0,0.0,0.0,0.0,0.0,0.0,0.0,0.0,0.0,0.0,-0.6889,-0.6325,-0.5622,-0.5007,-0.4387,-0.3841,-0.3763,-0.3763,-0.3763,-0.3763,-0.3763,-0.3763,-0.3763,-0.3763,-0.3763,-0.3763,-0.3763,-0.3763,-0.3763,-0.3763,-0.3841,-0.3843,-0.3921,-0.4075,-0.5774,-0.6777,-0.7472,-0.9079,-0.9824,-1.0073,-1.0239,-1.0401,-1.0541,-1.0611,-1.0692,-1.0735,-1.0659,-1.0638,-1.0654,-1.0735,-1.0756,-1.0876,-1.1346,-1.1599,-1.2047,-1.342,-1.3971,-1.4607,-1.6011,-1.6492,-1.6894,-1.7473,-1.7797,-1.804,-1.804,-1.804,-1.7946,-1.7689,-1.7663,-1.7569,-1.7321,-1.7295,-1.709,-1.6576,-1.643,-1.6259,-1.6002,-1.5985,-1.5934,-1.5805,-1.5805,-1.5857,-1.5985,-1.5985,-1.5985,-1.5985,-1.6216,-1.6148,-1.5814,-1.6439,-1.6465,-0.7484,-0.7484,0.0,0.0,-0.7139,0.0,-0.6733,0.0,0.0,0.0,0.0,0.0,0.0,-0.6741,-0.6737,-0.6627,-0.6656,-0.6631,0.0,-0.642,0.0,0.0,0.0,-0.7126,0.0,-0.7257,-0.7074,-0.7272,0.0,0.0,0.0,0.0,-0.6015,-0.5622,-0.4774,-0.4231,-0.3841,-0.3763,-0.3763,-0.3763,-0.3763,-0.3763,-0.3763,-0.3763,-0.3763,-0.3763,-0.3763,-0.3763,-0.3763,-0.3763,-0.3763,-0.3763,-0.3763,-0.3763,-0.3997,-0.5619,-0.685,-0.7931,-0.9236,-0.9771,-0.9943,-1.011,-1.0223,-1.0304,-1.0363,-1.0444,-1.0498,-1.0406,-1.0379,-1.0401,-1.0492,-1.0514,-1.0551,-1.0779,-1.101,-1.1513,-1.2705,-1.3246,-1.4029,-1.5426,-1.5997,-1.6409,-1.7066,-1.7392,-1.7627,-1.7951,-1.804,-1.7903,-1.7518,-1.7466,-1.7329,-1.6961,-1.6918,-1.6764,-1.637,-1.6011,-1.5805,-1.5805,-1.5805,-1.5805,-1.5805,-1.5805,-1.5805,-1.5805,-1.5805,-1.5805,-1.5805,-1.6036,-1.6019,-1.5805,-1.6045,-1.6028]}]]